<?xml version="1.0" encoding="UTF-8" standalone="no" ?>
<gpx xmlns="http://www.topografix.com/GPX/1/1" xmlns:xsi="http://www.w3.org/2001/XMLSchema-instance" xsi:schemaLocation="http://www.topografix.com/GPX/1/1 http://www.topografix.com/GPX/1/1/gpx.xsd" version="1.1" creator="VisuGPX - https://www.visugpx.com">
  <metadata>
    <name>Autour d'Evrunes</name>
  </metadata>
  <trk>
    <name><![CDATA[Enregistrement du 13/01/2022]]></name>
    <extensions>
      <line xmlns="http://www.topografix.com/GPX/gpx_style/0/2">
        <color>0000FF</color>
        <width>4</width>
      </line>
    </extensions>
    <trkseg>
      <trkpt lat="46.99398" lon="-0.95983">
        <ele>75</ele>
        <time>2022-01-13T12:05:09Z</time>
      </trkpt>
      <trkpt lat="46.99399" lon="-0.95985">
        <ele>74</ele>
        <time>2022-01-13T12:05:11Z</time>
      </trkpt>
      <trkpt lat="46.994" lon="-0.95987">
        <ele>75</ele>
        <time>2022-01-13T12:05:13Z</time>
      </trkpt>
      <trkpt lat="46.99402" lon="-0.95992">
        <ele>75</ele>
        <time>2022-01-13T12:05:16Z</time>
      </trkpt>
      <trkpt lat="46.99401" lon="-0.95996">
        <ele>74</ele>
        <time>2022-01-13T12:05:18Z</time>
      </trkpt>
      <trkpt lat="46.994" lon="-0.96">
        <ele>75</ele>
        <time>2022-01-13T12:05:21Z</time>
      </trkpt>
      <trkpt lat="46.99398" lon="-0.96003">
        <ele>74</ele>
        <time>2022-01-13T12:05:24Z</time>
      </trkpt>
      <trkpt lat="46.99396" lon="-0.96007">
        <ele>74</ele>
        <time>2022-01-13T12:05:28Z</time>
      </trkpt>
      <trkpt lat="46.99396" lon="-0.96011">
        <ele>74</ele>
        <time>2022-01-13T12:05:33Z</time>
      </trkpt>
      <trkpt lat="46.99397" lon="-0.96014">
        <ele>75</ele>
        <time>2022-01-13T12:05:37Z</time>
      </trkpt>
      <trkpt lat="46.99399" lon="-0.96017">
        <ele>75</ele>
        <time>2022-01-13T12:05:41Z</time>
      </trkpt>
      <trkpt lat="46.99402" lon="-0.9602">
        <ele>76</ele>
        <time>2022-01-13T12:05:46Z</time>
      </trkpt>
      <trkpt lat="46.99404" lon="-0.96021">
        <ele>77</ele>
        <time>2022-01-13T12:05:50Z</time>
      </trkpt>
      <trkpt lat="46.99407" lon="-0.96022">
        <ele>77</ele>
        <time>2022-01-13T12:05:54Z</time>
      </trkpt>
      <trkpt lat="46.9941" lon="-0.96024">
        <ele>78</ele>
        <time>2022-01-13T12:05:59Z</time>
      </trkpt>
      <trkpt lat="46.99412" lon="-0.96026">
        <ele>79</ele>
        <time>2022-01-13T12:06:03Z</time>
      </trkpt>
      <trkpt lat="46.99415" lon="-0.96028">
        <ele>79</ele>
        <time>2022-01-13T12:06:06Z</time>
      </trkpt>
      <trkpt lat="46.99417" lon="-0.9603">
        <ele>79</ele>
        <time>2022-01-13T12:06:10Z</time>
      </trkpt>
      <trkpt lat="46.9942" lon="-0.96031">
        <ele>79</ele>
        <time>2022-01-13T12:06:15Z</time>
      </trkpt>
      <trkpt lat="46.99422" lon="-0.96034">
        <ele>80</ele>
        <time>2022-01-13T12:06:19Z</time>
      </trkpt>
      <trkpt lat="46.99425" lon="-0.96036">
        <ele>81</ele>
        <time>2022-01-13T12:06:23Z</time>
      </trkpt>
      <trkpt lat="46.99427" lon="-0.96039">
        <ele>82</ele>
        <time>2022-01-13T12:07:00Z</time>
      </trkpt>
      <trkpt lat="46.9943" lon="-0.96039">
        <ele>82</ele>
        <time>2022-01-13T12:07:34Z</time>
      </trkpt>
      <trkpt lat="46.99432" lon="-0.96041">
        <ele>82</ele>
        <time>2022-01-13T12:07:38Z</time>
      </trkpt>
      <trkpt lat="46.99433" lon="-0.96044">
        <ele>82</ele>
        <time>2022-01-13T12:07:41Z</time>
      </trkpt>
      <trkpt lat="46.99434" lon="-0.96048">
        <ele>82</ele>
        <time>2022-01-13T12:07:44Z</time>
      </trkpt>
      <trkpt lat="46.99435" lon="-0.96053">
        <ele>81</ele>
        <time>2022-01-13T12:07:49Z</time>
      </trkpt>
      <trkpt lat="46.99435" lon="-0.96057">
        <ele>81</ele>
        <time>2022-01-13T12:07:52Z</time>
      </trkpt>
      <trkpt lat="46.99435" lon="-0.96061">
        <ele>80</ele>
        <time>2022-01-13T12:07:56Z</time>
      </trkpt>
      <trkpt lat="46.99437" lon="-0.96065">
        <ele>79</ele>
        <time>2022-01-13T12:08:01Z</time>
      </trkpt>
      <trkpt lat="46.99437" lon="-0.9607">
        <ele>80</ele>
        <time>2022-01-13T12:08:03Z</time>
      </trkpt>
      <trkpt lat="46.99437" lon="-0.96074">
        <ele>79</ele>
        <time>2022-01-13T12:08:06Z</time>
      </trkpt>
      <trkpt lat="46.99439" lon="-0.96078">
        <ele>79</ele>
        <time>2022-01-13T12:08:09Z</time>
      </trkpt>
      <trkpt lat="46.9944" lon="-0.96082">
        <ele>79</ele>
        <time>2022-01-13T12:08:13Z</time>
      </trkpt>
      <trkpt lat="46.99442" lon="-0.96086">
        <ele>78</ele>
        <time>2022-01-13T12:08:17Z</time>
      </trkpt>
      <trkpt lat="46.99444" lon="-0.96089">
        <ele>78</ele>
        <time>2022-01-13T12:08:20Z</time>
      </trkpt>
      <trkpt lat="46.99445" lon="-0.96094">
        <ele>77</ele>
        <time>2022-01-13T12:08:24Z</time>
      </trkpt>
      <trkpt lat="46.99446" lon="-0.96098">
        <ele>77</ele>
        <time>2022-01-13T12:08:27Z</time>
      </trkpt>
      <trkpt lat="46.99449" lon="-0.96101">
        <ele>77</ele>
        <time>2022-01-13T12:08:30Z</time>
      </trkpt>
      <trkpt lat="46.99451" lon="-0.96104">
        <ele>76</ele>
        <time>2022-01-13T12:08:33Z</time>
      </trkpt>
      <trkpt lat="46.99452" lon="-0.96109">
        <ele>76</ele>
        <time>2022-01-13T12:08:36Z</time>
      </trkpt>
      <trkpt lat="46.99453" lon="-0.96113">
        <ele>75</ele>
        <time>2022-01-13T12:08:40Z</time>
      </trkpt>
      <trkpt lat="46.99454" lon="-0.96118">
        <ele>75</ele>
        <time>2022-01-13T12:08:43Z</time>
      </trkpt>
      <trkpt lat="46.99454" lon="-0.96122">
        <ele>75</ele>
        <time>2022-01-13T12:08:46Z</time>
      </trkpt>
      <trkpt lat="46.99455" lon="-0.96127">
        <ele>75</ele>
        <time>2022-01-13T12:08:50Z</time>
      </trkpt>
      <trkpt lat="46.99457" lon="-0.96131">
        <ele>74</ele>
        <time>2022-01-13T12:08:53Z</time>
      </trkpt>
      <trkpt lat="46.99457" lon="-0.96135">
        <ele>73</ele>
        <time>2022-01-13T12:08:55Z</time>
      </trkpt>
      <trkpt lat="46.99458" lon="-0.9614">
        <ele>74</ele>
        <time>2022-01-13T12:08:58Z</time>
      </trkpt>
      <trkpt lat="46.99458" lon="-0.96145">
        <ele>74</ele>
        <time>2022-01-13T12:09:02Z</time>
      </trkpt>
      <trkpt lat="46.99458" lon="-0.9615">
        <ele>74</ele>
        <time>2022-01-13T12:09:05Z</time>
      </trkpt>
      <trkpt lat="46.9946" lon="-0.96154">
        <ele>74</ele>
        <time>2022-01-13T12:09:08Z</time>
      </trkpt>
      <trkpt lat="46.99461" lon="-0.96158">
        <ele>73</ele>
        <time>2022-01-13T12:09:11Z</time>
      </trkpt>
      <trkpt lat="46.99463" lon="-0.96163">
        <ele>73</ele>
        <time>2022-01-13T12:09:14Z</time>
      </trkpt>
      <trkpt lat="46.99464" lon="-0.96167">
        <ele>73</ele>
        <time>2022-01-13T12:09:17Z</time>
      </trkpt>
      <trkpt lat="46.99465" lon="-0.96171">
        <ele>73</ele>
        <time>2022-01-13T12:09:21Z</time>
      </trkpt>
      <trkpt lat="46.99466" lon="-0.96175">
        <ele>73</ele>
        <time>2022-01-13T12:09:24Z</time>
      </trkpt>
      <trkpt lat="46.99468" lon="-0.9618">
        <ele>74</ele>
        <time>2022-01-13T12:09:30Z</time>
      </trkpt>
      <trkpt lat="46.99469" lon="-0.96184">
        <ele>74</ele>
        <time>2022-01-13T12:09:33Z</time>
      </trkpt>
      <trkpt lat="46.99471" lon="-0.96189">
        <ele>73</ele>
        <time>2022-01-13T12:09:37Z</time>
      </trkpt>
      <trkpt lat="46.99472" lon="-0.96194">
        <ele>73</ele>
        <time>2022-01-13T12:09:40Z</time>
      </trkpt>
      <trkpt lat="46.99473" lon="-0.96199">
        <ele>73</ele>
        <time>2022-01-13T12:09:44Z</time>
      </trkpt>
      <trkpt lat="46.99475" lon="-0.96203">
        <ele>72</ele>
        <time>2022-01-13T12:09:48Z</time>
      </trkpt>
      <trkpt lat="46.99477" lon="-0.96207">
        <ele>72</ele>
        <time>2022-01-13T12:09:52Z</time>
      </trkpt>
      <trkpt lat="46.99479" lon="-0.9621">
        <ele>72</ele>
        <time>2022-01-13T12:09:56Z</time>
      </trkpt>
      <trkpt lat="46.99481" lon="-0.96213">
        <ele>73</ele>
        <time>2022-01-13T12:09:59Z</time>
      </trkpt>
      <trkpt lat="46.99483" lon="-0.96217">
        <ele>73</ele>
        <time>2022-01-13T12:10:04Z</time>
      </trkpt>
      <trkpt lat="46.99484" lon="-0.96221">
        <ele>72</ele>
        <time>2022-01-13T12:10:08Z</time>
      </trkpt>
      <trkpt lat="46.99485" lon="-0.96225">
        <ele>73</ele>
        <time>2022-01-13T12:10:11Z</time>
      </trkpt>
      <trkpt lat="46.99486" lon="-0.96229">
        <ele>73</ele>
        <time>2022-01-13T12:10:13Z</time>
      </trkpt>
      <trkpt lat="46.99488" lon="-0.96234">
        <ele>73</ele>
        <time>2022-01-13T12:10:16Z</time>
      </trkpt>
      <trkpt lat="46.9949" lon="-0.96238">
        <ele>72</ele>
        <time>2022-01-13T12:10:20Z</time>
      </trkpt>
      <trkpt lat="46.99492" lon="-0.96242">
        <ele>73</ele>
        <time>2022-01-13T12:10:23Z</time>
      </trkpt>
      <trkpt lat="46.99493" lon="-0.96247">
        <ele>73</ele>
        <time>2022-01-13T12:10:26Z</time>
      </trkpt>
      <trkpt lat="46.99494" lon="-0.96252">
        <ele>73</ele>
        <time>2022-01-13T12:10:28Z</time>
      </trkpt>
      <trkpt lat="46.99494" lon="-0.96257">
        <ele>73</ele>
        <time>2022-01-13T12:10:30Z</time>
      </trkpt>
      <trkpt lat="46.99494" lon="-0.96261">
        <ele>73</ele>
        <time>2022-01-13T12:10:33Z</time>
      </trkpt>
      <trkpt lat="46.99496" lon="-0.96265">
        <ele>73</ele>
        <time>2022-01-13T12:10:36Z</time>
      </trkpt>
      <trkpt lat="46.99497" lon="-0.96269">
        <ele>72</ele>
        <time>2022-01-13T12:10:39Z</time>
      </trkpt>
      <trkpt lat="46.99498" lon="-0.96272">
        <ele>74</ele>
        <time>2022-01-13T12:10:42Z</time>
      </trkpt>
      <trkpt lat="46.99499" lon="-0.96276">
        <ele>73</ele>
        <time>2022-01-13T12:10:46Z</time>
      </trkpt>
      <trkpt lat="46.99501" lon="-0.9628">
        <ele>73</ele>
        <time>2022-01-13T12:10:48Z</time>
      </trkpt>
      <trkpt lat="46.99502" lon="-0.96285">
        <ele>72</ele>
        <time>2022-01-13T12:10:50Z</time>
      </trkpt>
      <trkpt lat="46.99503" lon="-0.96289">
        <ele>73</ele>
        <time>2022-01-13T12:10:52Z</time>
      </trkpt>
      <trkpt lat="46.99504" lon="-0.96294">
        <ele>73</ele>
        <time>2022-01-13T12:10:54Z</time>
      </trkpt>
      <trkpt lat="46.99504" lon="-0.96298">
        <ele>73</ele>
        <time>2022-01-13T12:10:56Z</time>
      </trkpt>
      <trkpt lat="46.99505" lon="-0.96302">
        <ele>73</ele>
        <time>2022-01-13T12:10:58Z</time>
      </trkpt>
      <trkpt lat="46.99505" lon="-0.96308">
        <ele>73</ele>
        <time>2022-01-13T12:11:00Z</time>
      </trkpt>
      <trkpt lat="46.99505" lon="-0.96313">
        <ele>73</ele>
        <time>2022-01-13T12:11:02Z</time>
      </trkpt>
      <trkpt lat="46.99506" lon="-0.96318">
        <ele>73</ele>
        <time>2022-01-13T12:11:05Z</time>
      </trkpt>
      <trkpt lat="46.99507" lon="-0.96323">
        <ele>73</ele>
        <time>2022-01-13T12:11:09Z</time>
      </trkpt>
      <trkpt lat="46.99507" lon="-0.96328">
        <ele>73</ele>
        <time>2022-01-13T12:11:13Z</time>
      </trkpt>
      <trkpt lat="46.99508" lon="-0.96333">
        <ele>74</ele>
        <time>2022-01-13T12:11:16Z</time>
      </trkpt>
      <trkpt lat="46.99509" lon="-0.96337">
        <ele>74</ele>
        <time>2022-01-13T12:11:19Z</time>
      </trkpt>
      <trkpt lat="46.99512" lon="-0.9634">
        <ele>72</ele>
        <time>2022-01-13T12:11:22Z</time>
      </trkpt>
      <trkpt lat="46.99514" lon="-0.96344">
        <ele>73</ele>
        <time>2022-01-13T12:11:24Z</time>
      </trkpt>
      <trkpt lat="46.99516" lon="-0.96347">
        <ele>74</ele>
        <time>2022-01-13T12:11:27Z</time>
      </trkpt>
      <trkpt lat="46.99518" lon="-0.9635">
        <ele>74</ele>
        <time>2022-01-13T12:11:29Z</time>
      </trkpt>
      <trkpt lat="46.99519" lon="-0.96354">
        <ele>75</ele>
        <time>2022-01-13T12:11:32Z</time>
      </trkpt>
      <trkpt lat="46.99521" lon="-0.96358">
        <ele>74</ele>
        <time>2022-01-13T12:11:36Z</time>
      </trkpt>
      <trkpt lat="46.99522" lon="-0.96362">
        <ele>74</ele>
        <time>2022-01-13T12:11:39Z</time>
      </trkpt>
      <trkpt lat="46.99524" lon="-0.96367">
        <ele>74</ele>
        <time>2022-01-13T12:11:42Z</time>
      </trkpt>
      <trkpt lat="46.99526" lon="-0.96371">
        <ele>73</ele>
        <time>2022-01-13T12:11:45Z</time>
      </trkpt>
      <trkpt lat="46.99527" lon="-0.96377">
        <ele>73</ele>
        <time>2022-01-13T12:11:48Z</time>
      </trkpt>
      <trkpt lat="46.99528" lon="-0.9638">
        <ele>73</ele>
        <time>2022-01-13T12:11:50Z</time>
      </trkpt>
      <trkpt lat="46.99531" lon="-0.96384">
        <ele>74</ele>
        <time>2022-01-13T12:11:53Z</time>
      </trkpt>
      <trkpt lat="46.99533" lon="-0.96389">
        <ele>73</ele>
        <time>2022-01-13T12:11:56Z</time>
      </trkpt>
      <trkpt lat="46.99535" lon="-0.96393">
        <ele>73</ele>
        <time>2022-01-13T12:12:00Z</time>
      </trkpt>
      <trkpt lat="46.99537" lon="-0.96397">
        <ele>73</ele>
        <time>2022-01-13T12:12:03Z</time>
      </trkpt>
      <trkpt lat="46.9954" lon="-0.964">
        <ele>73</ele>
        <time>2022-01-13T12:12:08Z</time>
      </trkpt>
      <trkpt lat="46.99542" lon="-0.96403">
        <ele>73</ele>
        <time>2022-01-13T12:12:11Z</time>
      </trkpt>
      <trkpt lat="46.99545" lon="-0.96408">
        <ele>73</ele>
        <time>2022-01-13T12:12:14Z</time>
      </trkpt>
      <trkpt lat="46.99547" lon="-0.96411">
        <ele>74</ele>
        <time>2022-01-13T12:12:17Z</time>
      </trkpt>
      <trkpt lat="46.99549" lon="-0.96415">
        <ele>73</ele>
        <time>2022-01-13T12:12:20Z</time>
      </trkpt>
      <trkpt lat="46.99552" lon="-0.96419">
        <ele>73</ele>
        <time>2022-01-13T12:12:23Z</time>
      </trkpt>
      <trkpt lat="46.99554" lon="-0.96422">
        <ele>74</ele>
        <time>2022-01-13T12:12:26Z</time>
      </trkpt>
      <trkpt lat="46.99556" lon="-0.96426">
        <ele>73</ele>
        <time>2022-01-13T12:12:30Z</time>
      </trkpt>
      <trkpt lat="46.99559" lon="-0.96429">
        <ele>74</ele>
        <time>2022-01-13T12:12:33Z</time>
      </trkpt>
      <trkpt lat="46.99562" lon="-0.96433">
        <ele>74</ele>
        <time>2022-01-13T12:12:36Z</time>
      </trkpt>
      <trkpt lat="46.99564" lon="-0.96436">
        <ele>72</ele>
        <time>2022-01-13T12:12:39Z</time>
      </trkpt>
      <trkpt lat="46.99566" lon="-0.9644">
        <ele>73</ele>
        <time>2022-01-13T12:12:42Z</time>
      </trkpt>
      <trkpt lat="46.99568" lon="-0.96444">
        <ele>73</ele>
        <time>2022-01-13T12:12:45Z</time>
      </trkpt>
      <trkpt lat="46.99569" lon="-0.96448">
        <ele>73</ele>
        <time>2022-01-13T12:12:47Z</time>
      </trkpt>
      <trkpt lat="46.99571" lon="-0.96453">
        <ele>73</ele>
        <time>2022-01-13T12:12:50Z</time>
      </trkpt>
      <trkpt lat="46.99573" lon="-0.96457">
        <ele>73</ele>
        <time>2022-01-13T12:12:52Z</time>
      </trkpt>
      <trkpt lat="46.99574" lon="-0.96461">
        <ele>73</ele>
        <time>2022-01-13T12:12:55Z</time>
      </trkpt>
      <trkpt lat="46.99575" lon="-0.96465">
        <ele>73</ele>
        <time>2022-01-13T12:12:57Z</time>
      </trkpt>
      <trkpt lat="46.99577" lon="-0.96469">
        <ele>73</ele>
        <time>2022-01-13T12:13:00Z</time>
      </trkpt>
      <trkpt lat="46.99578" lon="-0.96474">
        <ele>72</ele>
        <time>2022-01-13T12:13:03Z</time>
      </trkpt>
      <trkpt lat="46.99579" lon="-0.96478">
        <ele>72</ele>
        <time>2022-01-13T12:13:05Z</time>
      </trkpt>
      <trkpt lat="46.99581" lon="-0.96483">
        <ele>72</ele>
        <time>2022-01-13T12:13:08Z</time>
      </trkpt>
      <trkpt lat="46.99583" lon="-0.96487">
        <ele>72</ele>
        <time>2022-01-13T12:13:11Z</time>
      </trkpt>
      <trkpt lat="46.99585" lon="-0.96491">
        <ele>72</ele>
        <time>2022-01-13T12:13:13Z</time>
      </trkpt>
      <trkpt lat="46.99588" lon="-0.96494">
        <ele>72</ele>
        <time>2022-01-13T12:13:16Z</time>
      </trkpt>
      <trkpt lat="46.9959" lon="-0.96497">
        <ele>72</ele>
        <time>2022-01-13T12:13:19Z</time>
      </trkpt>
      <trkpt lat="46.99592" lon="-0.965">
        <ele>71</ele>
        <time>2022-01-13T12:13:22Z</time>
      </trkpt>
      <trkpt lat="46.99594" lon="-0.96503">
        <ele>71</ele>
        <time>2022-01-13T12:13:25Z</time>
      </trkpt>
      <trkpt lat="46.99597" lon="-0.96506">
        <ele>71</ele>
        <time>2022-01-13T12:13:28Z</time>
      </trkpt>
      <trkpt lat="46.99599" lon="-0.9651">
        <ele>71</ele>
        <time>2022-01-13T12:13:30Z</time>
      </trkpt>
      <trkpt lat="46.996" lon="-0.96514">
        <ele>70</ele>
        <time>2022-01-13T12:13:35Z</time>
      </trkpt>
      <trkpt lat="46.99602" lon="-0.96518">
        <ele>70</ele>
        <time>2022-01-13T12:13:38Z</time>
      </trkpt>
      <trkpt lat="46.99605" lon="-0.96521">
        <ele>71</ele>
        <time>2022-01-13T12:13:41Z</time>
      </trkpt>
      <trkpt lat="46.99607" lon="-0.96525">
        <ele>71</ele>
        <time>2022-01-13T12:13:44Z</time>
      </trkpt>
      <trkpt lat="46.9961" lon="-0.96528">
        <ele>71</ele>
        <time>2022-01-13T12:13:47Z</time>
      </trkpt>
      <trkpt lat="46.99612" lon="-0.96531">
        <ele>71</ele>
        <time>2022-01-13T12:13:50Z</time>
      </trkpt>
      <trkpt lat="46.99615" lon="-0.96535">
        <ele>71</ele>
        <time>2022-01-13T12:13:53Z</time>
      </trkpt>
      <trkpt lat="46.99618" lon="-0.96538">
        <ele>71</ele>
        <time>2022-01-13T12:13:56Z</time>
      </trkpt>
      <trkpt lat="46.9962" lon="-0.96542">
        <ele>72</ele>
        <time>2022-01-13T12:13:59Z</time>
      </trkpt>
      <trkpt lat="46.99622" lon="-0.96547">
        <ele>71</ele>
        <time>2022-01-13T12:14:02Z</time>
      </trkpt>
      <trkpt lat="46.99624" lon="-0.96551">
        <ele>71</ele>
        <time>2022-01-13T12:14:05Z</time>
      </trkpt>
      <trkpt lat="46.99627" lon="-0.96555">
        <ele>71</ele>
        <time>2022-01-13T12:14:08Z</time>
      </trkpt>
      <trkpt lat="46.99629" lon="-0.96559">
        <ele>71</ele>
        <time>2022-01-13T12:14:11Z</time>
      </trkpt>
      <trkpt lat="46.99631" lon="-0.96563">
        <ele>72</ele>
        <time>2022-01-13T12:14:14Z</time>
      </trkpt>
      <trkpt lat="46.99634" lon="-0.96567">
        <ele>72</ele>
        <time>2022-01-13T12:14:17Z</time>
      </trkpt>
      <trkpt lat="46.99636" lon="-0.96571">
        <ele>71</ele>
        <time>2022-01-13T12:14:20Z</time>
      </trkpt>
      <trkpt lat="46.99637" lon="-0.96575">
        <ele>71</ele>
        <time>2022-01-13T12:14:22Z</time>
      </trkpt>
      <trkpt lat="46.99638" lon="-0.96579">
        <ele>71</ele>
        <time>2022-01-13T12:14:24Z</time>
      </trkpt>
      <trkpt lat="46.9964" lon="-0.96583">
        <ele>71</ele>
        <time>2022-01-13T12:14:26Z</time>
      </trkpt>
      <trkpt lat="46.99642" lon="-0.96587">
        <ele>72</ele>
        <time>2022-01-13T12:14:29Z</time>
      </trkpt>
      <trkpt lat="46.99644" lon="-0.96591">
        <ele>72</ele>
        <time>2022-01-13T12:14:32Z</time>
      </trkpt>
      <trkpt lat="46.99646" lon="-0.96595">
        <ele>72</ele>
        <time>2022-01-13T12:14:35Z</time>
      </trkpt>
      <trkpt lat="46.99648" lon="-0.96598">
        <ele>71</ele>
        <time>2022-01-13T12:14:38Z</time>
      </trkpt>
      <trkpt lat="46.9965" lon="-0.96603">
        <ele>71</ele>
        <time>2022-01-13T12:14:41Z</time>
      </trkpt>
      <trkpt lat="46.99651" lon="-0.96607">
        <ele>72</ele>
        <time>2022-01-13T12:14:44Z</time>
      </trkpt>
      <trkpt lat="46.99653" lon="-0.96612">
        <ele>72</ele>
        <time>2022-01-13T12:14:47Z</time>
      </trkpt>
      <trkpt lat="46.99654" lon="-0.96617">
        <ele>72</ele>
        <time>2022-01-13T12:14:50Z</time>
      </trkpt>
      <trkpt lat="46.99655" lon="-0.96622">
        <ele>72</ele>
        <time>2022-01-13T12:14:53Z</time>
      </trkpt>
      <trkpt lat="46.99655" lon="-0.96626">
        <ele>72</ele>
        <time>2022-01-13T12:14:55Z</time>
      </trkpt>
      <trkpt lat="46.99656" lon="-0.96631">
        <ele>73</ele>
        <time>2022-01-13T12:14:58Z</time>
      </trkpt>
      <trkpt lat="46.99657" lon="-0.96636">
        <ele>72</ele>
        <time>2022-01-13T12:15:00Z</time>
      </trkpt>
      <trkpt lat="46.99658" lon="-0.96641">
        <ele>72</ele>
        <time>2022-01-13T12:15:03Z</time>
      </trkpt>
      <trkpt lat="46.9966" lon="-0.96644">
        <ele>72</ele>
        <time>2022-01-13T12:15:07Z</time>
      </trkpt>
      <trkpt lat="46.99663" lon="-0.96647">
        <ele>72</ele>
        <time>2022-01-13T12:15:09Z</time>
      </trkpt>
      <trkpt lat="46.99665" lon="-0.96651">
        <ele>72</ele>
        <time>2022-01-13T12:15:13Z</time>
      </trkpt>
      <trkpt lat="46.99666" lon="-0.96654">
        <ele>72</ele>
        <time>2022-01-13T12:15:16Z</time>
      </trkpt>
      <trkpt lat="46.99665" lon="-0.96657">
        <ele>72</ele>
        <time>2022-01-13T12:15:32Z</time>
      </trkpt>
      <trkpt lat="46.99662" lon="-0.96659">
        <ele>72</ele>
        <time>2022-01-13T12:15:38Z</time>
      </trkpt>
      <trkpt lat="46.99663" lon="-0.96662">
        <ele>72</ele>
        <time>2022-01-13T12:15:45Z</time>
      </trkpt>
      <trkpt lat="46.99664" lon="-0.96665">
        <ele>72</ele>
        <time>2022-01-13T12:15:48Z</time>
      </trkpt>
      <trkpt lat="46.99665" lon="-0.96669">
        <ele>71</ele>
        <time>2022-01-13T12:15:51Z</time>
      </trkpt>
      <trkpt lat="46.99666" lon="-0.96673">
        <ele>72</ele>
        <time>2022-01-13T12:15:55Z</time>
      </trkpt>
      <trkpt lat="46.99667" lon="-0.96678">
        <ele>71</ele>
        <time>2022-01-13T12:15:59Z</time>
      </trkpt>
      <trkpt lat="46.99668" lon="-0.96682">
        <ele>71</ele>
        <time>2022-01-13T12:16:03Z</time>
      </trkpt>
      <trkpt lat="46.9967" lon="-0.96685">
        <ele>71</ele>
        <time>2022-01-13T12:16:09Z</time>
      </trkpt>
      <trkpt lat="46.99672" lon="-0.96688">
        <ele>71</ele>
        <time>2022-01-13T12:16:12Z</time>
      </trkpt>
      <trkpt lat="46.99674" lon="-0.96689">
        <ele>72</ele>
        <time>2022-01-13T12:16:19Z</time>
      </trkpt>
      <trkpt lat="46.99676" lon="-0.96692">
        <ele>72</ele>
        <time>2022-01-13T12:16:25Z</time>
      </trkpt>
      <trkpt lat="46.99679" lon="-0.96693">
        <ele>73</ele>
        <time>2022-01-13T12:16:28Z</time>
      </trkpt>
      <trkpt lat="46.99681" lon="-0.96696">
        <ele>73</ele>
        <time>2022-01-13T12:16:33Z</time>
      </trkpt>
      <trkpt lat="46.99683" lon="-0.96699">
        <ele>74</ele>
        <time>2022-01-13T12:16:37Z</time>
      </trkpt>
      <trkpt lat="46.99683" lon="-0.96703">
        <ele>74</ele>
        <time>2022-01-13T12:16:40Z</time>
      </trkpt>
      <trkpt lat="46.99685" lon="-0.96708">
        <ele>74</ele>
        <time>2022-01-13T12:16:43Z</time>
      </trkpt>
      <trkpt lat="46.99687" lon="-0.96712">
        <ele>74</ele>
        <time>2022-01-13T12:16:46Z</time>
      </trkpt>
      <trkpt lat="46.9969" lon="-0.96715">
        <ele>74</ele>
        <time>2022-01-13T12:16:51Z</time>
      </trkpt>
      <trkpt lat="46.99692" lon="-0.96718">
        <ele>74</ele>
        <time>2022-01-13T12:16:55Z</time>
      </trkpt>
      <trkpt lat="46.99695" lon="-0.9672">
        <ele>75</ele>
        <time>2022-01-13T12:17:02Z</time>
      </trkpt>
      <trkpt lat="46.99698" lon="-0.96722">
        <ele>75</ele>
        <time>2022-01-13T12:17:06Z</time>
      </trkpt>
      <trkpt lat="46.99701" lon="-0.96723">
        <ele>76</ele>
        <time>2022-01-13T12:17:12Z</time>
      </trkpt>
      <trkpt lat="46.99704" lon="-0.96726">
        <ele>77</ele>
        <time>2022-01-13T12:17:15Z</time>
      </trkpt>
      <trkpt lat="46.99707" lon="-0.96729">
        <ele>76</ele>
        <time>2022-01-13T12:17:18Z</time>
      </trkpt>
      <trkpt lat="46.99709" lon="-0.96732">
        <ele>76</ele>
        <time>2022-01-13T12:17:21Z</time>
      </trkpt>
      <trkpt lat="46.99712" lon="-0.96735">
        <ele>76</ele>
        <time>2022-01-13T12:17:24Z</time>
      </trkpt>
      <trkpt lat="46.99716" lon="-0.96737">
        <ele>77</ele>
        <time>2022-01-13T12:17:28Z</time>
      </trkpt>
      <trkpt lat="46.99719" lon="-0.9674">
        <ele>77</ele>
        <time>2022-01-13T12:17:30Z</time>
      </trkpt>
      <trkpt lat="46.99721" lon="-0.96742">
        <ele>77</ele>
        <time>2022-01-13T12:17:35Z</time>
      </trkpt>
      <trkpt lat="46.99725" lon="-0.96745">
        <ele>77</ele>
        <time>2022-01-13T12:17:37Z</time>
      </trkpt>
      <trkpt lat="46.99727" lon="-0.96748">
        <ele>77</ele>
        <time>2022-01-13T12:17:39Z</time>
      </trkpt>
      <trkpt lat="46.9973" lon="-0.96751">
        <ele>78</ele>
        <time>2022-01-13T12:17:43Z</time>
      </trkpt>
      <trkpt lat="46.99733" lon="-0.96754">
        <ele>79</ele>
        <time>2022-01-13T12:17:47Z</time>
      </trkpt>
      <trkpt lat="46.99735" lon="-0.96757">
        <ele>78</ele>
        <time>2022-01-13T12:17:51Z</time>
      </trkpt>
      <trkpt lat="46.99738" lon="-0.96759">
        <ele>79</ele>
        <time>2022-01-13T12:17:56Z</time>
      </trkpt>
      <trkpt lat="46.9974" lon="-0.96758">
        <ele>79</ele>
        <time>2022-01-13T12:18:01Z</time>
      </trkpt>
      <trkpt lat="46.99742" lon="-0.9676">
        <ele>81</ele>
        <time>2022-01-13T12:18:15Z</time>
      </trkpt>
      <trkpt lat="46.99745" lon="-0.96762">
        <ele>80</ele>
        <time>2022-01-13T12:18:18Z</time>
      </trkpt>
      <trkpt lat="46.99748" lon="-0.96765">
        <ele>80</ele>
        <time>2022-01-13T12:18:20Z</time>
      </trkpt>
      <trkpt lat="46.9975" lon="-0.96768">
        <ele>80</ele>
        <time>2022-01-13T12:18:23Z</time>
      </trkpt>
      <trkpt lat="46.99753" lon="-0.96771">
        <ele>81</ele>
        <time>2022-01-13T12:18:26Z</time>
      </trkpt>
      <trkpt lat="46.99756" lon="-0.96774">
        <ele>80</ele>
        <time>2022-01-13T12:18:29Z</time>
      </trkpt>
      <trkpt lat="46.99758" lon="-0.96777">
        <ele>80</ele>
        <time>2022-01-13T12:18:32Z</time>
      </trkpt>
      <trkpt lat="46.99761" lon="-0.96779">
        <ele>81</ele>
        <time>2022-01-13T12:18:37Z</time>
      </trkpt>
      <trkpt lat="46.99764" lon="-0.96778">
        <ele>81</ele>
        <time>2022-01-13T12:18:44Z</time>
      </trkpt>
      <trkpt lat="46.99767" lon="-0.96778">
        <ele>81</ele>
        <time>2022-01-13T12:18:48Z</time>
      </trkpt>
      <trkpt lat="46.9977" lon="-0.96777">
        <ele>81</ele>
        <time>2022-01-13T12:18:51Z</time>
      </trkpt>
      <trkpt lat="46.99773" lon="-0.96779">
        <ele>81</ele>
        <time>2022-01-13T12:18:55Z</time>
      </trkpt>
      <trkpt lat="46.99775" lon="-0.96782">
        <ele>81</ele>
        <time>2022-01-13T12:18:58Z</time>
      </trkpt>
      <trkpt lat="46.99777" lon="-0.96786">
        <ele>81</ele>
        <time>2022-01-13T12:19:01Z</time>
      </trkpt>
      <trkpt lat="46.9978" lon="-0.96788">
        <ele>82</ele>
        <time>2022-01-13T12:19:05Z</time>
      </trkpt>
      <trkpt lat="46.99782" lon="-0.9679">
        <ele>82</ele>
        <time>2022-01-13T12:19:09Z</time>
      </trkpt>
      <trkpt lat="46.99784" lon="-0.96793">
        <ele>82</ele>
        <time>2022-01-13T12:19:12Z</time>
      </trkpt>
      <trkpt lat="46.99786" lon="-0.96796">
        <ele>82</ele>
        <time>2022-01-13T12:19:15Z</time>
      </trkpt>
      <trkpt lat="46.99788" lon="-0.96799">
        <ele>82</ele>
        <time>2022-01-13T12:19:18Z</time>
      </trkpt>
      <trkpt lat="46.99791" lon="-0.96801">
        <ele>82</ele>
        <time>2022-01-13T12:19:21Z</time>
      </trkpt>
      <trkpt lat="46.99794" lon="-0.96803">
        <ele>83</ele>
        <time>2022-01-13T12:19:25Z</time>
      </trkpt>
      <trkpt lat="46.99797" lon="-0.96806">
        <ele>83</ele>
        <time>2022-01-13T12:19:28Z</time>
      </trkpt>
      <trkpt lat="46.99799" lon="-0.96809">
        <ele>84</ele>
        <time>2022-01-13T12:19:31Z</time>
      </trkpt>
      <trkpt lat="46.99801" lon="-0.96812">
        <ele>83</ele>
        <time>2022-01-13T12:19:35Z</time>
      </trkpt>
      <trkpt lat="46.99804" lon="-0.96815">
        <ele>84</ele>
        <time>2022-01-13T12:19:40Z</time>
      </trkpt>
      <trkpt lat="46.99805" lon="-0.96819">
        <ele>84</ele>
        <time>2022-01-13T12:19:48Z</time>
      </trkpt>
      <trkpt lat="46.99806" lon="-0.96824">
        <ele>84</ele>
        <time>2022-01-13T12:19:51Z</time>
      </trkpt>
      <trkpt lat="46.99807" lon="-0.96828">
        <ele>84</ele>
        <time>2022-01-13T12:19:54Z</time>
      </trkpt>
      <trkpt lat="46.99808" lon="-0.96832">
        <ele>85</ele>
        <time>2022-01-13T12:19:58Z</time>
      </trkpt>
      <trkpt lat="46.9981" lon="-0.96836">
        <ele>84</ele>
        <time>2022-01-13T12:20:05Z</time>
      </trkpt>
      <trkpt lat="46.99813" lon="-0.96839">
        <ele>84</ele>
        <time>2022-01-13T12:20:08Z</time>
      </trkpt>
      <trkpt lat="46.99815" lon="-0.96841">
        <ele>86</ele>
        <time>2022-01-13T12:20:11Z</time>
      </trkpt>
      <trkpt lat="46.99818" lon="-0.96844">
        <ele>85</ele>
        <time>2022-01-13T12:20:13Z</time>
      </trkpt>
      <trkpt lat="46.99821" lon="-0.96847">
        <ele>85</ele>
        <time>2022-01-13T12:20:16Z</time>
      </trkpt>
      <trkpt lat="46.99823" lon="-0.96849">
        <ele>85</ele>
        <time>2022-01-13T12:20:18Z</time>
      </trkpt>
      <trkpt lat="46.99825" lon="-0.96852">
        <ele>85</ele>
        <time>2022-01-13T12:20:22Z</time>
      </trkpt>
      <trkpt lat="46.99828" lon="-0.96855">
        <ele>85</ele>
        <time>2022-01-13T12:20:29Z</time>
      </trkpt>
      <trkpt lat="46.99831" lon="-0.96857">
        <ele>85</ele>
        <time>2022-01-13T12:20:32Z</time>
      </trkpt>
      <trkpt lat="46.99834" lon="-0.96859">
        <ele>86</ele>
        <time>2022-01-13T12:20:35Z</time>
      </trkpt>
      <trkpt lat="46.99837" lon="-0.96861">
        <ele>86</ele>
        <time>2022-01-13T12:20:38Z</time>
      </trkpt>
      <trkpt lat="46.99839" lon="-0.96864">
        <ele>86</ele>
        <time>2022-01-13T12:20:41Z</time>
      </trkpt>
      <trkpt lat="46.99842" lon="-0.96865">
        <ele>86</ele>
        <time>2022-01-13T12:20:43Z</time>
      </trkpt>
      <trkpt lat="46.99845" lon="-0.96865">
        <ele>86</ele>
        <time>2022-01-13T12:20:46Z</time>
      </trkpt>
      <trkpt lat="46.99847" lon="-0.96867">
        <ele>87</ele>
        <time>2022-01-13T12:20:51Z</time>
      </trkpt>
      <trkpt lat="46.9985" lon="-0.96868">
        <ele>87</ele>
        <time>2022-01-13T12:20:56Z</time>
      </trkpt>
      <trkpt lat="46.99853" lon="-0.9687">
        <ele>87</ele>
        <time>2022-01-13T12:20:59Z</time>
      </trkpt>
      <trkpt lat="46.99856" lon="-0.96873">
        <ele>87</ele>
        <time>2022-01-13T12:21:03Z</time>
      </trkpt>
      <trkpt lat="46.99858" lon="-0.96875">
        <ele>88</ele>
        <time>2022-01-13T12:21:06Z</time>
      </trkpt>
      <trkpt lat="46.9986" lon="-0.96879">
        <ele>88</ele>
        <time>2022-01-13T12:21:11Z</time>
      </trkpt>
      <trkpt lat="46.99863" lon="-0.96881">
        <ele>87</ele>
        <time>2022-01-13T12:21:15Z</time>
      </trkpt>
      <trkpt lat="46.99866" lon="-0.96883">
        <ele>87</ele>
        <time>2022-01-13T12:21:19Z</time>
      </trkpt>
      <trkpt lat="46.99869" lon="-0.96884">
        <ele>88</ele>
        <time>2022-01-13T12:21:22Z</time>
      </trkpt>
      <trkpt lat="46.99872" lon="-0.96886">
        <ele>88</ele>
        <time>2022-01-13T12:21:26Z</time>
      </trkpt>
      <trkpt lat="46.99875" lon="-0.96887">
        <ele>88</ele>
        <time>2022-01-13T12:21:30Z</time>
      </trkpt>
      <trkpt lat="46.99877" lon="-0.96889">
        <ele>88</ele>
        <time>2022-01-13T12:21:37Z</time>
      </trkpt>
      <trkpt lat="46.9988" lon="-0.9689">
        <ele>88</ele>
        <time>2022-01-13T12:21:43Z</time>
      </trkpt>
      <trkpt lat="46.99882" lon="-0.96892">
        <ele>88</ele>
        <time>2022-01-13T12:21:48Z</time>
      </trkpt>
      <trkpt lat="46.99885" lon="-0.96895">
        <ele>88</ele>
        <time>2022-01-13T12:21:51Z</time>
      </trkpt>
      <trkpt lat="46.99887" lon="-0.96899">
        <ele>89</ele>
        <time>2022-01-13T12:21:55Z</time>
      </trkpt>
      <trkpt lat="46.99889" lon="-0.96903">
        <ele>89</ele>
        <time>2022-01-13T12:21:57Z</time>
      </trkpt>
      <trkpt lat="46.99891" lon="-0.96907">
        <ele>89</ele>
        <time>2022-01-13T12:22:00Z</time>
      </trkpt>
      <trkpt lat="46.99893" lon="-0.96909">
        <ele>89</ele>
        <time>2022-01-13T12:22:03Z</time>
      </trkpt>
      <trkpt lat="46.99896" lon="-0.96911">
        <ele>89</ele>
        <time>2022-01-13T12:22:06Z</time>
      </trkpt>
      <trkpt lat="46.99898" lon="-0.96913">
        <ele>89</ele>
        <time>2022-01-13T12:22:10Z</time>
      </trkpt>
      <trkpt lat="46.99901" lon="-0.96914">
        <ele>89</ele>
        <time>2022-01-13T12:22:15Z</time>
      </trkpt>
      <trkpt lat="46.99905" lon="-0.96917">
        <ele>90</ele>
        <time>2022-01-13T12:22:18Z</time>
      </trkpt>
      <trkpt lat="46.99907" lon="-0.9692">
        <ele>90</ele>
        <time>2022-01-13T12:22:21Z</time>
      </trkpt>
      <trkpt lat="46.99909" lon="-0.96923">
        <ele>91</ele>
        <time>2022-01-13T12:22:25Z</time>
      </trkpt>
      <trkpt lat="46.99912" lon="-0.96927">
        <ele>91</ele>
        <time>2022-01-13T12:22:29Z</time>
      </trkpt>
      <trkpt lat="46.99913" lon="-0.9693">
        <ele>92</ele>
        <time>2022-01-13T12:22:33Z</time>
      </trkpt>
      <trkpt lat="46.99915" lon="-0.96934">
        <ele>92</ele>
        <time>2022-01-13T12:22:40Z</time>
      </trkpt>
      <trkpt lat="46.99916" lon="-0.96938">
        <ele>93</ele>
        <time>2022-01-13T12:22:55Z</time>
      </trkpt>
      <trkpt lat="46.99917" lon="-0.96942">
        <ele>95</ele>
        <time>2022-01-13T12:23:03Z</time>
      </trkpt>
      <trkpt lat="46.99919" lon="-0.96944">
        <ele>96</ele>
        <time>2022-01-13T12:23:05Z</time>
      </trkpt>
      <trkpt lat="46.99922" lon="-0.96946">
        <ele>96</ele>
        <time>2022-01-13T12:23:08Z</time>
      </trkpt>
      <trkpt lat="46.99925" lon="-0.96945">
        <ele>97</ele>
        <time>2022-01-13T12:23:48Z</time>
      </trkpt>
      <trkpt lat="46.99928" lon="-0.96943">
        <ele>97</ele>
        <time>2022-01-13T12:23:54Z</time>
      </trkpt>
      <trkpt lat="46.99931" lon="-0.96942">
        <ele>97</ele>
        <time>2022-01-13T12:23:57Z</time>
      </trkpt>
      <trkpt lat="46.99933" lon="-0.96942">
        <ele>98</ele>
        <time>2022-01-13T12:24:00Z</time>
      </trkpt>
      <trkpt lat="46.99937" lon="-0.96942">
        <ele>97</ele>
        <time>2022-01-13T12:24:04Z</time>
      </trkpt>
      <trkpt lat="46.99939" lon="-0.96945">
        <ele>97</ele>
        <time>2022-01-13T12:24:09Z</time>
      </trkpt>
      <trkpt lat="46.99939" lon="-0.96948">
        <ele>97</ele>
        <time>2022-01-13T12:24:13Z</time>
      </trkpt>
      <trkpt lat="46.9994" lon="-0.96952">
        <ele>98</ele>
        <time>2022-01-13T12:24:18Z</time>
      </trkpt>
      <trkpt lat="46.99941" lon="-0.96956">
        <ele>98</ele>
        <time>2022-01-13T12:24:22Z</time>
      </trkpt>
      <trkpt lat="46.99944" lon="-0.96959">
        <ele>98</ele>
        <time>2022-01-13T12:24:26Z</time>
      </trkpt>
      <trkpt lat="46.99946" lon="-0.96961">
        <ele>99</ele>
        <time>2022-01-13T12:24:29Z</time>
      </trkpt>
      <trkpt lat="46.99948" lon="-0.96964">
        <ele>99</ele>
        <time>2022-01-13T12:24:33Z</time>
      </trkpt>
      <trkpt lat="46.9995" lon="-0.96967">
        <ele>99</ele>
        <time>2022-01-13T12:24:37Z</time>
      </trkpt>
      <trkpt lat="46.99951" lon="-0.96971">
        <ele>100</ele>
        <time>2022-01-13T12:24:42Z</time>
      </trkpt>
      <trkpt lat="46.99953" lon="-0.96975">
        <ele>100</ele>
        <time>2022-01-13T12:24:47Z</time>
      </trkpt>
      <trkpt lat="46.99955" lon="-0.96979">
        <ele>100</ele>
        <time>2022-01-13T12:24:50Z</time>
      </trkpt>
      <trkpt lat="46.99956" lon="-0.96983">
        <ele>100</ele>
        <time>2022-01-13T12:24:54Z</time>
      </trkpt>
      <trkpt lat="46.99957" lon="-0.96988">
        <ele>101</ele>
        <time>2022-01-13T12:24:58Z</time>
      </trkpt>
      <trkpt lat="46.99956" lon="-0.96992">
        <ele>101</ele>
        <time>2022-01-13T12:25:02Z</time>
      </trkpt>
      <trkpt lat="46.99956" lon="-0.96997">
        <ele>102</ele>
        <time>2022-01-13T12:25:06Z</time>
      </trkpt>
      <trkpt lat="46.99957" lon="-0.97001">
        <ele>101</ele>
        <time>2022-01-13T12:25:10Z</time>
      </trkpt>
      <trkpt lat="46.99958" lon="-0.97005">
        <ele>101</ele>
        <time>2022-01-13T12:25:15Z</time>
      </trkpt>
      <trkpt lat="46.99959" lon="-0.97009">
        <ele>102</ele>
        <time>2022-01-13T12:25:19Z</time>
      </trkpt>
      <trkpt lat="46.9996" lon="-0.97013">
        <ele>102</ele>
        <time>2022-01-13T12:25:22Z</time>
      </trkpt>
      <trkpt lat="46.99961" lon="-0.97017">
        <ele>102</ele>
        <time>2022-01-13T12:25:28Z</time>
      </trkpt>
      <trkpt lat="46.99963" lon="-0.9702">
        <ele>103</ele>
        <time>2022-01-13T12:25:33Z</time>
      </trkpt>
      <trkpt lat="46.99964" lon="-0.97025">
        <ele>104</ele>
        <time>2022-01-13T12:25:39Z</time>
      </trkpt>
      <trkpt lat="46.99964" lon="-0.97029">
        <ele>104</ele>
        <time>2022-01-13T12:25:42Z</time>
      </trkpt>
      <trkpt lat="46.99964" lon="-0.97033">
        <ele>104</ele>
        <time>2022-01-13T12:25:46Z</time>
      </trkpt>
      <trkpt lat="46.99965" lon="-0.97038">
        <ele>105</ele>
        <time>2022-01-13T12:25:49Z</time>
      </trkpt>
      <trkpt lat="46.99966" lon="-0.97042">
        <ele>105</ele>
        <time>2022-01-13T12:25:53Z</time>
      </trkpt>
      <trkpt lat="46.99967" lon="-0.97046">
        <ele>106</ele>
        <time>2022-01-13T12:25:56Z</time>
      </trkpt>
      <trkpt lat="46.99968" lon="-0.97051">
        <ele>106</ele>
        <time>2022-01-13T12:26:00Z</time>
      </trkpt>
      <trkpt lat="46.99969" lon="-0.97056">
        <ele>106</ele>
        <time>2022-01-13T12:26:03Z</time>
      </trkpt>
      <trkpt lat="46.99971" lon="-0.9706">
        <ele>107</ele>
        <time>2022-01-13T12:26:07Z</time>
      </trkpt>
      <trkpt lat="46.99972" lon="-0.97064">
        <ele>107</ele>
        <time>2022-01-13T12:26:12Z</time>
      </trkpt>
      <trkpt lat="46.99973" lon="-0.97068">
        <ele>107</ele>
        <time>2022-01-13T12:26:16Z</time>
      </trkpt>
      <trkpt lat="46.99974" lon="-0.97073">
        <ele>107</ele>
        <time>2022-01-13T12:26:20Z</time>
      </trkpt>
      <trkpt lat="46.99974" lon="-0.97077">
        <ele>107</ele>
        <time>2022-01-13T12:26:23Z</time>
      </trkpt>
      <trkpt lat="46.99975" lon="-0.97081">
        <ele>108</ele>
        <time>2022-01-13T12:26:27Z</time>
      </trkpt>
      <trkpt lat="46.99976" lon="-0.97085">
        <ele>108</ele>
        <time>2022-01-13T12:26:31Z</time>
      </trkpt>
      <trkpt lat="46.99978" lon="-0.97089">
        <ele>108</ele>
        <time>2022-01-13T12:26:35Z</time>
      </trkpt>
      <trkpt lat="46.99979" lon="-0.97093">
        <ele>108</ele>
        <time>2022-01-13T12:26:40Z</time>
      </trkpt>
      <trkpt lat="46.9998" lon="-0.97097">
        <ele>109</ele>
        <time>2022-01-13T12:26:45Z</time>
      </trkpt>
      <trkpt lat="46.99982" lon="-0.971">
        <ele>109</ele>
        <time>2022-01-13T12:26:49Z</time>
      </trkpt>
      <trkpt lat="46.99984" lon="-0.97104">
        <ele>109</ele>
        <time>2022-01-13T12:26:56Z</time>
      </trkpt>
      <trkpt lat="46.99986" lon="-0.97108">
        <ele>110</ele>
        <time>2022-01-13T12:26:59Z</time>
      </trkpt>
      <trkpt lat="46.99987" lon="-0.97113">
        <ele>110</ele>
        <time>2022-01-13T12:27:03Z</time>
      </trkpt>
      <trkpt lat="46.99989" lon="-0.97116">
        <ele>111</ele>
        <time>2022-01-13T12:27:07Z</time>
      </trkpt>
      <trkpt lat="46.99991" lon="-0.9712">
        <ele>111</ele>
        <time>2022-01-13T12:27:11Z</time>
      </trkpt>
      <trkpt lat="46.99993" lon="-0.97122">
        <ele>112</ele>
        <time>2022-01-13T12:27:15Z</time>
      </trkpt>
      <trkpt lat="46.99996" lon="-0.97125">
        <ele>112</ele>
        <time>2022-01-13T12:27:19Z</time>
      </trkpt>
      <trkpt lat="46.99997" lon="-0.97129">
        <ele>112</ele>
        <time>2022-01-13T12:27:23Z</time>
      </trkpt>
      <trkpt lat="46.99999" lon="-0.97132">
        <ele>112</ele>
        <time>2022-01-13T12:27:27Z</time>
      </trkpt>
      <trkpt lat="47.00001" lon="-0.97135">
        <ele>112</ele>
        <time>2022-01-13T12:27:31Z</time>
      </trkpt>
      <trkpt lat="47.00004" lon="-0.97138">
        <ele>113</ele>
        <time>2022-01-13T12:27:35Z</time>
      </trkpt>
      <trkpt lat="47.00006" lon="-0.9714">
        <ele>112</ele>
        <time>2022-01-13T12:27:39Z</time>
      </trkpt>
      <trkpt lat="47.00009" lon="-0.97143">
        <ele>113</ele>
        <time>2022-01-13T12:27:43Z</time>
      </trkpt>
      <trkpt lat="47.00011" lon="-0.97146">
        <ele>113</ele>
        <time>2022-01-13T12:27:47Z</time>
      </trkpt>
      <trkpt lat="47.00013" lon="-0.9715">
        <ele>113</ele>
        <time>2022-01-13T12:27:51Z</time>
      </trkpt>
      <trkpt lat="47.00015" lon="-0.97153">
        <ele>113</ele>
        <time>2022-01-13T12:27:54Z</time>
      </trkpt>
      <trkpt lat="47.00018" lon="-0.97155">
        <ele>114</ele>
        <time>2022-01-13T12:27:58Z</time>
      </trkpt>
      <trkpt lat="47.0002" lon="-0.97158">
        <ele>114</ele>
        <time>2022-01-13T12:28:02Z</time>
      </trkpt>
      <trkpt lat="47.00023" lon="-0.97159">
        <ele>115</ele>
        <time>2022-01-13T12:28:06Z</time>
      </trkpt>
      <trkpt lat="47.00026" lon="-0.9716">
        <ele>115</ele>
        <time>2022-01-13T12:28:10Z</time>
      </trkpt>
      <trkpt lat="47.00029" lon="-0.97161">
        <ele>115</ele>
        <time>2022-01-13T12:28:16Z</time>
      </trkpt>
      <trkpt lat="47.00031" lon="-0.97163">
        <ele>114</ele>
        <time>2022-01-13T12:28:26Z</time>
      </trkpt>
      <trkpt lat="47.00034" lon="-0.97163">
        <ele>114</ele>
        <time>2022-01-13T12:28:29Z</time>
      </trkpt>
      <trkpt lat="47.00038" lon="-0.97162">
        <ele>114</ele>
        <time>2022-01-13T12:28:32Z</time>
      </trkpt>
      <trkpt lat="47.00041" lon="-0.97161">
        <ele>114</ele>
        <time>2022-01-13T12:28:34Z</time>
      </trkpt>
      <trkpt lat="47.00044" lon="-0.9716">
        <ele>113</ele>
        <time>2022-01-13T12:28:38Z</time>
      </trkpt>
      <trkpt lat="47.00046" lon="-0.97159">
        <ele>113</ele>
        <time>2022-01-13T12:28:42Z</time>
      </trkpt>
      <trkpt lat="47.0005" lon="-0.97158">
        <ele>113</ele>
        <time>2022-01-13T12:28:46Z</time>
      </trkpt>
      <trkpt lat="47.00053" lon="-0.97157">
        <ele>113</ele>
        <time>2022-01-13T12:28:49Z</time>
      </trkpt>
      <trkpt lat="47.00056" lon="-0.97157">
        <ele>113</ele>
        <time>2022-01-13T12:28:53Z</time>
      </trkpt>
      <trkpt lat="47.00059" lon="-0.97156">
        <ele>113</ele>
        <time>2022-01-13T12:28:58Z</time>
      </trkpt>
      <trkpt lat="47.00062" lon="-0.97155">
        <ele>112</ele>
        <time>2022-01-13T12:29:02Z</time>
      </trkpt>
      <trkpt lat="47.00065" lon="-0.97154">
        <ele>112</ele>
        <time>2022-01-13T12:29:05Z</time>
      </trkpt>
      <trkpt lat="47.00068" lon="-0.97152">
        <ele>112</ele>
        <time>2022-01-13T12:29:11Z</time>
      </trkpt>
      <trkpt lat="47.0007" lon="-0.97152">
        <ele>112</ele>
        <time>2022-01-13T12:29:14Z</time>
      </trkpt>
      <trkpt lat="47.00073" lon="-0.97151">
        <ele>112</ele>
        <time>2022-01-13T12:29:17Z</time>
      </trkpt>
      <trkpt lat="47.00076" lon="-0.9715">
        <ele>112</ele>
        <time>2022-01-13T12:29:20Z</time>
      </trkpt>
      <trkpt lat="47.0008" lon="-0.97148">
        <ele>112</ele>
        <time>2022-01-13T12:29:24Z</time>
      </trkpt>
      <trkpt lat="47.00082" lon="-0.97146">
        <ele>112</ele>
        <time>2022-01-13T12:29:30Z</time>
      </trkpt>
      <trkpt lat="47.00085" lon="-0.97144">
        <ele>112</ele>
        <time>2022-01-13T12:29:35Z</time>
      </trkpt>
      <trkpt lat="47.00088" lon="-0.97143">
        <ele>112</ele>
        <time>2022-01-13T12:29:37Z</time>
      </trkpt>
      <trkpt lat="47.00091" lon="-0.97142">
        <ele>112</ele>
        <time>2022-01-13T12:29:40Z</time>
      </trkpt>
      <trkpt lat="47.00094" lon="-0.9714">
        <ele>112</ele>
        <time>2022-01-13T12:29:45Z</time>
      </trkpt>
      <trkpt lat="47.00097" lon="-0.97138">
        <ele>112</ele>
        <time>2022-01-13T12:29:57Z</time>
      </trkpt>
      <trkpt lat="47.001" lon="-0.97136">
        <ele>112</ele>
        <time>2022-01-13T12:30:01Z</time>
      </trkpt>
      <trkpt lat="47.00103" lon="-0.97134">
        <ele>111</ele>
        <time>2022-01-13T12:30:04Z</time>
      </trkpt>
      <trkpt lat="47.00107" lon="-0.97134">
        <ele>112</ele>
        <time>2022-01-13T12:30:07Z</time>
      </trkpt>
      <trkpt lat="47.0011" lon="-0.97135">
        <ele>112</ele>
        <time>2022-01-13T12:30:10Z</time>
      </trkpt>
      <trkpt lat="47.00113" lon="-0.97137">
        <ele>113</ele>
        <time>2022-01-13T12:30:13Z</time>
      </trkpt>
      <trkpt lat="47.00116" lon="-0.97138">
        <ele>113</ele>
        <time>2022-01-13T12:30:22Z</time>
      </trkpt>
      <trkpt lat="47.00118" lon="-0.97138">
        <ele>113</ele>
        <time>2022-01-13T12:30:32Z</time>
      </trkpt>
      <trkpt lat="47.00121" lon="-0.97137">
        <ele>113</ele>
        <time>2022-01-13T12:30:37Z</time>
      </trkpt>
      <trkpt lat="47.00124" lon="-0.97136">
        <ele>113</ele>
        <time>2022-01-13T12:30:41Z</time>
      </trkpt>
      <trkpt lat="47.00127" lon="-0.97134">
        <ele>112</ele>
        <time>2022-01-13T12:30:45Z</time>
      </trkpt>
      <trkpt lat="47.00131" lon="-0.97132">
        <ele>113</ele>
        <time>2022-01-13T12:30:49Z</time>
      </trkpt>
      <trkpt lat="47.00133" lon="-0.9713">
        <ele>112</ele>
        <time>2022-01-13T12:30:51Z</time>
      </trkpt>
      <trkpt lat="47.00136" lon="-0.97127">
        <ele>112</ele>
        <time>2022-01-13T12:30:55Z</time>
      </trkpt>
      <trkpt lat="47.00139" lon="-0.97125">
        <ele>112</ele>
        <time>2022-01-13T12:30:58Z</time>
      </trkpt>
      <trkpt lat="47.00142" lon="-0.97123">
        <ele>112</ele>
        <time>2022-01-13T12:31:02Z</time>
      </trkpt>
      <trkpt lat="47.00145" lon="-0.97121">
        <ele>113</ele>
        <time>2022-01-13T12:31:06Z</time>
      </trkpt>
      <trkpt lat="47.00148" lon="-0.97119">
        <ele>112</ele>
        <time>2022-01-13T12:31:09Z</time>
      </trkpt>
      <trkpt lat="47.00151" lon="-0.97116">
        <ele>112</ele>
        <time>2022-01-13T12:31:12Z</time>
      </trkpt>
      <trkpt lat="47.00153" lon="-0.97114">
        <ele>112</ele>
        <time>2022-01-13T12:31:15Z</time>
      </trkpt>
      <trkpt lat="47.00156" lon="-0.97112">
        <ele>112</ele>
        <time>2022-01-13T12:31:18Z</time>
      </trkpt>
      <trkpt lat="47.00158" lon="-0.9711">
        <ele>112</ele>
        <time>2022-01-13T12:31:21Z</time>
      </trkpt>
      <trkpt lat="47.00161" lon="-0.97109">
        <ele>112</ele>
        <time>2022-01-13T12:31:24Z</time>
      </trkpt>
      <trkpt lat="47.00164" lon="-0.97108">
        <ele>113</ele>
        <time>2022-01-13T12:31:27Z</time>
      </trkpt>
      <trkpt lat="47.00168" lon="-0.97109">
        <ele>113</ele>
        <time>2022-01-13T12:31:30Z</time>
      </trkpt>
      <trkpt lat="47.00171" lon="-0.97111">
        <ele>113</ele>
        <time>2022-01-13T12:31:33Z</time>
      </trkpt>
      <trkpt lat="47.00174" lon="-0.97114">
        <ele>113</ele>
        <time>2022-01-13T12:31:36Z</time>
      </trkpt>
      <trkpt lat="47.00176" lon="-0.97118">
        <ele>113</ele>
        <time>2022-01-13T12:31:40Z</time>
      </trkpt>
      <trkpt lat="47.00177" lon="-0.97122">
        <ele>113</ele>
        <time>2022-01-13T12:31:42Z</time>
      </trkpt>
      <trkpt lat="47.00179" lon="-0.97125">
        <ele>113</ele>
        <time>2022-01-13T12:31:45Z</time>
      </trkpt>
      <trkpt lat="47.00182" lon="-0.97126">
        <ele>114</ele>
        <time>2022-01-13T12:31:49Z</time>
      </trkpt>
      <trkpt lat="47.00185" lon="-0.97127">
        <ele>114</ele>
        <time>2022-01-13T12:31:52Z</time>
      </trkpt>
      <trkpt lat="47.00188" lon="-0.97129">
        <ele>114</ele>
        <time>2022-01-13T12:31:56Z</time>
      </trkpt>
      <trkpt lat="47.00191" lon="-0.97132">
        <ele>115</ele>
        <time>2022-01-13T12:31:59Z</time>
      </trkpt>
      <trkpt lat="47.00192" lon="-0.97136">
        <ele>115</ele>
        <time>2022-01-13T12:32:03Z</time>
      </trkpt>
      <trkpt lat="47.00194" lon="-0.97139">
        <ele>115</ele>
        <time>2022-01-13T12:32:07Z</time>
      </trkpt>
      <trkpt lat="47.00197" lon="-0.97143">
        <ele>116</ele>
        <time>2022-01-13T12:32:12Z</time>
      </trkpt>
      <trkpt lat="47.00198" lon="-0.97146">
        <ele>115</ele>
        <time>2022-01-13T12:32:15Z</time>
      </trkpt>
      <trkpt lat="47.002" lon="-0.97149">
        <ele>116</ele>
        <time>2022-01-13T12:32:21Z</time>
      </trkpt>
      <trkpt lat="47.00202" lon="-0.97153">
        <ele>116</ele>
        <time>2022-01-13T12:32:27Z</time>
      </trkpt>
      <trkpt lat="47.00204" lon="-0.97158">
        <ele>117</ele>
        <time>2022-01-13T12:32:30Z</time>
      </trkpt>
      <trkpt lat="47.00206" lon="-0.97162">
        <ele>118</ele>
        <time>2022-01-13T12:32:35Z</time>
      </trkpt>
      <trkpt lat="47.00208" lon="-0.97166">
        <ele>117</ele>
        <time>2022-01-13T12:32:39Z</time>
      </trkpt>
      <trkpt lat="47.0021" lon="-0.9717">
        <ele>119</ele>
        <time>2022-01-13T12:32:43Z</time>
      </trkpt>
      <trkpt lat="47.00212" lon="-0.97174">
        <ele>119</ele>
        <time>2022-01-13T12:32:52Z</time>
      </trkpt>
      <trkpt lat="47.00214" lon="-0.97178">
        <ele>118</ele>
        <time>2022-01-13T12:32:56Z</time>
      </trkpt>
      <trkpt lat="47.00215" lon="-0.97182">
        <ele>118</ele>
        <time>2022-01-13T12:32:59Z</time>
      </trkpt>
      <trkpt lat="47.00216" lon="-0.97186">
        <ele>119</ele>
        <time>2022-01-13T12:33:03Z</time>
      </trkpt>
      <trkpt lat="47.00217" lon="-0.9719">
        <ele>119</ele>
        <time>2022-01-13T12:33:07Z</time>
      </trkpt>
      <trkpt lat="47.00219" lon="-0.97195">
        <ele>119</ele>
        <time>2022-01-13T12:33:11Z</time>
      </trkpt>
      <trkpt lat="47.0022" lon="-0.97199">
        <ele>119</ele>
        <time>2022-01-13T12:33:15Z</time>
      </trkpt>
      <trkpt lat="47.00221" lon="-0.97203">
        <ele>120</ele>
        <time>2022-01-13T12:33:18Z</time>
      </trkpt>
      <trkpt lat="47.00223" lon="-0.97206">
        <ele>120</ele>
        <time>2022-01-13T12:33:21Z</time>
      </trkpt>
      <trkpt lat="47.00225" lon="-0.9721">
        <ele>121</ele>
        <time>2022-01-13T12:33:25Z</time>
      </trkpt>
      <trkpt lat="47.00227" lon="-0.97214">
        <ele>121</ele>
        <time>2022-01-13T12:33:29Z</time>
      </trkpt>
      <trkpt lat="47.00228" lon="-0.97218">
        <ele>121</ele>
        <time>2022-01-13T12:33:32Z</time>
      </trkpt>
      <trkpt lat="47.00229" lon="-0.97222">
        <ele>121</ele>
        <time>2022-01-13T12:33:35Z</time>
      </trkpt>
      <trkpt lat="47.0023" lon="-0.97227">
        <ele>121</ele>
        <time>2022-01-13T12:33:38Z</time>
      </trkpt>
      <trkpt lat="47.00232" lon="-0.9723">
        <ele>122</ele>
        <time>2022-01-13T12:33:41Z</time>
      </trkpt>
      <trkpt lat="47.00234" lon="-0.97234">
        <ele>122</ele>
        <time>2022-01-13T12:33:45Z</time>
      </trkpt>
      <trkpt lat="47.00236" lon="-0.97237">
        <ele>122</ele>
        <time>2022-01-13T12:33:48Z</time>
      </trkpt>
      <trkpt lat="47.00238" lon="-0.9724">
        <ele>122</ele>
        <time>2022-01-13T12:33:51Z</time>
      </trkpt>
      <trkpt lat="47.0024" lon="-0.97244">
        <ele>123</ele>
        <time>2022-01-13T12:33:55Z</time>
      </trkpt>
      <trkpt lat="47.00242" lon="-0.97247">
        <ele>123</ele>
        <time>2022-01-13T12:34:00Z</time>
      </trkpt>
      <trkpt lat="47.00244" lon="-0.97251">
        <ele>124</ele>
        <time>2022-01-13T12:34:05Z</time>
      </trkpt>
      <trkpt lat="47.00245" lon="-0.97255">
        <ele>124</ele>
        <time>2022-01-13T12:34:09Z</time>
      </trkpt>
      <trkpt lat="47.00246" lon="-0.9726">
        <ele>124</ele>
        <time>2022-01-13T12:34:13Z</time>
      </trkpt>
      <trkpt lat="47.00248" lon="-0.97263">
        <ele>123</ele>
        <time>2022-01-13T12:34:16Z</time>
      </trkpt>
      <trkpt lat="47.0025" lon="-0.97267">
        <ele>124</ele>
        <time>2022-01-13T12:34:19Z</time>
      </trkpt>
      <trkpt lat="47.00251" lon="-0.97271">
        <ele>124</ele>
        <time>2022-01-13T12:34:22Z</time>
      </trkpt>
      <trkpt lat="47.00252" lon="-0.97275">
        <ele>125</ele>
        <time>2022-01-13T12:34:25Z</time>
      </trkpt>
      <trkpt lat="47.00253" lon="-0.97279">
        <ele>124</ele>
        <time>2022-01-13T12:34:28Z</time>
      </trkpt>
      <trkpt lat="47.00255" lon="-0.97282">
        <ele>125</ele>
        <time>2022-01-13T12:34:31Z</time>
      </trkpt>
      <trkpt lat="47.00256" lon="-0.97286">
        <ele>125</ele>
        <time>2022-01-13T12:34:34Z</time>
      </trkpt>
      <trkpt lat="47.00258" lon="-0.9729">
        <ele>125</ele>
        <time>2022-01-13T12:34:38Z</time>
      </trkpt>
      <trkpt lat="47.00259" lon="-0.97294">
        <ele>126</ele>
        <time>2022-01-13T12:34:41Z</time>
      </trkpt>
      <trkpt lat="47.00261" lon="-0.97298">
        <ele>126</ele>
        <time>2022-01-13T12:34:44Z</time>
      </trkpt>
      <trkpt lat="47.00261" lon="-0.97302">
        <ele>126</ele>
        <time>2022-01-13T12:34:50Z</time>
      </trkpt>
      <trkpt lat="47.00262" lon="-0.97306">
        <ele>126</ele>
        <time>2022-01-13T12:34:53Z</time>
      </trkpt>
      <trkpt lat="47.00264" lon="-0.97309">
        <ele>126</ele>
        <time>2022-01-13T12:34:57Z</time>
      </trkpt>
      <trkpt lat="47.00266" lon="-0.97312">
        <ele>126</ele>
        <time>2022-01-13T12:35:00Z</time>
      </trkpt>
      <trkpt lat="47.00268" lon="-0.97316">
        <ele>127</ele>
        <time>2022-01-13T12:35:03Z</time>
      </trkpt>
      <trkpt lat="47.0027" lon="-0.97319">
        <ele>127</ele>
        <time>2022-01-13T12:35:06Z</time>
      </trkpt>
      <trkpt lat="47.00273" lon="-0.97321">
        <ele>127</ele>
        <time>2022-01-13T12:35:09Z</time>
      </trkpt>
      <trkpt lat="47.00276" lon="-0.97324">
        <ele>126</ele>
        <time>2022-01-13T12:35:12Z</time>
      </trkpt>
      <trkpt lat="47.00278" lon="-0.97325">
        <ele>127</ele>
        <time>2022-01-13T12:35:15Z</time>
      </trkpt>
      <trkpt lat="47.00281" lon="-0.97327">
        <ele>127</ele>
        <time>2022-01-13T12:35:19Z</time>
      </trkpt>
      <trkpt lat="47.00284" lon="-0.9733">
        <ele>128</ele>
        <time>2022-01-13T12:35:22Z</time>
      </trkpt>
      <trkpt lat="47.00286" lon="-0.97332">
        <ele>128</ele>
        <time>2022-01-13T12:35:25Z</time>
      </trkpt>
      <trkpt lat="47.00288" lon="-0.97335">
        <ele>128</ele>
        <time>2022-01-13T12:35:29Z</time>
      </trkpt>
      <trkpt lat="47.0029" lon="-0.97338">
        <ele>128</ele>
        <time>2022-01-13T12:35:32Z</time>
      </trkpt>
      <trkpt lat="47.00293" lon="-0.97341">
        <ele>127</ele>
        <time>2022-01-13T12:35:35Z</time>
      </trkpt>
      <trkpt lat="47.00296" lon="-0.97343">
        <ele>128</ele>
        <time>2022-01-13T12:35:38Z</time>
      </trkpt>
      <trkpt lat="47.00299" lon="-0.97347">
        <ele>128</ele>
        <time>2022-01-13T12:35:42Z</time>
      </trkpt>
      <trkpt lat="47.00301" lon="-0.97349">
        <ele>128</ele>
        <time>2022-01-13T12:35:46Z</time>
      </trkpt>
      <trkpt lat="47.00304" lon="-0.97352">
        <ele>128</ele>
        <time>2022-01-13T12:35:49Z</time>
      </trkpt>
      <trkpt lat="47.00307" lon="-0.97354">
        <ele>127</ele>
        <time>2022-01-13T12:35:53Z</time>
      </trkpt>
      <trkpt lat="47.0031" lon="-0.97357">
        <ele>127</ele>
        <time>2022-01-13T12:35:56Z</time>
      </trkpt>
      <trkpt lat="47.00313" lon="-0.9736">
        <ele>127</ele>
        <time>2022-01-13T12:35:59Z</time>
      </trkpt>
      <trkpt lat="47.00316" lon="-0.97363">
        <ele>127</ele>
        <time>2022-01-13T12:36:02Z</time>
      </trkpt>
      <trkpt lat="47.00319" lon="-0.97365">
        <ele>128</ele>
        <time>2022-01-13T12:36:05Z</time>
      </trkpt>
      <trkpt lat="47.00322" lon="-0.97366">
        <ele>128</ele>
        <time>2022-01-13T12:36:09Z</time>
      </trkpt>
      <trkpt lat="47.00324" lon="-0.97369">
        <ele>127</ele>
        <time>2022-01-13T12:36:12Z</time>
      </trkpt>
      <trkpt lat="47.00327" lon="-0.97371">
        <ele>127</ele>
        <time>2022-01-13T12:36:17Z</time>
      </trkpt>
      <trkpt lat="47.0033" lon="-0.97373">
        <ele>127</ele>
        <time>2022-01-13T12:36:20Z</time>
      </trkpt>
      <trkpt lat="47.00332" lon="-0.97376">
        <ele>127</ele>
        <time>2022-01-13T12:36:23Z</time>
      </trkpt>
      <trkpt lat="47.00335" lon="-0.97379">
        <ele>127</ele>
        <time>2022-01-13T12:36:27Z</time>
      </trkpt>
      <trkpt lat="47.00337" lon="-0.97381">
        <ele>127</ele>
        <time>2022-01-13T12:36:29Z</time>
      </trkpt>
      <trkpt lat="47.0034" lon="-0.97384">
        <ele>128</ele>
        <time>2022-01-13T12:36:33Z</time>
      </trkpt>
      <trkpt lat="47.00342" lon="-0.97388">
        <ele>127</ele>
        <time>2022-01-13T12:36:36Z</time>
      </trkpt>
      <trkpt lat="47.00344" lon="-0.97391">
        <ele>128</ele>
        <time>2022-01-13T12:36:39Z</time>
      </trkpt>
      <trkpt lat="47.00346" lon="-0.97395">
        <ele>127</ele>
        <time>2022-01-13T12:36:42Z</time>
      </trkpt>
      <trkpt lat="47.00348" lon="-0.97398">
        <ele>128</ele>
        <time>2022-01-13T12:36:44Z</time>
      </trkpt>
      <trkpt lat="47.0035" lon="-0.97402">
        <ele>127</ele>
        <time>2022-01-13T12:36:46Z</time>
      </trkpt>
      <trkpt lat="47.00353" lon="-0.97404">
        <ele>127</ele>
        <time>2022-01-13T12:36:50Z</time>
      </trkpt>
      <trkpt lat="47.00355" lon="-0.97405">
        <ele>127</ele>
        <time>2022-01-13T12:36:53Z</time>
      </trkpt>
      <trkpt lat="47.00358" lon="-0.97403">
        <ele>126</ele>
        <time>2022-01-13T12:36:56Z</time>
      </trkpt>
      <trkpt lat="47.00358" lon="-0.974">
        <ele>126</ele>
        <time>2022-01-13T12:37:00Z</time>
      </trkpt>
      <trkpt lat="47.0036" lon="-0.97398">
        <ele>127</ele>
        <time>2022-01-13T12:37:18Z</time>
      </trkpt>
      <trkpt lat="47.0036" lon="-0.97394">
        <ele>127</ele>
        <time>2022-01-13T12:37:43Z</time>
      </trkpt>
      <trkpt lat="47.0036" lon="-0.9739">
        <ele>126</ele>
        <time>2022-01-13T12:37:48Z</time>
      </trkpt>
      <trkpt lat="47.00358" lon="-0.97387">
        <ele>126</ele>
        <time>2022-01-13T12:37:51Z</time>
      </trkpt>
      <trkpt lat="47.00356" lon="-0.97386">
        <ele>126</ele>
        <time>2022-01-13T12:37:55Z</time>
      </trkpt>
      <trkpt lat="47.00353" lon="-0.97383">
        <ele>127</ele>
        <time>2022-01-13T12:37:58Z</time>
      </trkpt>
      <trkpt lat="47.00351" lon="-0.97381">
        <ele>126</ele>
        <time>2022-01-13T12:38:02Z</time>
      </trkpt>
      <trkpt lat="47.0035" lon="-0.97377">
        <ele>126</ele>
        <time>2022-01-13T12:38:07Z</time>
      </trkpt>
      <trkpt lat="47.00349" lon="-0.97373">
        <ele>125</ele>
        <time>2022-01-13T12:38:10Z</time>
      </trkpt>
      <trkpt lat="47.0035" lon="-0.97368">
        <ele>125</ele>
        <time>2022-01-13T12:38:13Z</time>
      </trkpt>
      <trkpt lat="47.00351" lon="-0.97363">
        <ele>125</ele>
        <time>2022-01-13T12:38:16Z</time>
      </trkpt>
      <trkpt lat="47.00353" lon="-0.97359">
        <ele>125</ele>
        <time>2022-01-13T12:38:19Z</time>
      </trkpt>
      <trkpt lat="47.00356" lon="-0.97355">
        <ele>124</ele>
        <time>2022-01-13T12:38:24Z</time>
      </trkpt>
      <trkpt lat="47.00358" lon="-0.97351">
        <ele>125</ele>
        <time>2022-01-13T12:38:27Z</time>
      </trkpt>
      <trkpt lat="47.0036" lon="-0.97347">
        <ele>124</ele>
        <time>2022-01-13T12:38:31Z</time>
      </trkpt>
      <trkpt lat="47.00362" lon="-0.97343">
        <ele>124</ele>
        <time>2022-01-13T12:38:35Z</time>
      </trkpt>
      <trkpt lat="47.00364" lon="-0.97341">
        <ele>124</ele>
        <time>2022-01-13T12:38:40Z</time>
      </trkpt>
      <trkpt lat="47.00367" lon="-0.9734">
        <ele>124</ele>
        <time>2022-01-13T12:38:43Z</time>
      </trkpt>
      <trkpt lat="47.0037" lon="-0.97341">
        <ele>124</ele>
        <time>2022-01-13T12:38:46Z</time>
      </trkpt>
      <trkpt lat="47.00373" lon="-0.97342">
        <ele>125</ele>
        <time>2022-01-13T12:38:48Z</time>
      </trkpt>
      <trkpt lat="47.00376" lon="-0.97344">
        <ele>124</ele>
        <time>2022-01-13T12:38:51Z</time>
      </trkpt>
      <trkpt lat="47.00378" lon="-0.97347">
        <ele>123</ele>
        <time>2022-01-13T12:38:54Z</time>
      </trkpt>
      <trkpt lat="47.0038" lon="-0.9735">
        <ele>123</ele>
        <time>2022-01-13T12:38:57Z</time>
      </trkpt>
      <trkpt lat="47.00383" lon="-0.97352">
        <ele>124</ele>
        <time>2022-01-13T12:39:00Z</time>
      </trkpt>
      <trkpt lat="47.00385" lon="-0.97356">
        <ele>124</ele>
        <time>2022-01-13T12:39:06Z</time>
      </trkpt>
      <trkpt lat="47.00388" lon="-0.97358">
        <ele>124</ele>
        <time>2022-01-13T12:39:09Z</time>
      </trkpt>
      <trkpt lat="47.00391" lon="-0.9736">
        <ele>124</ele>
        <time>2022-01-13T12:39:11Z</time>
      </trkpt>
      <trkpt lat="47.00393" lon="-0.97362">
        <ele>124</ele>
        <time>2022-01-13T12:39:13Z</time>
      </trkpt>
      <trkpt lat="47.00397" lon="-0.97363">
        <ele>124</ele>
        <time>2022-01-13T12:39:15Z</time>
      </trkpt>
      <trkpt lat="47.00399" lon="-0.97365">
        <ele>124</ele>
        <time>2022-01-13T12:39:18Z</time>
      </trkpt>
      <trkpt lat="47.00402" lon="-0.97367">
        <ele>124</ele>
        <time>2022-01-13T12:39:22Z</time>
      </trkpt>
      <trkpt lat="47.00404" lon="-0.97371">
        <ele>123</ele>
        <time>2022-01-13T12:39:26Z</time>
      </trkpt>
      <trkpt lat="47.00407" lon="-0.97374">
        <ele>124</ele>
        <time>2022-01-13T12:39:29Z</time>
      </trkpt>
      <trkpt lat="47.0041" lon="-0.97377">
        <ele>124</ele>
        <time>2022-01-13T12:39:33Z</time>
      </trkpt>
      <trkpt lat="47.00412" lon="-0.9738">
        <ele>125</ele>
        <time>2022-01-13T12:39:38Z</time>
      </trkpt>
      <trkpt lat="47.00415" lon="-0.97384">
        <ele>125</ele>
        <time>2022-01-13T12:39:41Z</time>
      </trkpt>
      <trkpt lat="47.00418" lon="-0.97386">
        <ele>125</ele>
        <time>2022-01-13T12:39:44Z</time>
      </trkpt>
      <trkpt lat="47.00421" lon="-0.97389">
        <ele>124</ele>
        <time>2022-01-13T12:39:49Z</time>
      </trkpt>
      <trkpt lat="47.00423" lon="-0.97392">
        <ele>124</ele>
        <time>2022-01-13T12:39:53Z</time>
      </trkpt>
      <trkpt lat="47.00426" lon="-0.97395">
        <ele>124</ele>
        <time>2022-01-13T12:39:57Z</time>
      </trkpt>
      <trkpt lat="47.00428" lon="-0.97399">
        <ele>124</ele>
        <time>2022-01-13T12:40:00Z</time>
      </trkpt>
      <trkpt lat="47.0043" lon="-0.97403">
        <ele>125</ele>
        <time>2022-01-13T12:40:02Z</time>
      </trkpt>
      <trkpt lat="47.00432" lon="-0.97407">
        <ele>125</ele>
        <time>2022-01-13T12:40:05Z</time>
      </trkpt>
      <trkpt lat="47.00434" lon="-0.9741">
        <ele>125</ele>
        <time>2022-01-13T12:40:08Z</time>
      </trkpt>
      <trkpt lat="47.00437" lon="-0.97413">
        <ele>125</ele>
        <time>2022-01-13T12:40:11Z</time>
      </trkpt>
      <trkpt lat="47.00439" lon="-0.97416">
        <ele>126</ele>
        <time>2022-01-13T12:40:14Z</time>
      </trkpt>
      <trkpt lat="47.00442" lon="-0.9742">
        <ele>125</ele>
        <time>2022-01-13T12:40:17Z</time>
      </trkpt>
      <trkpt lat="47.00444" lon="-0.97423">
        <ele>125</ele>
        <time>2022-01-13T12:40:21Z</time>
      </trkpt>
      <trkpt lat="47.00447" lon="-0.97426">
        <ele>125</ele>
        <time>2022-01-13T12:40:24Z</time>
      </trkpt>
      <trkpt lat="47.00449" lon="-0.97429">
        <ele>125</ele>
        <time>2022-01-13T12:40:28Z</time>
      </trkpt>
      <trkpt lat="47.00452" lon="-0.97432">
        <ele>126</ele>
        <time>2022-01-13T12:40:31Z</time>
      </trkpt>
      <trkpt lat="47.00454" lon="-0.97436">
        <ele>126</ele>
        <time>2022-01-13T12:40:34Z</time>
      </trkpt>
      <trkpt lat="47.00457" lon="-0.97439">
        <ele>126</ele>
        <time>2022-01-13T12:40:37Z</time>
      </trkpt>
      <trkpt lat="47.00459" lon="-0.9744">
        <ele>126</ele>
        <time>2022-01-13T12:40:40Z</time>
      </trkpt>
      <trkpt lat="47.00462" lon="-0.97443">
        <ele>127</ele>
        <time>2022-01-13T12:40:44Z</time>
      </trkpt>
      <trkpt lat="47.00465" lon="-0.97445">
        <ele>126</ele>
        <time>2022-01-13T12:40:47Z</time>
      </trkpt>
      <trkpt lat="47.00467" lon="-0.97448">
        <ele>126</ele>
        <time>2022-01-13T12:40:50Z</time>
      </trkpt>
      <trkpt lat="47.0047" lon="-0.97451">
        <ele>127</ele>
        <time>2022-01-13T12:40:53Z</time>
      </trkpt>
      <trkpt lat="47.00472" lon="-0.97454">
        <ele>126</ele>
        <time>2022-01-13T12:40:57Z</time>
      </trkpt>
      <trkpt lat="47.00475" lon="-0.97458">
        <ele>127</ele>
        <time>2022-01-13T12:41:00Z</time>
      </trkpt>
      <trkpt lat="47.00477" lon="-0.97461">
        <ele>127</ele>
        <time>2022-01-13T12:41:03Z</time>
      </trkpt>
      <trkpt lat="47.0048" lon="-0.97464">
        <ele>127</ele>
        <time>2022-01-13T12:41:06Z</time>
      </trkpt>
      <trkpt lat="47.00482" lon="-0.97467">
        <ele>127</ele>
        <time>2022-01-13T12:41:09Z</time>
      </trkpt>
      <trkpt lat="47.00485" lon="-0.9747">
        <ele>128</ele>
        <time>2022-01-13T12:41:14Z</time>
      </trkpt>
      <trkpt lat="47.00488" lon="-0.97472">
        <ele>128</ele>
        <time>2022-01-13T12:41:17Z</time>
      </trkpt>
      <trkpt lat="47.00491" lon="-0.97474">
        <ele>127</ele>
        <time>2022-01-13T12:41:22Z</time>
      </trkpt>
      <trkpt lat="47.00493" lon="-0.97478">
        <ele>127</ele>
        <time>2022-01-13T12:41:29Z</time>
      </trkpt>
      <trkpt lat="47.00495" lon="-0.97481">
        <ele>128</ele>
        <time>2022-01-13T12:41:34Z</time>
      </trkpt>
      <trkpt lat="47.00497" lon="-0.97485">
        <ele>128</ele>
        <time>2022-01-13T12:41:38Z</time>
      </trkpt>
      <trkpt lat="47.00499" lon="-0.97488">
        <ele>128</ele>
        <time>2022-01-13T12:41:42Z</time>
      </trkpt>
      <trkpt lat="47.00502" lon="-0.9749">
        <ele>128</ele>
        <time>2022-01-13T12:41:45Z</time>
      </trkpt>
      <trkpt lat="47.00504" lon="-0.97493">
        <ele>128</ele>
        <time>2022-01-13T12:41:47Z</time>
      </trkpt>
      <trkpt lat="47.00506" lon="-0.97496">
        <ele>128</ele>
        <time>2022-01-13T12:41:49Z</time>
      </trkpt>
      <trkpt lat="47.00509" lon="-0.97499">
        <ele>128</ele>
        <time>2022-01-13T12:41:53Z</time>
      </trkpt>
      <trkpt lat="47.00512" lon="-0.97502">
        <ele>128</ele>
        <time>2022-01-13T12:41:57Z</time>
      </trkpt>
      <trkpt lat="47.00514" lon="-0.97505">
        <ele>128</ele>
        <time>2022-01-13T12:42:00Z</time>
      </trkpt>
      <trkpt lat="47.00517" lon="-0.97508">
        <ele>128</ele>
        <time>2022-01-13T12:42:04Z</time>
      </trkpt>
      <trkpt lat="47.00519" lon="-0.97512">
        <ele>129</ele>
        <time>2022-01-13T12:42:07Z</time>
      </trkpt>
      <trkpt lat="47.00521" lon="-0.97516">
        <ele>129</ele>
        <time>2022-01-13T12:42:09Z</time>
      </trkpt>
      <trkpt lat="47.00522" lon="-0.9752">
        <ele>128</ele>
        <time>2022-01-13T12:42:12Z</time>
      </trkpt>
      <trkpt lat="47.00524" lon="-0.97524">
        <ele>129</ele>
        <time>2022-01-13T12:42:15Z</time>
      </trkpt>
      <trkpt lat="47.00526" lon="-0.97526">
        <ele>129</ele>
        <time>2022-01-13T12:42:21Z</time>
      </trkpt>
      <trkpt lat="47.00528" lon="-0.97529">
        <ele>129</ele>
        <time>2022-01-13T12:42:24Z</time>
      </trkpt>
      <trkpt lat="47.0053" lon="-0.97532">
        <ele>129</ele>
        <time>2022-01-13T12:42:28Z</time>
      </trkpt>
      <trkpt lat="47.00533" lon="-0.97535">
        <ele>129</ele>
        <time>2022-01-13T12:42:30Z</time>
      </trkpt>
      <trkpt lat="47.00535" lon="-0.97538">
        <ele>129</ele>
        <time>2022-01-13T12:42:33Z</time>
      </trkpt>
      <trkpt lat="47.00538" lon="-0.97543">
        <ele>129</ele>
        <time>2022-01-13T12:42:36Z</time>
      </trkpt>
      <trkpt lat="47.0054" lon="-0.97547">
        <ele>129</ele>
        <time>2022-01-13T12:42:39Z</time>
      </trkpt>
      <trkpt lat="47.00542" lon="-0.97551">
        <ele>129</ele>
        <time>2022-01-13T12:42:42Z</time>
      </trkpt>
      <trkpt lat="47.00545" lon="-0.97555">
        <ele>130</ele>
        <time>2022-01-13T12:42:48Z</time>
      </trkpt>
      <trkpt lat="47.00546" lon="-0.9756">
        <ele>130</ele>
        <time>2022-01-13T12:42:51Z</time>
      </trkpt>
      <trkpt lat="47.00547" lon="-0.97564">
        <ele>130</ele>
        <time>2022-01-13T12:42:54Z</time>
      </trkpt>
      <trkpt lat="47.00548" lon="-0.97568">
        <ele>130</ele>
        <time>2022-01-13T12:42:56Z</time>
      </trkpt>
      <trkpt lat="47.00549" lon="-0.97573">
        <ele>131</ele>
        <time>2022-01-13T12:42:59Z</time>
      </trkpt>
      <trkpt lat="47.0055" lon="-0.97578">
        <ele>131</ele>
        <time>2022-01-13T12:43:02Z</time>
      </trkpt>
      <trkpt lat="47.0055" lon="-0.97583">
        <ele>130</ele>
        <time>2022-01-13T12:43:04Z</time>
      </trkpt>
      <trkpt lat="47.00549" lon="-0.97588">
        <ele>130</ele>
        <time>2022-01-13T12:43:07Z</time>
      </trkpt>
      <trkpt lat="47.00548" lon="-0.97593">
        <ele>130</ele>
        <time>2022-01-13T12:43:10Z</time>
      </trkpt>
      <trkpt lat="47.00547" lon="-0.97598">
        <ele>130</ele>
        <time>2022-01-13T12:43:13Z</time>
      </trkpt>
      <trkpt lat="47.00547" lon="-0.97602">
        <ele>131</ele>
        <time>2022-01-13T12:43:17Z</time>
      </trkpt>
      <trkpt lat="47.00547" lon="-0.97607">
        <ele>131</ele>
        <time>2022-01-13T12:43:21Z</time>
      </trkpt>
      <trkpt lat="47.00547" lon="-0.97611">
        <ele>130</ele>
        <time>2022-01-13T12:43:25Z</time>
      </trkpt>
      <trkpt lat="47.00546" lon="-0.97616">
        <ele>131</ele>
        <time>2022-01-13T12:43:29Z</time>
      </trkpt>
      <trkpt lat="47.00546" lon="-0.9762">
        <ele>131</ele>
        <time>2022-01-13T12:43:31Z</time>
      </trkpt>
      <trkpt lat="47.00545" lon="-0.97625">
        <ele>131</ele>
        <time>2022-01-13T12:43:34Z</time>
      </trkpt>
      <trkpt lat="47.00543" lon="-0.9763">
        <ele>131</ele>
        <time>2022-01-13T12:43:37Z</time>
      </trkpt>
      <trkpt lat="47.00541" lon="-0.97634">
        <ele>132</ele>
        <time>2022-01-13T12:43:39Z</time>
      </trkpt>
      <trkpt lat="47.0054" lon="-0.97638">
        <ele>132</ele>
        <time>2022-01-13T12:43:41Z</time>
      </trkpt>
      <trkpt lat="47.00538" lon="-0.97642">
        <ele>132</ele>
        <time>2022-01-13T12:43:44Z</time>
      </trkpt>
      <trkpt lat="47.00537" lon="-0.97646">
        <ele>132</ele>
        <time>2022-01-13T12:43:47Z</time>
      </trkpt>
      <trkpt lat="47.00537" lon="-0.97651">
        <ele>132</ele>
        <time>2022-01-13T12:43:50Z</time>
      </trkpt>
      <trkpt lat="47.00536" lon="-0.97656">
        <ele>131</ele>
        <time>2022-01-13T12:43:53Z</time>
      </trkpt>
      <trkpt lat="47.00536" lon="-0.97662">
        <ele>132</ele>
        <time>2022-01-13T12:43:56Z</time>
      </trkpt>
      <trkpt lat="47.00535" lon="-0.97666">
        <ele>133</ele>
        <time>2022-01-13T12:43:58Z</time>
      </trkpt>
      <trkpt lat="47.00534" lon="-0.97671">
        <ele>132</ele>
        <time>2022-01-13T12:44:01Z</time>
      </trkpt>
      <trkpt lat="47.00534" lon="-0.97675">
        <ele>132</ele>
        <time>2022-01-13T12:44:04Z</time>
      </trkpt>
      <trkpt lat="47.00534" lon="-0.97679">
        <ele>132</ele>
        <time>2022-01-13T12:44:08Z</time>
      </trkpt>
      <trkpt lat="47.00535" lon="-0.97684">
        <ele>132</ele>
        <time>2022-01-13T12:44:12Z</time>
      </trkpt>
      <trkpt lat="47.00535" lon="-0.97688">
        <ele>132</ele>
        <time>2022-01-13T12:44:16Z</time>
      </trkpt>
      <trkpt lat="47.00535" lon="-0.97693">
        <ele>132</ele>
        <time>2022-01-13T12:44:19Z</time>
      </trkpt>
      <trkpt lat="47.00535" lon="-0.97697">
        <ele>132</ele>
        <time>2022-01-13T12:44:21Z</time>
      </trkpt>
      <trkpt lat="47.00535" lon="-0.97701">
        <ele>133</ele>
        <time>2022-01-13T12:44:24Z</time>
      </trkpt>
      <trkpt lat="47.00534" lon="-0.97705">
        <ele>133</ele>
        <time>2022-01-13T12:44:53Z</time>
      </trkpt>
      <trkpt lat="47.00535" lon="-0.97709">
        <ele>133</ele>
        <time>2022-01-13T12:44:57Z</time>
      </trkpt>
      <trkpt lat="47.00536" lon="-0.97713">
        <ele>133</ele>
        <time>2022-01-13T12:45:03Z</time>
      </trkpt>
      <trkpt lat="47.00536" lon="-0.97717">
        <ele>134</ele>
        <time>2022-01-13T12:45:06Z</time>
      </trkpt>
      <trkpt lat="47.00536" lon="-0.97722">
        <ele>134</ele>
        <time>2022-01-13T12:45:09Z</time>
      </trkpt>
      <trkpt lat="47.00535" lon="-0.97726">
        <ele>133</ele>
        <time>2022-01-13T12:45:12Z</time>
      </trkpt>
      <trkpt lat="47.00534" lon="-0.97731">
        <ele>133</ele>
        <time>2022-01-13T12:45:15Z</time>
      </trkpt>
      <trkpt lat="47.00533" lon="-0.97736">
        <ele>133</ele>
        <time>2022-01-13T12:45:19Z</time>
      </trkpt>
      <trkpt lat="47.00533" lon="-0.97741">
        <ele>132</ele>
        <time>2022-01-13T12:45:21Z</time>
      </trkpt>
      <trkpt lat="47.00532" lon="-0.97745">
        <ele>132</ele>
        <time>2022-01-13T12:45:24Z</time>
      </trkpt>
      <trkpt lat="47.00531" lon="-0.97749">
        <ele>132</ele>
        <time>2022-01-13T12:45:27Z</time>
      </trkpt>
      <trkpt lat="47.0053" lon="-0.97753">
        <ele>132</ele>
        <time>2022-01-13T12:45:32Z</time>
      </trkpt>
      <trkpt lat="47.00529" lon="-0.97758">
        <ele>132</ele>
        <time>2022-01-13T12:45:37Z</time>
      </trkpt>
      <trkpt lat="47.00528" lon="-0.97762">
        <ele>132</ele>
        <time>2022-01-13T12:45:41Z</time>
      </trkpt>
      <trkpt lat="47.00526" lon="-0.97766">
        <ele>133</ele>
        <time>2022-01-13T12:45:44Z</time>
      </trkpt>
      <trkpt lat="47.00524" lon="-0.9777">
        <ele>133</ele>
        <time>2022-01-13T12:45:47Z</time>
      </trkpt>
      <trkpt lat="47.00522" lon="-0.97773">
        <ele>133</ele>
        <time>2022-01-13T12:45:49Z</time>
      </trkpt>
      <trkpt lat="47.0052" lon="-0.97777">
        <ele>132</ele>
        <time>2022-01-13T12:45:55Z</time>
      </trkpt>
      <trkpt lat="47.00519" lon="-0.97781">
        <ele>133</ele>
        <time>2022-01-13T12:45:59Z</time>
      </trkpt>
      <trkpt lat="47.00518" lon="-0.97785">
        <ele>132</ele>
        <time>2022-01-13T12:46:01Z</time>
      </trkpt>
      <trkpt lat="47.00517" lon="-0.97789">
        <ele>132</ele>
        <time>2022-01-13T12:46:03Z</time>
      </trkpt>
      <trkpt lat="47.00515" lon="-0.97794">
        <ele>132</ele>
        <time>2022-01-13T12:46:06Z</time>
      </trkpt>
      <trkpt lat="47.00513" lon="-0.97798">
        <ele>132</ele>
        <time>2022-01-13T12:46:08Z</time>
      </trkpt>
      <trkpt lat="47.00512" lon="-0.97802">
        <ele>133</ele>
        <time>2022-01-13T12:46:13Z</time>
      </trkpt>
      <trkpt lat="47.0051" lon="-0.97806">
        <ele>133</ele>
        <time>2022-01-13T12:46:16Z</time>
      </trkpt>
      <trkpt lat="47.00507" lon="-0.9781">
        <ele>132</ele>
        <time>2022-01-13T12:46:19Z</time>
      </trkpt>
      <trkpt lat="47.00507" lon="-0.97813">
        <ele>133</ele>
        <time>2022-01-13T12:46:24Z</time>
      </trkpt>
      <trkpt lat="47.00506" lon="-0.97817">
        <ele>133</ele>
        <time>2022-01-13T12:46:27Z</time>
      </trkpt>
      <trkpt lat="47.00504" lon="-0.97821">
        <ele>133</ele>
        <time>2022-01-13T12:46:30Z</time>
      </trkpt>
      <trkpt lat="47.00503" lon="-0.97825">
        <ele>133</ele>
        <time>2022-01-13T12:46:32Z</time>
      </trkpt>
      <trkpt lat="47.00501" lon="-0.9783">
        <ele>133</ele>
        <time>2022-01-13T12:46:35Z</time>
      </trkpt>
      <trkpt lat="47.005" lon="-0.97834">
        <ele>133</ele>
        <time>2022-01-13T12:46:38Z</time>
      </trkpt>
      <trkpt lat="47.00499" lon="-0.97838">
        <ele>133</ele>
        <time>2022-01-13T12:46:41Z</time>
      </trkpt>
      <trkpt lat="47.00498" lon="-0.97842">
        <ele>133</ele>
        <time>2022-01-13T12:46:45Z</time>
      </trkpt>
      <trkpt lat="47.00496" lon="-0.97846">
        <ele>133</ele>
        <time>2022-01-13T12:46:48Z</time>
      </trkpt>
      <trkpt lat="47.00494" lon="-0.97849">
        <ele>134</ele>
        <time>2022-01-13T12:46:51Z</time>
      </trkpt>
      <trkpt lat="47.00491" lon="-0.97852">
        <ele>133</ele>
        <time>2022-01-13T12:46:55Z</time>
      </trkpt>
      <trkpt lat="47.0049" lon="-0.97856">
        <ele>133</ele>
        <time>2022-01-13T12:46:59Z</time>
      </trkpt>
      <trkpt lat="47.00488" lon="-0.9786">
        <ele>133</ele>
        <time>2022-01-13T12:47:02Z</time>
      </trkpt>
      <trkpt lat="47.00487" lon="-0.97863">
        <ele>133</ele>
        <time>2022-01-13T12:47:04Z</time>
      </trkpt>
      <trkpt lat="47.00485" lon="-0.97868">
        <ele>133</ele>
        <time>2022-01-13T12:47:07Z</time>
      </trkpt>
      <trkpt lat="47.00484" lon="-0.97872">
        <ele>133</ele>
        <time>2022-01-13T12:47:13Z</time>
      </trkpt>
      <trkpt lat="47.00483" lon="-0.97876">
        <ele>133</ele>
        <time>2022-01-13T12:47:17Z</time>
      </trkpt>
      <trkpt lat="47.00483" lon="-0.97881">
        <ele>132</ele>
        <time>2022-01-13T12:47:20Z</time>
      </trkpt>
      <trkpt lat="47.00481" lon="-0.97886">
        <ele>132</ele>
        <time>2022-01-13T12:47:24Z</time>
      </trkpt>
      <trkpt lat="47.0048" lon="-0.9789">
        <ele>132</ele>
        <time>2022-01-13T12:47:29Z</time>
      </trkpt>
      <trkpt lat="47.00478" lon="-0.97894">
        <ele>132</ele>
        <time>2022-01-13T12:47:33Z</time>
      </trkpt>
      <trkpt lat="47.00477" lon="-0.97898">
        <ele>132</ele>
        <time>2022-01-13T12:47:39Z</time>
      </trkpt>
      <trkpt lat="47.00477" lon="-0.97902">
        <ele>130</ele>
        <time>2022-01-13T12:47:55Z</time>
      </trkpt>
      <trkpt lat="47.00476" lon="-0.97905">
        <ele>130</ele>
        <time>2022-01-13T12:47:57Z</time>
      </trkpt>
      <trkpt lat="47.00474" lon="-0.97909">
        <ele>130</ele>
        <time>2022-01-13T12:48:00Z</time>
      </trkpt>
      <trkpt lat="47.00471" lon="-0.97914">
        <ele>129</ele>
        <time>2022-01-13T12:48:02Z</time>
      </trkpt>
      <trkpt lat="47.0047" lon="-0.97918">
        <ele>129</ele>
        <time>2022-01-13T12:48:04Z</time>
      </trkpt>
      <trkpt lat="47.00469" lon="-0.97923">
        <ele>129</ele>
        <time>2022-01-13T12:48:07Z</time>
      </trkpt>
      <trkpt lat="47.00469" lon="-0.97927">
        <ele>129</ele>
        <time>2022-01-13T12:48:09Z</time>
      </trkpt>
      <trkpt lat="47.00468" lon="-0.97932">
        <ele>129</ele>
        <time>2022-01-13T12:48:11Z</time>
      </trkpt>
      <trkpt lat="47.00467" lon="-0.97936">
        <ele>128</ele>
        <time>2022-01-13T12:48:14Z</time>
      </trkpt>
      <trkpt lat="47.00465" lon="-0.9794">
        <ele>128</ele>
        <time>2022-01-13T12:48:17Z</time>
      </trkpt>
      <trkpt lat="47.00463" lon="-0.97944">
        <ele>129</ele>
        <time>2022-01-13T12:48:22Z</time>
      </trkpt>
      <trkpt lat="47.00462" lon="-0.97949">
        <ele>129</ele>
        <time>2022-01-13T12:48:28Z</time>
      </trkpt>
      <trkpt lat="47.0046" lon="-0.97952">
        <ele>128</ele>
        <time>2022-01-13T12:48:30Z</time>
      </trkpt>
      <trkpt lat="47.00459" lon="-0.97957">
        <ele>127</ele>
        <time>2022-01-13T12:48:33Z</time>
      </trkpt>
      <trkpt lat="47.00457" lon="-0.97961">
        <ele>127</ele>
        <time>2022-01-13T12:48:35Z</time>
      </trkpt>
      <trkpt lat="47.00455" lon="-0.97965">
        <ele>127</ele>
        <time>2022-01-13T12:48:38Z</time>
      </trkpt>
      <trkpt lat="47.00453" lon="-0.97969">
        <ele>127</ele>
        <time>2022-01-13T12:48:43Z</time>
      </trkpt>
      <trkpt lat="47.00452" lon="-0.97973">
        <ele>128</ele>
        <time>2022-01-13T12:48:47Z</time>
      </trkpt>
      <trkpt lat="47.00452" lon="-0.97977">
        <ele>127</ele>
        <time>2022-01-13T12:48:50Z</time>
      </trkpt>
      <trkpt lat="47.00454" lon="-0.9798">
        <ele>127</ele>
        <time>2022-01-13T12:48:54Z</time>
      </trkpt>
      <trkpt lat="47.00456" lon="-0.97982">
        <ele>128</ele>
        <time>2022-01-13T12:48:57Z</time>
      </trkpt>
      <trkpt lat="47.00459" lon="-0.97983">
        <ele>128</ele>
        <time>2022-01-13T12:49:00Z</time>
      </trkpt>
      <trkpt lat="47.00462" lon="-0.97984">
        <ele>128</ele>
        <time>2022-01-13T12:49:04Z</time>
      </trkpt>
      <trkpt lat="47.00465" lon="-0.97986">
        <ele>127</ele>
        <time>2022-01-13T12:49:08Z</time>
      </trkpt>
      <trkpt lat="47.00468" lon="-0.97986">
        <ele>127</ele>
        <time>2022-01-13T12:49:12Z</time>
      </trkpt>
      <trkpt lat="47.00471" lon="-0.97986">
        <ele>127</ele>
        <time>2022-01-13T12:49:15Z</time>
      </trkpt>
      <trkpt lat="47.00474" lon="-0.97987">
        <ele>127</ele>
        <time>2022-01-13T12:49:19Z</time>
      </trkpt>
      <trkpt lat="47.00477" lon="-0.97988">
        <ele>127</ele>
        <time>2022-01-13T12:49:22Z</time>
      </trkpt>
      <trkpt lat="47.0048" lon="-0.97989">
        <ele>127</ele>
        <time>2022-01-13T12:49:26Z</time>
      </trkpt>
      <trkpt lat="47.00483" lon="-0.9799">
        <ele>128</ele>
        <time>2022-01-13T12:49:30Z</time>
      </trkpt>
      <trkpt lat="47.00487" lon="-0.9799">
        <ele>128</ele>
        <time>2022-01-13T12:49:34Z</time>
      </trkpt>
      <trkpt lat="47.0049" lon="-0.97991">
        <ele>127</ele>
        <time>2022-01-13T12:49:38Z</time>
      </trkpt>
      <trkpt lat="47.00493" lon="-0.97994">
        <ele>127</ele>
        <time>2022-01-13T12:49:43Z</time>
      </trkpt>
      <trkpt lat="47.00495" lon="-0.97996">
        <ele>127</ele>
        <time>2022-01-13T12:49:49Z</time>
      </trkpt>
      <trkpt lat="47.00498" lon="-0.97997">
        <ele>127</ele>
        <time>2022-01-13T12:49:53Z</time>
      </trkpt>
      <trkpt lat="47.00501" lon="-0.97998">
        <ele>127</ele>
        <time>2022-01-13T12:49:57Z</time>
      </trkpt>
      <trkpt lat="47.00504" lon="-0.97998">
        <ele>127</ele>
        <time>2022-01-13T12:50:01Z</time>
      </trkpt>
      <trkpt lat="47.00507" lon="-0.97999">
        <ele>127</ele>
        <time>2022-01-13T12:50:04Z</time>
      </trkpt>
      <trkpt lat="47.0051" lon="-0.98">
        <ele>127</ele>
        <time>2022-01-13T12:50:07Z</time>
      </trkpt>
      <trkpt lat="47.00513" lon="-0.98">
        <ele>127</ele>
        <time>2022-01-13T12:50:10Z</time>
      </trkpt>
      <trkpt lat="47.00516" lon="-0.98">
        <ele>127</ele>
        <time>2022-01-13T12:50:14Z</time>
      </trkpt>
      <trkpt lat="47.00519" lon="-0.98002">
        <ele>127</ele>
        <time>2022-01-13T12:50:17Z</time>
      </trkpt>
      <trkpt lat="47.00521" lon="-0.98004">
        <ele>126</ele>
        <time>2022-01-13T12:50:20Z</time>
      </trkpt>
      <trkpt lat="47.00524" lon="-0.98006">
        <ele>127</ele>
        <time>2022-01-13T12:50:23Z</time>
      </trkpt>
      <trkpt lat="47.00526" lon="-0.98008">
        <ele>127</ele>
        <time>2022-01-13T12:50:26Z</time>
      </trkpt>
      <trkpt lat="47.00528" lon="-0.98012">
        <ele>127</ele>
        <time>2022-01-13T12:50:29Z</time>
      </trkpt>
      <trkpt lat="47.00531" lon="-0.98016">
        <ele>127</ele>
        <time>2022-01-13T12:50:33Z</time>
      </trkpt>
      <trkpt lat="47.00533" lon="-0.98019">
        <ele>127</ele>
        <time>2022-01-13T12:50:36Z</time>
      </trkpt>
      <trkpt lat="47.00537" lon="-0.9802">
        <ele>127</ele>
        <time>2022-01-13T12:50:40Z</time>
      </trkpt>
      <trkpt lat="47.0054" lon="-0.98022">
        <ele>127</ele>
        <time>2022-01-13T12:50:43Z</time>
      </trkpt>
      <trkpt lat="47.00542" lon="-0.98024">
        <ele>127</ele>
        <time>2022-01-13T12:50:47Z</time>
      </trkpt>
      <trkpt lat="47.00545" lon="-0.98026">
        <ele>127</ele>
        <time>2022-01-13T12:50:50Z</time>
      </trkpt>
      <trkpt lat="47.00547" lon="-0.9803">
        <ele>127</ele>
        <time>2022-01-13T12:50:53Z</time>
      </trkpt>
      <trkpt lat="47.00549" lon="-0.98033">
        <ele>127</ele>
        <time>2022-01-13T12:50:57Z</time>
      </trkpt>
      <trkpt lat="47.00551" lon="-0.98036">
        <ele>127</ele>
        <time>2022-01-13T12:51:01Z</time>
      </trkpt>
      <trkpt lat="47.00552" lon="-0.9804">
        <ele>127</ele>
        <time>2022-01-13T12:51:05Z</time>
      </trkpt>
      <trkpt lat="47.00554" lon="-0.98044">
        <ele>128</ele>
        <time>2022-01-13T12:51:10Z</time>
      </trkpt>
      <trkpt lat="47.00556" lon="-0.98047">
        <ele>128</ele>
        <time>2022-01-13T12:51:13Z</time>
      </trkpt>
      <trkpt lat="47.00558" lon="-0.98051">
        <ele>128</ele>
        <time>2022-01-13T12:51:17Z</time>
      </trkpt>
      <trkpt lat="47.00559" lon="-0.98055">
        <ele>128</ele>
        <time>2022-01-13T12:51:20Z</time>
      </trkpt>
      <trkpt lat="47.00561" lon="-0.98059">
        <ele>128</ele>
        <time>2022-01-13T12:51:24Z</time>
      </trkpt>
      <trkpt lat="47.00563" lon="-0.98063">
        <ele>129</ele>
        <time>2022-01-13T12:51:28Z</time>
      </trkpt>
      <trkpt lat="47.00565" lon="-0.98066">
        <ele>128</ele>
        <time>2022-01-13T12:51:32Z</time>
      </trkpt>
      <trkpt lat="47.00567" lon="-0.9807">
        <ele>129</ele>
        <time>2022-01-13T12:51:36Z</time>
      </trkpt>
      <trkpt lat="47.00569" lon="-0.98074">
        <ele>129</ele>
        <time>2022-01-13T12:51:41Z</time>
      </trkpt>
      <trkpt lat="47.00569" lon="-0.98078">
        <ele>128</ele>
        <time>2022-01-13T12:51:47Z</time>
      </trkpt>
      <trkpt lat="47.00571" lon="-0.98081">
        <ele>128</ele>
        <time>2022-01-13T12:51:52Z</time>
      </trkpt>
      <trkpt lat="47.00572" lon="-0.98085">
        <ele>129</ele>
        <time>2022-01-13T12:51:59Z</time>
      </trkpt>
      <trkpt lat="47.00575" lon="-0.98088">
        <ele>129</ele>
        <time>2022-01-13T12:52:02Z</time>
      </trkpt>
      <trkpt lat="47.00577" lon="-0.9809">
        <ele>129</ele>
        <time>2022-01-13T12:52:05Z</time>
      </trkpt>
      <trkpt lat="47.0058" lon="-0.98092">
        <ele>129</ele>
        <time>2022-01-13T12:52:08Z</time>
      </trkpt>
      <trkpt lat="47.00583" lon="-0.98094">
        <ele>129</ele>
        <time>2022-01-13T12:52:12Z</time>
      </trkpt>
      <trkpt lat="47.00587" lon="-0.98095">
        <ele>129</ele>
        <time>2022-01-13T12:52:15Z</time>
      </trkpt>
      <trkpt lat="47.0059" lon="-0.98093">
        <ele>130</ele>
        <time>2022-01-13T12:52:18Z</time>
      </trkpt>
      <trkpt lat="47.00593" lon="-0.98093">
        <ele>129</ele>
        <time>2022-01-13T12:52:22Z</time>
      </trkpt>
      <trkpt lat="47.00595" lon="-0.98095">
        <ele>130</ele>
        <time>2022-01-13T12:52:26Z</time>
      </trkpt>
      <trkpt lat="47.00598" lon="-0.98098">
        <ele>130</ele>
        <time>2022-01-13T12:52:31Z</time>
      </trkpt>
      <trkpt lat="47.006" lon="-0.98101">
        <ele>130</ele>
        <time>2022-01-13T12:52:35Z</time>
      </trkpt>
      <trkpt lat="47.00602" lon="-0.98104">
        <ele>131</ele>
        <time>2022-01-13T12:52:38Z</time>
      </trkpt>
      <trkpt lat="47.00605" lon="-0.98108">
        <ele>131</ele>
        <time>2022-01-13T12:52:41Z</time>
      </trkpt>
      <trkpt lat="47.00607" lon="-0.98108">
        <ele>131</ele>
        <time>2022-01-13T12:52:45Z</time>
      </trkpt>
      <trkpt lat="47.0061" lon="-0.98108">
        <ele>132</ele>
        <time>2022-01-13T12:52:48Z</time>
      </trkpt>
      <trkpt lat="47.00613" lon="-0.98108">
        <ele>131</ele>
        <time>2022-01-13T12:52:53Z</time>
      </trkpt>
      <trkpt lat="47.00616" lon="-0.98109">
        <ele>131</ele>
        <time>2022-01-13T12:52:57Z</time>
      </trkpt>
      <trkpt lat="47.0062" lon="-0.9811">
        <ele>131</ele>
        <time>2022-01-13T12:53:00Z</time>
      </trkpt>
      <trkpt lat="47.00622" lon="-0.98113">
        <ele>131</ele>
        <time>2022-01-13T12:53:02Z</time>
      </trkpt>
      <trkpt lat="47.00625" lon="-0.98115">
        <ele>131</ele>
        <time>2022-01-13T12:53:04Z</time>
      </trkpt>
      <trkpt lat="47.00627" lon="-0.98118">
        <ele>132</ele>
        <time>2022-01-13T12:53:07Z</time>
      </trkpt>
      <trkpt lat="47.0063" lon="-0.9812">
        <ele>132</ele>
        <time>2022-01-13T12:53:11Z</time>
      </trkpt>
      <trkpt lat="47.00634" lon="-0.98122">
        <ele>132</ele>
        <time>2022-01-13T12:53:16Z</time>
      </trkpt>
      <trkpt lat="47.00637" lon="-0.98122">
        <ele>132</ele>
        <time>2022-01-13T12:53:27Z</time>
      </trkpt>
      <trkpt lat="47.0064" lon="-0.98121">
        <ele>132</ele>
        <time>2022-01-13T12:53:53Z</time>
      </trkpt>
      <trkpt lat="47.00643" lon="-0.98121">
        <ele>133</ele>
        <time>2022-01-13T12:53:56Z</time>
      </trkpt>
      <trkpt lat="47.00646" lon="-0.98121">
        <ele>133</ele>
        <time>2022-01-13T12:53:59Z</time>
      </trkpt>
      <trkpt lat="47.00649" lon="-0.98122">
        <ele>133</ele>
        <time>2022-01-13T12:54:02Z</time>
      </trkpt>
      <trkpt lat="47.00652" lon="-0.98125">
        <ele>133</ele>
        <time>2022-01-13T12:54:05Z</time>
      </trkpt>
      <trkpt lat="47.00655" lon="-0.98126">
        <ele>133</ele>
        <time>2022-01-13T12:54:11Z</time>
      </trkpt>
      <trkpt lat="47.00658" lon="-0.98127">
        <ele>133</ele>
        <time>2022-01-13T12:54:15Z</time>
      </trkpt>
      <trkpt lat="47.00662" lon="-0.98127">
        <ele>133</ele>
        <time>2022-01-13T12:54:19Z</time>
      </trkpt>
      <trkpt lat="47.00665" lon="-0.98128">
        <ele>134</ele>
        <time>2022-01-13T12:54:22Z</time>
      </trkpt>
      <trkpt lat="47.00668" lon="-0.98129">
        <ele>134</ele>
        <time>2022-01-13T12:54:25Z</time>
      </trkpt>
      <trkpt lat="47.00671" lon="-0.9813">
        <ele>134</ele>
        <time>2022-01-13T12:54:29Z</time>
      </trkpt>
      <trkpt lat="47.00674" lon="-0.98131">
        <ele>135</ele>
        <time>2022-01-13T12:54:33Z</time>
      </trkpt>
      <trkpt lat="47.00677" lon="-0.98132">
        <ele>135</ele>
        <time>2022-01-13T12:54:36Z</time>
      </trkpt>
      <trkpt lat="47.0068" lon="-0.98133">
        <ele>136</ele>
        <time>2022-01-13T12:54:40Z</time>
      </trkpt>
      <trkpt lat="47.00683" lon="-0.98134">
        <ele>135</ele>
        <time>2022-01-13T12:54:43Z</time>
      </trkpt>
      <trkpt lat="47.00686" lon="-0.98136">
        <ele>136</ele>
        <time>2022-01-13T12:54:46Z</time>
      </trkpt>
      <trkpt lat="47.00688" lon="-0.98137">
        <ele>136</ele>
        <time>2022-01-13T12:54:49Z</time>
      </trkpt>
      <trkpt lat="47.00691" lon="-0.98139">
        <ele>136</ele>
        <time>2022-01-13T12:54:52Z</time>
      </trkpt>
      <trkpt lat="47.00693" lon="-0.98142">
        <ele>136</ele>
        <time>2022-01-13T12:54:55Z</time>
      </trkpt>
      <trkpt lat="47.00696" lon="-0.98144">
        <ele>137</ele>
        <time>2022-01-13T12:55:05Z</time>
      </trkpt>
      <trkpt lat="47.00699" lon="-0.98143">
        <ele>136</ele>
        <time>2022-01-13T12:56:25Z</time>
      </trkpt>
      <trkpt lat="47.00702" lon="-0.98142">
        <ele>137</ele>
        <time>2022-01-13T12:56:28Z</time>
      </trkpt>
      <trkpt lat="47.00705" lon="-0.98139">
        <ele>138</ele>
        <time>2022-01-13T12:56:31Z</time>
      </trkpt>
      <trkpt lat="47.00708" lon="-0.98137">
        <ele>138</ele>
        <time>2022-01-13T12:56:34Z</time>
      </trkpt>
      <trkpt lat="47.00711" lon="-0.98134">
        <ele>138</ele>
        <time>2022-01-13T12:56:37Z</time>
      </trkpt>
      <trkpt lat="47.00714" lon="-0.98132">
        <ele>138</ele>
        <time>2022-01-13T12:56:40Z</time>
      </trkpt>
      <trkpt lat="47.00717" lon="-0.9813">
        <ele>138</ele>
        <time>2022-01-13T12:56:43Z</time>
      </trkpt>
      <trkpt lat="47.0072" lon="-0.98127">
        <ele>137</ele>
        <time>2022-01-13T12:56:46Z</time>
      </trkpt>
      <trkpt lat="47.00723" lon="-0.98125">
        <ele>138</ele>
        <time>2022-01-13T12:56:49Z</time>
      </trkpt>
      <trkpt lat="47.00726" lon="-0.98122">
        <ele>137</ele>
        <time>2022-01-13T12:56:52Z</time>
      </trkpt>
      <trkpt lat="47.00728" lon="-0.98119">
        <ele>138</ele>
        <time>2022-01-13T12:56:56Z</time>
      </trkpt>
      <trkpt lat="47.0073" lon="-0.98115">
        <ele>138</ele>
        <time>2022-01-13T12:56:59Z</time>
      </trkpt>
      <trkpt lat="47.00732" lon="-0.98111">
        <ele>139</ele>
        <time>2022-01-13T12:57:02Z</time>
      </trkpt>
      <trkpt lat="47.00735" lon="-0.98108">
        <ele>139</ele>
        <time>2022-01-13T12:57:05Z</time>
      </trkpt>
      <trkpt lat="47.00737" lon="-0.98105">
        <ele>139</ele>
        <time>2022-01-13T12:57:09Z</time>
      </trkpt>
      <trkpt lat="47.0074" lon="-0.98103">
        <ele>139</ele>
        <time>2022-01-13T12:57:12Z</time>
      </trkpt>
      <trkpt lat="47.00743" lon="-0.98101">
        <ele>140</ele>
        <time>2022-01-13T12:57:15Z</time>
      </trkpt>
      <trkpt lat="47.00745" lon="-0.98098">
        <ele>139</ele>
        <time>2022-01-13T12:57:23Z</time>
      </trkpt>
      <trkpt lat="47.00748" lon="-0.98098">
        <ele>141</ele>
        <time>2022-01-13T12:57:27Z</time>
      </trkpt>
      <trkpt lat="47.00751" lon="-0.98099">
        <ele>139</ele>
        <time>2022-01-13T12:57:30Z</time>
      </trkpt>
      <trkpt lat="47.00753" lon="-0.98101">
        <ele>139</ele>
        <time>2022-01-13T12:57:33Z</time>
      </trkpt>
      <trkpt lat="47.00756" lon="-0.98104">
        <ele>139</ele>
        <time>2022-01-13T12:57:36Z</time>
      </trkpt>
      <trkpt lat="47.00758" lon="-0.98106">
        <ele>140</ele>
        <time>2022-01-13T12:57:40Z</time>
      </trkpt>
      <trkpt lat="47.00761" lon="-0.98107">
        <ele>140</ele>
        <time>2022-01-13T12:57:44Z</time>
      </trkpt>
      <trkpt lat="47.00764" lon="-0.9811">
        <ele>140</ele>
        <time>2022-01-13T12:57:49Z</time>
      </trkpt>
      <trkpt lat="47.00766" lon="-0.98113">
        <ele>141</ele>
        <time>2022-01-13T12:57:53Z</time>
      </trkpt>
      <trkpt lat="47.00768" lon="-0.98117">
        <ele>140</ele>
        <time>2022-01-13T12:57:57Z</time>
      </trkpt>
      <trkpt lat="47.0077" lon="-0.9812">
        <ele>141</ele>
        <time>2022-01-13T12:58:01Z</time>
      </trkpt>
      <trkpt lat="47.00772" lon="-0.98124">
        <ele>141</ele>
        <time>2022-01-13T12:58:04Z</time>
      </trkpt>
      <trkpt lat="47.00773" lon="-0.98128">
        <ele>141</ele>
        <time>2022-01-13T12:58:07Z</time>
      </trkpt>
      <trkpt lat="47.00775" lon="-0.98132">
        <ele>141</ele>
        <time>2022-01-13T12:58:12Z</time>
      </trkpt>
      <trkpt lat="47.00777" lon="-0.98135">
        <ele>142</ele>
        <time>2022-01-13T12:58:16Z</time>
      </trkpt>
      <trkpt lat="47.00779" lon="-0.98136">
        <ele>142</ele>
        <time>2022-01-13T12:58:20Z</time>
      </trkpt>
      <trkpt lat="47.0078" lon="-0.98138">
        <ele>142</ele>
        <time>2022-01-13T12:58:26Z</time>
      </trkpt>
      <trkpt lat="47.00781" lon="-0.98142">
        <ele>143</ele>
        <time>2022-01-13T12:58:35Z</time>
      </trkpt>
      <trkpt lat="47.0078" lon="-0.98147">
        <ele>143</ele>
        <time>2022-01-13T12:58:38Z</time>
      </trkpt>
      <trkpt lat="47.0078" lon="-0.98151">
        <ele>143</ele>
        <time>2022-01-13T12:58:41Z</time>
      </trkpt>
      <trkpt lat="47.00778" lon="-0.98155">
        <ele>143</ele>
        <time>2022-01-13T12:58:45Z</time>
      </trkpt>
      <trkpt lat="47.00778" lon="-0.9816">
        <ele>143</ele>
        <time>2022-01-13T12:58:49Z</time>
      </trkpt>
      <trkpt lat="47.00777" lon="-0.98164">
        <ele>143</ele>
        <time>2022-01-13T12:58:52Z</time>
      </trkpt>
      <trkpt lat="47.00778" lon="-0.98168">
        <ele>143</ele>
        <time>2022-01-13T12:58:57Z</time>
      </trkpt>
      <trkpt lat="47.00778" lon="-0.98172">
        <ele>143</ele>
        <time>2022-01-13T12:59:02Z</time>
      </trkpt>
      <trkpt lat="47.00779" lon="-0.98177">
        <ele>144</ele>
        <time>2022-01-13T12:59:06Z</time>
      </trkpt>
      <trkpt lat="47.00779" lon="-0.98181">
        <ele>144</ele>
        <time>2022-01-13T12:59:10Z</time>
      </trkpt>
      <trkpt lat="47.00779" lon="-0.98186">
        <ele>144</ele>
        <time>2022-01-13T12:59:14Z</time>
      </trkpt>
      <trkpt lat="47.00779" lon="-0.9819">
        <ele>144</ele>
        <time>2022-01-13T12:59:17Z</time>
      </trkpt>
      <trkpt lat="47.00779" lon="-0.98194">
        <ele>144</ele>
        <time>2022-01-13T12:59:20Z</time>
      </trkpt>
      <trkpt lat="47.00779" lon="-0.98199">
        <ele>144</ele>
        <time>2022-01-13T12:59:24Z</time>
      </trkpt>
      <trkpt lat="47.00779" lon="-0.98204">
        <ele>144</ele>
        <time>2022-01-13T12:59:28Z</time>
      </trkpt>
      <trkpt lat="47.00779" lon="-0.98208">
        <ele>144</ele>
        <time>2022-01-13T12:59:31Z</time>
      </trkpt>
      <trkpt lat="47.00778" lon="-0.98213">
        <ele>145</ele>
        <time>2022-01-13T12:59:34Z</time>
      </trkpt>
      <trkpt lat="47.00777" lon="-0.98217">
        <ele>144</ele>
        <time>2022-01-13T12:59:37Z</time>
      </trkpt>
      <trkpt lat="47.00776" lon="-0.98221">
        <ele>144</ele>
        <time>2022-01-13T12:59:40Z</time>
      </trkpt>
      <trkpt lat="47.00775" lon="-0.98225">
        <ele>144</ele>
        <time>2022-01-13T12:59:45Z</time>
      </trkpt>
      <trkpt lat="47.00774" lon="-0.9823">
        <ele>144</ele>
        <time>2022-01-13T12:59:49Z</time>
      </trkpt>
      <trkpt lat="47.00772" lon="-0.98234">
        <ele>143</ele>
        <time>2022-01-13T12:59:52Z</time>
      </trkpt>
      <trkpt lat="47.0077" lon="-0.98238">
        <ele>143</ele>
        <time>2022-01-13T12:59:55Z</time>
      </trkpt>
      <trkpt lat="47.00768" lon="-0.98241">
        <ele>143</ele>
        <time>2022-01-13T12:59:59Z</time>
      </trkpt>
      <trkpt lat="47.00767" lon="-0.98245">
        <ele>143</ele>
        <time>2022-01-13T13:00:02Z</time>
      </trkpt>
      <trkpt lat="47.00765" lon="-0.98249">
        <ele>143</ele>
        <time>2022-01-13T13:00:05Z</time>
      </trkpt>
      <trkpt lat="47.00763" lon="-0.98253">
        <ele>143</ele>
        <time>2022-01-13T13:00:09Z</time>
      </trkpt>
      <trkpt lat="47.00761" lon="-0.98256">
        <ele>143</ele>
        <time>2022-01-13T13:00:13Z</time>
      </trkpt>
      <trkpt lat="47.00759" lon="-0.9826">
        <ele>143</ele>
        <time>2022-01-13T13:00:16Z</time>
      </trkpt>
      <trkpt lat="47.00757" lon="-0.98264">
        <ele>143</ele>
        <time>2022-01-13T13:00:20Z</time>
      </trkpt>
      <trkpt lat="47.00756" lon="-0.98267">
        <ele>142</ele>
        <time>2022-01-13T13:00:25Z</time>
      </trkpt>
      <trkpt lat="47.00753" lon="-0.98269">
        <ele>142</ele>
        <time>2022-01-13T13:00:30Z</time>
      </trkpt>
      <trkpt lat="47.00751" lon="-0.98273">
        <ele>142</ele>
        <time>2022-01-13T13:00:33Z</time>
      </trkpt>
      <trkpt lat="47.00749" lon="-0.98277">
        <ele>141</ele>
        <time>2022-01-13T13:00:36Z</time>
      </trkpt>
      <trkpt lat="47.00746" lon="-0.98281">
        <ele>141</ele>
        <time>2022-01-13T13:00:39Z</time>
      </trkpt>
      <trkpt lat="47.00743" lon="-0.98283">
        <ele>141</ele>
        <time>2022-01-13T13:00:42Z</time>
      </trkpt>
      <trkpt lat="47.0074" lon="-0.98286">
        <ele>141</ele>
        <time>2022-01-13T13:00:45Z</time>
      </trkpt>
      <trkpt lat="47.00739" lon="-0.9829">
        <ele>141</ele>
        <time>2022-01-13T13:00:48Z</time>
      </trkpt>
      <trkpt lat="47.00737" lon="-0.98293">
        <ele>141</ele>
        <time>2022-01-13T13:00:51Z</time>
      </trkpt>
      <trkpt lat="47.00735" lon="-0.98298">
        <ele>141</ele>
        <time>2022-01-13T13:00:55Z</time>
      </trkpt>
      <trkpt lat="47.00734" lon="-0.98302">
        <ele>141</ele>
        <time>2022-01-13T13:00:58Z</time>
      </trkpt>
      <trkpt lat="47.00733" lon="-0.98306">
        <ele>141</ele>
        <time>2022-01-13T13:01:01Z</time>
      </trkpt>
      <trkpt lat="47.00733" lon="-0.9831">
        <ele>141</ele>
        <time>2022-01-13T13:01:06Z</time>
      </trkpt>
      <trkpt lat="47.00731" lon="-0.98314">
        <ele>142</ele>
        <time>2022-01-13T13:01:41Z</time>
      </trkpt>
      <trkpt lat="47.00728" lon="-0.98317">
        <ele>141</ele>
        <time>2022-01-13T13:01:44Z</time>
      </trkpt>
      <trkpt lat="47.00725" lon="-0.98319">
        <ele>141</ele>
        <time>2022-01-13T13:01:47Z</time>
      </trkpt>
      <trkpt lat="47.00722" lon="-0.98322">
        <ele>141</ele>
        <time>2022-01-13T13:01:50Z</time>
      </trkpt>
      <trkpt lat="47.0072" lon="-0.98324">
        <ele>142</ele>
        <time>2022-01-13T13:02:05Z</time>
      </trkpt>
      <trkpt lat="47.00718" lon="-0.98324">
        <ele>142</ele>
        <time>2022-01-13T13:03:34Z</time>
      </trkpt>
      <trkpt lat="47.00715" lon="-0.98325">
        <ele>141</ele>
        <time>2022-01-13T13:06:19Z</time>
      </trkpt>
      <trkpt lat="47.00713" lon="-0.98327">
        <ele>141</ele>
        <time>2022-01-13T13:06:22Z</time>
      </trkpt>
      <trkpt lat="47.00711" lon="-0.9833">
        <ele>141</ele>
        <time>2022-01-13T13:06:25Z</time>
      </trkpt>
      <trkpt lat="47.00709" lon="-0.98333">
        <ele>141</ele>
        <time>2022-01-13T13:06:29Z</time>
      </trkpt>
      <trkpt lat="47.00706" lon="-0.98336">
        <ele>142</ele>
        <time>2022-01-13T13:06:33Z</time>
      </trkpt>
      <trkpt lat="47.00703" lon="-0.98336">
        <ele>142</ele>
        <time>2022-01-13T13:06:38Z</time>
      </trkpt>
      <trkpt lat="47.00701" lon="-0.98338">
        <ele>142</ele>
        <time>2022-01-13T13:06:41Z</time>
      </trkpt>
      <trkpt lat="47.007" lon="-0.98341">
        <ele>142</ele>
        <time>2022-01-13T13:06:45Z</time>
      </trkpt>
      <trkpt lat="47.00699" lon="-0.98345">
        <ele>142</ele>
        <time>2022-01-13T13:06:48Z</time>
      </trkpt>
      <trkpt lat="47.00697" lon="-0.98348">
        <ele>143</ele>
        <time>2022-01-13T13:06:54Z</time>
      </trkpt>
      <trkpt lat="47.00694" lon="-0.98351">
        <ele>143</ele>
        <time>2022-01-13T13:06:59Z</time>
      </trkpt>
      <trkpt lat="47.00692" lon="-0.98354">
        <ele>143</ele>
        <time>2022-01-13T13:07:04Z</time>
      </trkpt>
      <trkpt lat="47.00689" lon="-0.98358">
        <ele>142</ele>
        <time>2022-01-13T13:07:07Z</time>
      </trkpt>
      <trkpt lat="47.00687" lon="-0.98362">
        <ele>142</ele>
        <time>2022-01-13T13:07:10Z</time>
      </trkpt>
      <trkpt lat="47.00685" lon="-0.98366">
        <ele>143</ele>
        <time>2022-01-13T13:07:12Z</time>
      </trkpt>
      <trkpt lat="47.00684" lon="-0.9837">
        <ele>143</ele>
        <time>2022-01-13T13:07:15Z</time>
      </trkpt>
      <trkpt lat="47.00682" lon="-0.98374">
        <ele>143</ele>
        <time>2022-01-13T13:07:18Z</time>
      </trkpt>
      <trkpt lat="47.00681" lon="-0.98378">
        <ele>143</ele>
        <time>2022-01-13T13:07:21Z</time>
      </trkpt>
      <trkpt lat="47.00679" lon="-0.98381">
        <ele>143</ele>
        <time>2022-01-13T13:07:25Z</time>
      </trkpt>
      <trkpt lat="47.00677" lon="-0.98385">
        <ele>143</ele>
        <time>2022-01-13T13:07:30Z</time>
      </trkpt>
      <trkpt lat="47.00675" lon="-0.98388">
        <ele>143</ele>
        <time>2022-01-13T13:07:35Z</time>
      </trkpt>
      <trkpt lat="47.00674" lon="-0.98392">
        <ele>143</ele>
        <time>2022-01-13T13:07:43Z</time>
      </trkpt>
      <trkpt lat="47.00672" lon="-0.98396">
        <ele>143</ele>
        <time>2022-01-13T13:07:46Z</time>
      </trkpt>
      <trkpt lat="47.00669" lon="-0.98399">
        <ele>143</ele>
        <time>2022-01-13T13:07:49Z</time>
      </trkpt>
      <trkpt lat="47.00668" lon="-0.98402">
        <ele>143</ele>
        <time>2022-01-13T13:07:52Z</time>
      </trkpt>
      <trkpt lat="47.00666" lon="-0.98406">
        <ele>143</ele>
        <time>2022-01-13T13:07:54Z</time>
      </trkpt>
      <trkpt lat="47.00664" lon="-0.9841">
        <ele>143</ele>
        <time>2022-01-13T13:07:57Z</time>
      </trkpt>
      <trkpt lat="47.00662" lon="-0.98414">
        <ele>142</ele>
        <time>2022-01-13T13:08:00Z</time>
      </trkpt>
      <trkpt lat="47.00659" lon="-0.98418">
        <ele>142</ele>
        <time>2022-01-13T13:08:03Z</time>
      </trkpt>
      <trkpt lat="47.00657" lon="-0.98421">
        <ele>142</ele>
        <time>2022-01-13T13:08:06Z</time>
      </trkpt>
      <trkpt lat="47.00654" lon="-0.98423">
        <ele>142</ele>
        <time>2022-01-13T13:08:09Z</time>
      </trkpt>
      <trkpt lat="47.00651" lon="-0.98424">
        <ele>142</ele>
        <time>2022-01-13T13:08:12Z</time>
      </trkpt>
      <trkpt lat="47.00647" lon="-0.98425">
        <ele>141</ele>
        <time>2022-01-13T13:08:15Z</time>
      </trkpt>
      <trkpt lat="47.00644" lon="-0.98426">
        <ele>142</ele>
        <time>2022-01-13T13:08:18Z</time>
      </trkpt>
      <trkpt lat="47.0064" lon="-0.98428">
        <ele>141</ele>
        <time>2022-01-13T13:08:21Z</time>
      </trkpt>
      <trkpt lat="47.00637" lon="-0.98428">
        <ele>142</ele>
        <time>2022-01-13T13:08:24Z</time>
      </trkpt>
      <trkpt lat="47.00633" lon="-0.98429">
        <ele>142</ele>
        <time>2022-01-13T13:08:26Z</time>
      </trkpt>
      <trkpt lat="47.00631" lon="-0.98431">
        <ele>142</ele>
        <time>2022-01-13T13:08:28Z</time>
      </trkpt>
      <trkpt lat="47.00628" lon="-0.98432">
        <ele>142</ele>
        <time>2022-01-13T13:08:31Z</time>
      </trkpt>
      <trkpt lat="47.00625" lon="-0.98434">
        <ele>142</ele>
        <time>2022-01-13T13:08:34Z</time>
      </trkpt>
      <trkpt lat="47.00622" lon="-0.98435">
        <ele>141</ele>
        <time>2022-01-13T13:08:38Z</time>
      </trkpt>
      <trkpt lat="47.00619" lon="-0.98437">
        <ele>142</ele>
        <time>2022-01-13T13:08:41Z</time>
      </trkpt>
      <trkpt lat="47.00616" lon="-0.98439">
        <ele>141</ele>
        <time>2022-01-13T13:08:44Z</time>
      </trkpt>
      <trkpt lat="47.00613" lon="-0.98441">
        <ele>142</ele>
        <time>2022-01-13T13:08:48Z</time>
      </trkpt>
      <trkpt lat="47.0061" lon="-0.98442">
        <ele>141</ele>
        <time>2022-01-13T13:08:50Z</time>
      </trkpt>
      <trkpt lat="47.00607" lon="-0.98443">
        <ele>141</ele>
        <time>2022-01-13T13:08:53Z</time>
      </trkpt>
      <trkpt lat="47.00604" lon="-0.98445">
        <ele>140</ele>
        <time>2022-01-13T13:08:57Z</time>
      </trkpt>
      <trkpt lat="47.00601" lon="-0.98446">
        <ele>140</ele>
        <time>2022-01-13T13:09:01Z</time>
      </trkpt>
      <trkpt lat="47.00598" lon="-0.98448">
        <ele>139</ele>
        <time>2022-01-13T13:09:04Z</time>
      </trkpt>
      <trkpt lat="47.00595" lon="-0.9845">
        <ele>140</ele>
        <time>2022-01-13T13:09:07Z</time>
      </trkpt>
      <trkpt lat="47.00593" lon="-0.98453">
        <ele>140</ele>
        <time>2022-01-13T13:09:10Z</time>
      </trkpt>
      <trkpt lat="47.00591" lon="-0.98457">
        <ele>139</ele>
        <time>2022-01-13T13:09:14Z</time>
      </trkpt>
      <trkpt lat="47.00589" lon="-0.98461">
        <ele>139</ele>
        <time>2022-01-13T13:09:17Z</time>
      </trkpt>
      <trkpt lat="47.00587" lon="-0.98463">
        <ele>138</ele>
        <time>2022-01-13T13:09:20Z</time>
      </trkpt>
      <trkpt lat="47.00583" lon="-0.98463">
        <ele>139</ele>
        <time>2022-01-13T13:09:23Z</time>
      </trkpt>
      <trkpt lat="47.0058" lon="-0.98464">
        <ele>138</ele>
        <time>2022-01-13T13:09:26Z</time>
      </trkpt>
      <trkpt lat="47.00577" lon="-0.98465">
        <ele>138</ele>
        <time>2022-01-13T13:09:29Z</time>
      </trkpt>
      <trkpt lat="47.00574" lon="-0.98467">
        <ele>138</ele>
        <time>2022-01-13T13:09:32Z</time>
      </trkpt>
      <trkpt lat="47.00571" lon="-0.98468">
        <ele>137</ele>
        <time>2022-01-13T13:09:35Z</time>
      </trkpt>
      <trkpt lat="47.00569" lon="-0.9847">
        <ele>137</ele>
        <time>2022-01-13T13:09:38Z</time>
      </trkpt>
      <trkpt lat="47.00567" lon="-0.98472">
        <ele>136</ele>
        <time>2022-01-13T13:09:42Z</time>
      </trkpt>
      <trkpt lat="47.00564" lon="-0.98473">
        <ele>135</ele>
        <time>2022-01-13T13:09:46Z</time>
      </trkpt>
      <trkpt lat="47.0056" lon="-0.98472">
        <ele>135</ele>
        <time>2022-01-13T13:09:49Z</time>
      </trkpt>
      <trkpt lat="47.00557" lon="-0.98472">
        <ele>134</ele>
        <time>2022-01-13T13:09:53Z</time>
      </trkpt>
      <trkpt lat="47.00554" lon="-0.9847">
        <ele>135</ele>
        <time>2022-01-13T13:09:56Z</time>
      </trkpt>
      <trkpt lat="47.00551" lon="-0.98472">
        <ele>134</ele>
        <time>2022-01-13T13:10:01Z</time>
      </trkpt>
      <trkpt lat="47.0055" lon="-0.98476">
        <ele>133</ele>
        <time>2022-01-13T13:10:04Z</time>
      </trkpt>
      <trkpt lat="47.00548" lon="-0.98479">
        <ele>133</ele>
        <time>2022-01-13T13:10:09Z</time>
      </trkpt>
      <trkpt lat="47.00547" lon="-0.98484">
        <ele>133</ele>
        <time>2022-01-13T13:10:13Z</time>
      </trkpt>
      <trkpt lat="47.00545" lon="-0.98488">
        <ele>132</ele>
        <time>2022-01-13T13:10:15Z</time>
      </trkpt>
      <trkpt lat="47.00543" lon="-0.98491">
        <ele>132</ele>
        <time>2022-01-13T13:10:17Z</time>
      </trkpt>
      <trkpt lat="47.00541" lon="-0.98495">
        <ele>132</ele>
        <time>2022-01-13T13:10:20Z</time>
      </trkpt>
      <trkpt lat="47.00539" lon="-0.98498">
        <ele>131</ele>
        <time>2022-01-13T13:10:23Z</time>
      </trkpt>
      <trkpt lat="47.00536" lon="-0.985">
        <ele>131</ele>
        <time>2022-01-13T13:10:27Z</time>
      </trkpt>
      <trkpt lat="47.00534" lon="-0.98503">
        <ele>131</ele>
        <time>2022-01-13T13:10:31Z</time>
      </trkpt>
      <trkpt lat="47.00531" lon="-0.98506">
        <ele>130</ele>
        <time>2022-01-13T13:10:39Z</time>
      </trkpt>
      <trkpt lat="47.00528" lon="-0.98508">
        <ele>129</ele>
        <time>2022-01-13T13:10:50Z</time>
      </trkpt>
      <trkpt lat="47.00525" lon="-0.98508">
        <ele>129</ele>
        <time>2022-01-13T13:10:53Z</time>
      </trkpt>
      <trkpt lat="47.00522" lon="-0.98508">
        <ele>129</ele>
        <time>2022-01-13T13:10:57Z</time>
      </trkpt>
      <trkpt lat="47.00519" lon="-0.98508">
        <ele>130</ele>
        <time>2022-01-13T13:11:04Z</time>
      </trkpt>
      <trkpt lat="47.00516" lon="-0.98505">
        <ele>130</ele>
        <time>2022-01-13T13:11:07Z</time>
      </trkpt>
      <trkpt lat="47.00515" lon="-0.98502">
        <ele>130</ele>
        <time>2022-01-13T13:11:10Z</time>
      </trkpt>
      <trkpt lat="47.00514" lon="-0.98498">
        <ele>130</ele>
        <time>2022-01-13T13:11:13Z</time>
      </trkpt>
      <trkpt lat="47.00512" lon="-0.98495">
        <ele>130</ele>
        <time>2022-01-13T13:11:15Z</time>
      </trkpt>
      <trkpt lat="47.00512" lon="-0.98491">
        <ele>130</ele>
        <time>2022-01-13T13:11:20Z</time>
      </trkpt>
      <trkpt lat="47.00511" lon="-0.98486">
        <ele>130</ele>
        <time>2022-01-13T13:11:23Z</time>
      </trkpt>
      <trkpt lat="47.00509" lon="-0.98481">
        <ele>130</ele>
        <time>2022-01-13T13:11:26Z</time>
      </trkpt>
      <trkpt lat="47.00508" lon="-0.98476">
        <ele>130</ele>
        <time>2022-01-13T13:11:29Z</time>
      </trkpt>
      <trkpt lat="47.00507" lon="-0.98471">
        <ele>130</ele>
        <time>2022-01-13T13:11:32Z</time>
      </trkpt>
      <trkpt lat="47.00507" lon="-0.98466">
        <ele>129</ele>
        <time>2022-01-13T13:11:35Z</time>
      </trkpt>
      <trkpt lat="47.00506" lon="-0.98461">
        <ele>130</ele>
        <time>2022-01-13T13:11:40Z</time>
      </trkpt>
      <trkpt lat="47.00504" lon="-0.98457">
        <ele>130</ele>
        <time>2022-01-13T13:11:44Z</time>
      </trkpt>
      <trkpt lat="47.00503" lon="-0.98453">
        <ele>130</ele>
        <time>2022-01-13T13:11:47Z</time>
      </trkpt>
      <trkpt lat="47.00501" lon="-0.9845">
        <ele>130</ele>
        <time>2022-01-13T13:11:50Z</time>
      </trkpt>
      <trkpt lat="47.00499" lon="-0.98446">
        <ele>131</ele>
        <time>2022-01-13T13:11:53Z</time>
      </trkpt>
      <trkpt lat="47.00497" lon="-0.98442">
        <ele>130</ele>
        <time>2022-01-13T13:11:56Z</time>
      </trkpt>
      <trkpt lat="47.00496" lon="-0.98437">
        <ele>130</ele>
        <time>2022-01-13T13:11:59Z</time>
      </trkpt>
      <trkpt lat="47.00495" lon="-0.98433">
        <ele>130</ele>
        <time>2022-01-13T13:12:02Z</time>
      </trkpt>
      <trkpt lat="47.00494" lon="-0.98429">
        <ele>131</ele>
        <time>2022-01-13T13:12:05Z</time>
      </trkpt>
      <trkpt lat="47.00493" lon="-0.98424">
        <ele>131</ele>
        <time>2022-01-13T13:12:08Z</time>
      </trkpt>
      <trkpt lat="47.00492" lon="-0.9842">
        <ele>130</ele>
        <time>2022-01-13T13:12:12Z</time>
      </trkpt>
      <trkpt lat="47.00491" lon="-0.98415">
        <ele>129</ele>
        <time>2022-01-13T13:12:15Z</time>
      </trkpt>
      <trkpt lat="47.00491" lon="-0.9841">
        <ele>130</ele>
        <time>2022-01-13T13:12:18Z</time>
      </trkpt>
      <trkpt lat="47.0049" lon="-0.98405">
        <ele>130</ele>
        <time>2022-01-13T13:12:21Z</time>
      </trkpt>
      <trkpt lat="47.0049" lon="-0.984">
        <ele>130</ele>
        <time>2022-01-13T13:12:24Z</time>
      </trkpt>
      <trkpt lat="47.0049" lon="-0.98395">
        <ele>130</ele>
        <time>2022-01-13T13:12:27Z</time>
      </trkpt>
      <trkpt lat="47.00489" lon="-0.9839">
        <ele>129</ele>
        <time>2022-01-13T13:12:31Z</time>
      </trkpt>
      <trkpt lat="47.00488" lon="-0.98386">
        <ele>130</ele>
        <time>2022-01-13T13:12:36Z</time>
      </trkpt>
      <trkpt lat="47.00488" lon="-0.98381">
        <ele>130</ele>
        <time>2022-01-13T13:12:40Z</time>
      </trkpt>
      <trkpt lat="47.00486" lon="-0.98376">
        <ele>130</ele>
        <time>2022-01-13T13:12:43Z</time>
      </trkpt>
      <trkpt lat="47.00485" lon="-0.98372">
        <ele>129</ele>
        <time>2022-01-13T13:12:46Z</time>
      </trkpt>
      <trkpt lat="47.00484" lon="-0.98368">
        <ele>130</ele>
        <time>2022-01-13T13:12:50Z</time>
      </trkpt>
      <trkpt lat="47.00482" lon="-0.98364">
        <ele>130</ele>
        <time>2022-01-13T13:12:52Z</time>
      </trkpt>
      <trkpt lat="47.00481" lon="-0.9836">
        <ele>130</ele>
        <time>2022-01-13T13:12:55Z</time>
      </trkpt>
      <trkpt lat="47.00481" lon="-0.98355">
        <ele>130</ele>
        <time>2022-01-13T13:12:58Z</time>
      </trkpt>
      <trkpt lat="47.0048" lon="-0.98351">
        <ele>129</ele>
        <time>2022-01-13T13:13:01Z</time>
      </trkpt>
      <trkpt lat="47.00479" lon="-0.98346">
        <ele>129</ele>
        <time>2022-01-13T13:13:04Z</time>
      </trkpt>
      <trkpt lat="47.00478" lon="-0.98342">
        <ele>129</ele>
        <time>2022-01-13T13:13:07Z</time>
      </trkpt>
      <trkpt lat="47.00477" lon="-0.98337">
        <ele>128</ele>
        <time>2022-01-13T13:13:10Z</time>
      </trkpt>
      <trkpt lat="47.00476" lon="-0.98333">
        <ele>128</ele>
        <time>2022-01-13T13:13:14Z</time>
      </trkpt>
      <trkpt lat="47.00475" lon="-0.98328">
        <ele>128</ele>
        <time>2022-01-13T13:13:17Z</time>
      </trkpt>
      <trkpt lat="47.00475" lon="-0.98324">
        <ele>128</ele>
        <time>2022-01-13T13:13:20Z</time>
      </trkpt>
      <trkpt lat="47.00473" lon="-0.98319">
        <ele>128</ele>
        <time>2022-01-13T13:13:23Z</time>
      </trkpt>
      <trkpt lat="47.00472" lon="-0.98316">
        <ele>128</ele>
        <time>2022-01-13T13:13:25Z</time>
      </trkpt>
      <trkpt lat="47.0047" lon="-0.98311">
        <ele>128</ele>
        <time>2022-01-13T13:13:28Z</time>
      </trkpt>
      <trkpt lat="47.00469" lon="-0.98307">
        <ele>128</ele>
        <time>2022-01-13T13:13:31Z</time>
      </trkpt>
      <trkpt lat="47.00468" lon="-0.98302">
        <ele>128</ele>
        <time>2022-01-13T13:13:34Z</time>
      </trkpt>
      <trkpt lat="47.00467" lon="-0.98297">
        <ele>128</ele>
        <time>2022-01-13T13:13:37Z</time>
      </trkpt>
      <trkpt lat="47.00466" lon="-0.98292">
        <ele>128</ele>
        <time>2022-01-13T13:13:41Z</time>
      </trkpt>
      <trkpt lat="47.00464" lon="-0.98289">
        <ele>128</ele>
        <time>2022-01-13T13:13:44Z</time>
      </trkpt>
      <trkpt lat="47.00463" lon="-0.98285">
        <ele>127</ele>
        <time>2022-01-13T13:13:47Z</time>
      </trkpt>
      <trkpt lat="47.00461" lon="-0.98281">
        <ele>127</ele>
        <time>2022-01-13T13:13:50Z</time>
      </trkpt>
      <trkpt lat="47.0046" lon="-0.98277">
        <ele>128</ele>
        <time>2022-01-13T13:13:53Z</time>
      </trkpt>
      <trkpt lat="47.00458" lon="-0.98274">
        <ele>128</ele>
        <time>2022-01-13T13:13:56Z</time>
      </trkpt>
      <trkpt lat="47.00457" lon="-0.9827">
        <ele>127</ele>
        <time>2022-01-13T13:13:58Z</time>
      </trkpt>
      <trkpt lat="47.00455" lon="-0.98267">
        <ele>127</ele>
        <time>2022-01-13T13:14:00Z</time>
      </trkpt>
      <trkpt lat="47.00453" lon="-0.98264">
        <ele>128</ele>
        <time>2022-01-13T13:14:03Z</time>
      </trkpt>
      <trkpt lat="47.00451" lon="-0.98261">
        <ele>128</ele>
        <time>2022-01-13T13:14:06Z</time>
      </trkpt>
      <trkpt lat="47.00449" lon="-0.98257">
        <ele>128</ele>
        <time>2022-01-13T13:14:09Z</time>
      </trkpt>
      <trkpt lat="47.00446" lon="-0.98254">
        <ele>127</ele>
        <time>2022-01-13T13:14:12Z</time>
      </trkpt>
      <trkpt lat="47.00444" lon="-0.98251">
        <ele>127</ele>
        <time>2022-01-13T13:14:15Z</time>
      </trkpt>
      <trkpt lat="47.00441" lon="-0.98247">
        <ele>127</ele>
        <time>2022-01-13T13:14:18Z</time>
      </trkpt>
      <trkpt lat="47.00439" lon="-0.98244">
        <ele>126</ele>
        <time>2022-01-13T13:14:21Z</time>
      </trkpt>
      <trkpt lat="47.00437" lon="-0.98241">
        <ele>127</ele>
        <time>2022-01-13T13:14:24Z</time>
      </trkpt>
      <trkpt lat="47.00436" lon="-0.98238">
        <ele>127</ele>
        <time>2022-01-13T13:14:27Z</time>
      </trkpt>
      <trkpt lat="47.00434" lon="-0.98234">
        <ele>127</ele>
        <time>2022-01-13T13:14:30Z</time>
      </trkpt>
      <trkpt lat="47.00432" lon="-0.9823">
        <ele>127</ele>
        <time>2022-01-13T13:14:33Z</time>
      </trkpt>
      <trkpt lat="47.0043" lon="-0.98227">
        <ele>128</ele>
        <time>2022-01-13T13:14:36Z</time>
      </trkpt>
      <trkpt lat="47.00428" lon="-0.98223">
        <ele>127</ele>
        <time>2022-01-13T13:14:39Z</time>
      </trkpt>
      <trkpt lat="47.00426" lon="-0.9822">
        <ele>127</ele>
        <time>2022-01-13T13:14:42Z</time>
      </trkpt>
      <trkpt lat="47.00424" lon="-0.98217">
        <ele>127</ele>
        <time>2022-01-13T13:14:45Z</time>
      </trkpt>
      <trkpt lat="47.00422" lon="-0.98213">
        <ele>126</ele>
        <time>2022-01-13T13:14:49Z</time>
      </trkpt>
      <trkpt lat="47.0042" lon="-0.9821">
        <ele>126</ele>
        <time>2022-01-13T13:14:52Z</time>
      </trkpt>
      <trkpt lat="47.00418" lon="-0.98206">
        <ele>126</ele>
        <time>2022-01-13T13:14:55Z</time>
      </trkpt>
      <trkpt lat="47.00416" lon="-0.98203">
        <ele>127</ele>
        <time>2022-01-13T13:14:58Z</time>
      </trkpt>
      <trkpt lat="47.00414" lon="-0.982">
        <ele>127</ele>
        <time>2022-01-13T13:15:01Z</time>
      </trkpt>
      <trkpt lat="47.00412" lon="-0.98196">
        <ele>127</ele>
        <time>2022-01-13T13:15:04Z</time>
      </trkpt>
      <trkpt lat="47.00409" lon="-0.98192">
        <ele>127</ele>
        <time>2022-01-13T13:15:06Z</time>
      </trkpt>
      <trkpt lat="47.00407" lon="-0.98189">
        <ele>127</ele>
        <time>2022-01-13T13:15:09Z</time>
      </trkpt>
      <trkpt lat="47.00405" lon="-0.98186">
        <ele>127</ele>
        <time>2022-01-13T13:15:11Z</time>
      </trkpt>
      <trkpt lat="47.00403" lon="-0.98182">
        <ele>127</ele>
        <time>2022-01-13T13:15:14Z</time>
      </trkpt>
      <trkpt lat="47.00402" lon="-0.98179">
        <ele>126</ele>
        <time>2022-01-13T13:15:17Z</time>
      </trkpt>
      <trkpt lat="47.004" lon="-0.98175">
        <ele>127</ele>
        <time>2022-01-13T13:15:21Z</time>
      </trkpt>
      <trkpt lat="47.00398" lon="-0.98171">
        <ele>126</ele>
        <time>2022-01-13T13:15:24Z</time>
      </trkpt>
      <trkpt lat="47.00395" lon="-0.98168">
        <ele>126</ele>
        <time>2022-01-13T13:15:27Z</time>
      </trkpt>
      <trkpt lat="47.00393" lon="-0.98164">
        <ele>126</ele>
        <time>2022-01-13T13:15:32Z</time>
      </trkpt>
      <trkpt lat="47.0039" lon="-0.98161">
        <ele>126</ele>
        <time>2022-01-13T13:15:36Z</time>
      </trkpt>
      <trkpt lat="47.00388" lon="-0.98159">
        <ele>127</ele>
        <time>2022-01-13T13:15:39Z</time>
      </trkpt>
      <trkpt lat="47.00385" lon="-0.98158">
        <ele>126</ele>
        <time>2022-01-13T13:15:43Z</time>
      </trkpt>
      <trkpt lat="47.00381" lon="-0.98157">
        <ele>126</ele>
        <time>2022-01-13T13:15:47Z</time>
      </trkpt>
      <trkpt lat="47.00379" lon="-0.98158">
        <ele>126</ele>
        <time>2022-01-13T13:15:50Z</time>
      </trkpt>
      <trkpt lat="47.00375" lon="-0.9816">
        <ele>127</ele>
        <time>2022-01-13T13:15:54Z</time>
      </trkpt>
      <trkpt lat="47.00373" lon="-0.98162">
        <ele>127</ele>
        <time>2022-01-13T13:15:57Z</time>
      </trkpt>
      <trkpt lat="47.0037" lon="-0.98163">
        <ele>127</ele>
        <time>2022-01-13T13:16:00Z</time>
      </trkpt>
      <trkpt lat="47.00367" lon="-0.98164">
        <ele>127</ele>
        <time>2022-01-13T13:16:04Z</time>
      </trkpt>
      <trkpt lat="47.00364" lon="-0.98164">
        <ele>127</ele>
        <time>2022-01-13T13:16:07Z</time>
      </trkpt>
      <trkpt lat="47.00361" lon="-0.98164">
        <ele>126</ele>
        <time>2022-01-13T13:16:10Z</time>
      </trkpt>
      <trkpt lat="47.00358" lon="-0.98165">
        <ele>127</ele>
        <time>2022-01-13T13:16:14Z</time>
      </trkpt>
      <trkpt lat="47.00355" lon="-0.98166">
        <ele>126</ele>
        <time>2022-01-13T13:16:18Z</time>
      </trkpt>
      <trkpt lat="47.00352" lon="-0.98168">
        <ele>126</ele>
        <time>2022-01-13T13:16:21Z</time>
      </trkpt>
      <trkpt lat="47.00349" lon="-0.98169">
        <ele>126</ele>
        <time>2022-01-13T13:16:24Z</time>
      </trkpt>
      <trkpt lat="47.00347" lon="-0.9817">
        <ele>126</ele>
        <time>2022-01-13T13:16:27Z</time>
      </trkpt>
      <trkpt lat="47.00344" lon="-0.98171">
        <ele>126</ele>
        <time>2022-01-13T13:16:30Z</time>
      </trkpt>
      <trkpt lat="47.0034" lon="-0.98172">
        <ele>126</ele>
        <time>2022-01-13T13:16:33Z</time>
      </trkpt>
      <trkpt lat="47.00336" lon="-0.98173">
        <ele>126</ele>
        <time>2022-01-13T13:16:36Z</time>
      </trkpt>
      <trkpt lat="47.00333" lon="-0.98174">
        <ele>127</ele>
        <time>2022-01-13T13:16:39Z</time>
      </trkpt>
      <trkpt lat="47.0033" lon="-0.98174">
        <ele>126</ele>
        <time>2022-01-13T13:16:42Z</time>
      </trkpt>
      <trkpt lat="47.00327" lon="-0.98176">
        <ele>126</ele>
        <time>2022-01-13T13:16:46Z</time>
      </trkpt>
      <trkpt lat="47.00325" lon="-0.98179">
        <ele>126</ele>
        <time>2022-01-13T13:16:50Z</time>
      </trkpt>
      <trkpt lat="47.00322" lon="-0.98181">
        <ele>127</ele>
        <time>2022-01-13T13:16:54Z</time>
      </trkpt>
      <trkpt lat="47.00319" lon="-0.98182">
        <ele>126</ele>
        <time>2022-01-13T13:16:57Z</time>
      </trkpt>
      <trkpt lat="47.00316" lon="-0.98184">
        <ele>126</ele>
        <time>2022-01-13T13:17:00Z</time>
      </trkpt>
      <trkpt lat="47.00314" lon="-0.98186">
        <ele>126</ele>
        <time>2022-01-13T13:17:03Z</time>
      </trkpt>
      <trkpt lat="47.00312" lon="-0.98189">
        <ele>126</ele>
        <time>2022-01-13T13:17:06Z</time>
      </trkpt>
      <trkpt lat="47.0031" lon="-0.98193">
        <ele>125</ele>
        <time>2022-01-13T13:17:09Z</time>
      </trkpt>
      <trkpt lat="47.00309" lon="-0.98198">
        <ele>125</ele>
        <time>2022-01-13T13:17:12Z</time>
      </trkpt>
      <trkpt lat="47.00308" lon="-0.98202">
        <ele>125</ele>
        <time>2022-01-13T13:17:15Z</time>
      </trkpt>
      <trkpt lat="47.00308" lon="-0.98206">
        <ele>125</ele>
        <time>2022-01-13T13:17:18Z</time>
      </trkpt>
      <trkpt lat="47.00308" lon="-0.98211">
        <ele>125</ele>
        <time>2022-01-13T13:17:21Z</time>
      </trkpt>
      <trkpt lat="47.00307" lon="-0.98216">
        <ele>125</ele>
        <time>2022-01-13T13:17:25Z</time>
      </trkpt>
      <trkpt lat="47.00306" lon="-0.9822">
        <ele>125</ele>
        <time>2022-01-13T13:17:28Z</time>
      </trkpt>
      <trkpt lat="47.00306" lon="-0.98225">
        <ele>124</ele>
        <time>2022-01-13T13:17:33Z</time>
      </trkpt>
      <trkpt lat="47.00306" lon="-0.9823">
        <ele>124</ele>
        <time>2022-01-13T13:17:36Z</time>
      </trkpt>
      <trkpt lat="47.00306" lon="-0.98235">
        <ele>124</ele>
        <time>2022-01-13T13:17:39Z</time>
      </trkpt>
      <trkpt lat="47.00306" lon="-0.9824">
        <ele>124</ele>
        <time>2022-01-13T13:17:42Z</time>
      </trkpt>
      <trkpt lat="47.00305" lon="-0.98244">
        <ele>124</ele>
        <time>2022-01-13T13:17:45Z</time>
      </trkpt>
      <trkpt lat="47.00305" lon="-0.98249">
        <ele>124</ele>
        <time>2022-01-13T13:17:47Z</time>
      </trkpt>
      <trkpt lat="47.00303" lon="-0.98253">
        <ele>123</ele>
        <time>2022-01-13T13:17:50Z</time>
      </trkpt>
      <trkpt lat="47.00302" lon="-0.98258">
        <ele>123</ele>
        <time>2022-01-13T13:17:53Z</time>
      </trkpt>
      <trkpt lat="47.00299" lon="-0.98261">
        <ele>124</ele>
        <time>2022-01-13T13:17:56Z</time>
      </trkpt>
      <trkpt lat="47.00297" lon="-0.98265">
        <ele>124</ele>
        <time>2022-01-13T13:17:58Z</time>
      </trkpt>
      <trkpt lat="47.00295" lon="-0.98268">
        <ele>124</ele>
        <time>2022-01-13T13:18:01Z</time>
      </trkpt>
      <trkpt lat="47.00292" lon="-0.98271">
        <ele>124</ele>
        <time>2022-01-13T13:18:04Z</time>
      </trkpt>
      <trkpt lat="47.00289" lon="-0.98273">
        <ele>124</ele>
        <time>2022-01-13T13:18:07Z</time>
      </trkpt>
      <trkpt lat="47.00285" lon="-0.98273">
        <ele>124</ele>
        <time>2022-01-13T13:18:10Z</time>
      </trkpt>
      <trkpt lat="47.00281" lon="-0.98273">
        <ele>123</ele>
        <time>2022-01-13T13:18:13Z</time>
      </trkpt>
      <trkpt lat="47.00278" lon="-0.98273">
        <ele>123</ele>
        <time>2022-01-13T13:18:16Z</time>
      </trkpt>
      <trkpt lat="47.00274" lon="-0.98274">
        <ele>123</ele>
        <time>2022-01-13T13:18:19Z</time>
      </trkpt>
      <trkpt lat="47.00271" lon="-0.98276">
        <ele>123</ele>
        <time>2022-01-13T13:18:22Z</time>
      </trkpt>
      <trkpt lat="47.00267" lon="-0.98278">
        <ele>123</ele>
        <time>2022-01-13T13:18:25Z</time>
      </trkpt>
      <trkpt lat="47.00264" lon="-0.98278">
        <ele>123</ele>
        <time>2022-01-13T13:18:28Z</time>
      </trkpt>
      <trkpt lat="47.00261" lon="-0.98278">
        <ele>122</ele>
        <time>2022-01-13T13:18:31Z</time>
      </trkpt>
      <trkpt lat="47.00257" lon="-0.98278">
        <ele>122</ele>
        <time>2022-01-13T13:18:34Z</time>
      </trkpt>
      <trkpt lat="47.00254" lon="-0.98279">
        <ele>123</ele>
        <time>2022-01-13T13:18:38Z</time>
      </trkpt>
      <trkpt lat="47.00251" lon="-0.98279">
        <ele>122</ele>
        <time>2022-01-13T13:18:41Z</time>
      </trkpt>
      <trkpt lat="47.00247" lon="-0.9828">
        <ele>122</ele>
        <time>2022-01-13T13:18:44Z</time>
      </trkpt>
      <trkpt lat="47.00244" lon="-0.9828">
        <ele>122</ele>
        <time>2022-01-13T13:18:47Z</time>
      </trkpt>
      <trkpt lat="47.00241" lon="-0.9828">
        <ele>122</ele>
        <time>2022-01-13T13:18:50Z</time>
      </trkpt>
      <trkpt lat="47.00238" lon="-0.98281">
        <ele>122</ele>
        <time>2022-01-13T13:18:53Z</time>
      </trkpt>
      <trkpt lat="47.00234" lon="-0.98282">
        <ele>122</ele>
        <time>2022-01-13T13:18:56Z</time>
      </trkpt>
      <trkpt lat="47.00231" lon="-0.98282">
        <ele>122</ele>
        <time>2022-01-13T13:18:59Z</time>
      </trkpt>
      <trkpt lat="47.00227" lon="-0.98282">
        <ele>121</ele>
        <time>2022-01-13T13:19:02Z</time>
      </trkpt>
      <trkpt lat="47.00224" lon="-0.98283">
        <ele>122</ele>
        <time>2022-01-13T13:19:05Z</time>
      </trkpt>
      <trkpt lat="47.00222" lon="-0.98284">
        <ele>121</ele>
        <time>2022-01-13T13:19:08Z</time>
      </trkpt>
      <trkpt lat="47.00219" lon="-0.98286">
        <ele>121</ele>
        <time>2022-01-13T13:19:11Z</time>
      </trkpt>
      <trkpt lat="47.00216" lon="-0.98288">
        <ele>122</ele>
        <time>2022-01-13T13:19:14Z</time>
      </trkpt>
      <trkpt lat="47.00213" lon="-0.98291">
        <ele>122</ele>
        <time>2022-01-13T13:19:17Z</time>
      </trkpt>
      <trkpt lat="47.0021" lon="-0.98293">
        <ele>122</ele>
        <time>2022-01-13T13:19:20Z</time>
      </trkpt>
      <trkpt lat="47.00207" lon="-0.98293">
        <ele>121</ele>
        <time>2022-01-13T13:19:23Z</time>
      </trkpt>
      <trkpt lat="47.00204" lon="-0.98294">
        <ele>121</ele>
        <time>2022-01-13T13:19:26Z</time>
      </trkpt>
      <trkpt lat="47.00202" lon="-0.98296">
        <ele>120</ele>
        <time>2022-01-13T13:19:29Z</time>
      </trkpt>
      <trkpt lat="47.00199" lon="-0.98298">
        <ele>121</ele>
        <time>2022-01-13T13:19:32Z</time>
      </trkpt>
      <trkpt lat="47.00196" lon="-0.98299">
        <ele>121</ele>
        <time>2022-01-13T13:19:35Z</time>
      </trkpt>
      <trkpt lat="47.00192" lon="-0.983">
        <ele>121</ele>
        <time>2022-01-13T13:19:38Z</time>
      </trkpt>
      <trkpt lat="47.00189" lon="-0.983">
        <ele>120</ele>
        <time>2022-01-13T13:19:41Z</time>
      </trkpt>
      <trkpt lat="47.00186" lon="-0.98301">
        <ele>120</ele>
        <time>2022-01-13T13:19:44Z</time>
      </trkpt>
      <trkpt lat="47.00182" lon="-0.98301">
        <ele>120</ele>
        <time>2022-01-13T13:19:47Z</time>
      </trkpt>
      <trkpt lat="47.00179" lon="-0.98303">
        <ele>120</ele>
        <time>2022-01-13T13:19:51Z</time>
      </trkpt>
      <trkpt lat="47.00176" lon="-0.98305">
        <ele>120</ele>
        <time>2022-01-13T13:19:54Z</time>
      </trkpt>
      <trkpt lat="47.00173" lon="-0.98306">
        <ele>120</ele>
        <time>2022-01-13T13:19:57Z</time>
      </trkpt>
      <trkpt lat="47.0017" lon="-0.98306">
        <ele>119</ele>
        <time>2022-01-13T13:20:00Z</time>
      </trkpt>
      <trkpt lat="47.00166" lon="-0.98307">
        <ele>119</ele>
        <time>2022-01-13T13:20:03Z</time>
      </trkpt>
      <trkpt lat="47.00163" lon="-0.98308">
        <ele>119</ele>
        <time>2022-01-13T13:20:07Z</time>
      </trkpt>
      <trkpt lat="47.0016" lon="-0.98309">
        <ele>118</ele>
        <time>2022-01-13T13:20:10Z</time>
      </trkpt>
      <trkpt lat="47.00157" lon="-0.9831">
        <ele>118</ele>
        <time>2022-01-13T13:20:14Z</time>
      </trkpt>
      <trkpt lat="47.00154" lon="-0.98311">
        <ele>117</ele>
        <time>2022-01-13T13:20:17Z</time>
      </trkpt>
      <trkpt lat="47.00151" lon="-0.98313">
        <ele>117</ele>
        <time>2022-01-13T13:20:21Z</time>
      </trkpt>
      <trkpt lat="47.00148" lon="-0.98314">
        <ele>117</ele>
        <time>2022-01-13T13:20:24Z</time>
      </trkpt>
      <trkpt lat="47.00145" lon="-0.98316">
        <ele>116</ele>
        <time>2022-01-13T13:20:27Z</time>
      </trkpt>
      <trkpt lat="47.00142" lon="-0.98317">
        <ele>116</ele>
        <time>2022-01-13T13:20:30Z</time>
      </trkpt>
      <trkpt lat="47.00139" lon="-0.98317">
        <ele>116</ele>
        <time>2022-01-13T13:20:34Z</time>
      </trkpt>
      <trkpt lat="47.00135" lon="-0.98318">
        <ele>115</ele>
        <time>2022-01-13T13:20:37Z</time>
      </trkpt>
      <trkpt lat="47.00132" lon="-0.98318">
        <ele>115</ele>
        <time>2022-01-13T13:20:41Z</time>
      </trkpt>
      <trkpt lat="47.00129" lon="-0.98318">
        <ele>115</ele>
        <time>2022-01-13T13:20:44Z</time>
      </trkpt>
      <trkpt lat="47.00126" lon="-0.98318">
        <ele>115</ele>
        <time>2022-01-13T13:20:47Z</time>
      </trkpt>
      <trkpt lat="47.00122" lon="-0.98318">
        <ele>114</ele>
        <time>2022-01-13T13:20:51Z</time>
      </trkpt>
      <trkpt lat="47.00119" lon="-0.98317">
        <ele>114</ele>
        <time>2022-01-13T13:20:54Z</time>
      </trkpt>
      <trkpt lat="47.00115" lon="-0.98316">
        <ele>113</ele>
        <time>2022-01-13T13:20:57Z</time>
      </trkpt>
      <trkpt lat="47.00112" lon="-0.98315">
        <ele>112</ele>
        <time>2022-01-13T13:21:00Z</time>
      </trkpt>
      <trkpt lat="47.00108" lon="-0.98314">
        <ele>112</ele>
        <time>2022-01-13T13:21:03Z</time>
      </trkpt>
      <trkpt lat="47.00105" lon="-0.98314">
        <ele>112</ele>
        <time>2022-01-13T13:21:06Z</time>
      </trkpt>
      <trkpt lat="47.00102" lon="-0.98313">
        <ele>112</ele>
        <time>2022-01-13T13:21:09Z</time>
      </trkpt>
      <trkpt lat="47.00099" lon="-0.98313">
        <ele>111</ele>
        <time>2022-01-13T13:21:12Z</time>
      </trkpt>
      <trkpt lat="47.00096" lon="-0.98313">
        <ele>111</ele>
        <time>2022-01-13T13:21:15Z</time>
      </trkpt>
      <trkpt lat="47.00093" lon="-0.98312">
        <ele>110</ele>
        <time>2022-01-13T13:21:19Z</time>
      </trkpt>
      <trkpt lat="47.0009" lon="-0.98311">
        <ele>110</ele>
        <time>2022-01-13T13:21:22Z</time>
      </trkpt>
      <trkpt lat="47.00087" lon="-0.98311">
        <ele>110</ele>
        <time>2022-01-13T13:21:25Z</time>
      </trkpt>
      <trkpt lat="47.00084" lon="-0.9831">
        <ele>110</ele>
        <time>2022-01-13T13:21:28Z</time>
      </trkpt>
      <trkpt lat="47.00081" lon="-0.98309">
        <ele>110</ele>
        <time>2022-01-13T13:21:31Z</time>
      </trkpt>
      <trkpt lat="47.00078" lon="-0.98307">
        <ele>109</ele>
        <time>2022-01-13T13:21:34Z</time>
      </trkpt>
      <trkpt lat="47.00076" lon="-0.98306">
        <ele>109</ele>
        <time>2022-01-13T13:21:37Z</time>
      </trkpt>
      <trkpt lat="47.00073" lon="-0.98305">
        <ele>109</ele>
        <time>2022-01-13T13:21:40Z</time>
      </trkpt>
      <trkpt lat="47.0007" lon="-0.98304">
        <ele>109</ele>
        <time>2022-01-13T13:21:43Z</time>
      </trkpt>
      <trkpt lat="47.00067" lon="-0.98303">
        <ele>108</ele>
        <time>2022-01-13T13:21:47Z</time>
      </trkpt>
      <trkpt lat="47.00064" lon="-0.98302">
        <ele>107</ele>
        <time>2022-01-13T13:21:50Z</time>
      </trkpt>
      <trkpt lat="47.00062" lon="-0.98301">
        <ele>107</ele>
        <time>2022-01-13T13:21:54Z</time>
      </trkpt>
      <trkpt lat="47.00058" lon="-0.983">
        <ele>106</ele>
        <time>2022-01-13T13:21:58Z</time>
      </trkpt>
      <trkpt lat="47.00055" lon="-0.98299">
        <ele>107</ele>
        <time>2022-01-13T13:22:01Z</time>
      </trkpt>
      <trkpt lat="47.00053" lon="-0.98299">
        <ele>106</ele>
        <time>2022-01-13T13:22:05Z</time>
      </trkpt>
      <trkpt lat="47.0005" lon="-0.98298">
        <ele>106</ele>
        <time>2022-01-13T13:22:13Z</time>
      </trkpt>
      <trkpt lat="47.00047" lon="-0.98297">
        <ele>106</ele>
        <time>2022-01-13T13:22:17Z</time>
      </trkpt>
      <trkpt lat="47.00044" lon="-0.98295">
        <ele>105</ele>
        <time>2022-01-13T13:22:20Z</time>
      </trkpt>
      <trkpt lat="47.00041" lon="-0.98294">
        <ele>105</ele>
        <time>2022-01-13T13:22:23Z</time>
      </trkpt>
      <trkpt lat="47.00038" lon="-0.98293">
        <ele>104</ele>
        <time>2022-01-13T13:22:26Z</time>
      </trkpt>
      <trkpt lat="47.00035" lon="-0.98293">
        <ele>104</ele>
        <time>2022-01-13T13:22:29Z</time>
      </trkpt>
      <trkpt lat="47.00033" lon="-0.98291">
        <ele>105</ele>
        <time>2022-01-13T13:22:32Z</time>
      </trkpt>
      <trkpt lat="47.0003" lon="-0.9829">
        <ele>104</ele>
        <time>2022-01-13T13:22:35Z</time>
      </trkpt>
      <trkpt lat="47.00026" lon="-0.9829">
        <ele>103</ele>
        <time>2022-01-13T13:22:38Z</time>
      </trkpt>
      <trkpt lat="47.00023" lon="-0.98289">
        <ele>104</ele>
        <time>2022-01-13T13:22:41Z</time>
      </trkpt>
      <trkpt lat="47.0002" lon="-0.98288">
        <ele>103</ele>
        <time>2022-01-13T13:22:44Z</time>
      </trkpt>
      <trkpt lat="47.00017" lon="-0.98287">
        <ele>103</ele>
        <time>2022-01-13T13:22:47Z</time>
      </trkpt>
      <trkpt lat="47.00014" lon="-0.98287">
        <ele>102</ele>
        <time>2022-01-13T13:22:50Z</time>
      </trkpt>
      <trkpt lat="47.00011" lon="-0.98287">
        <ele>102</ele>
        <time>2022-01-13T13:22:53Z</time>
      </trkpt>
      <trkpt lat="47.00008" lon="-0.98287">
        <ele>102</ele>
        <time>2022-01-13T13:22:56Z</time>
      </trkpt>
      <trkpt lat="47.00005" lon="-0.98286">
        <ele>101</ele>
        <time>2022-01-13T13:22:59Z</time>
      </trkpt>
      <trkpt lat="47.00001" lon="-0.98287">
        <ele>101</ele>
        <time>2022-01-13T13:23:04Z</time>
      </trkpt>
      <trkpt lat="46.99998" lon="-0.98287">
        <ele>101</ele>
        <time>2022-01-13T13:23:07Z</time>
      </trkpt>
      <trkpt lat="46.99995" lon="-0.98287">
        <ele>100</ele>
        <time>2022-01-13T13:23:11Z</time>
      </trkpt>
      <trkpt lat="46.99992" lon="-0.98287">
        <ele>100</ele>
        <time>2022-01-13T13:23:14Z</time>
      </trkpt>
      <trkpt lat="46.99989" lon="-0.98286">
        <ele>100</ele>
        <time>2022-01-13T13:23:17Z</time>
      </trkpt>
      <trkpt lat="46.99986" lon="-0.98285">
        <ele>100</ele>
        <time>2022-01-13T13:23:19Z</time>
      </trkpt>
      <trkpt lat="46.99983" lon="-0.98284">
        <ele>99</ele>
        <time>2022-01-13T13:23:22Z</time>
      </trkpt>
      <trkpt lat="46.99981" lon="-0.98283">
        <ele>99</ele>
        <time>2022-01-13T13:23:25Z</time>
      </trkpt>
      <trkpt lat="46.99978" lon="-0.98285">
        <ele>98</ele>
        <time>2022-01-13T13:23:29Z</time>
      </trkpt>
      <trkpt lat="46.99975" lon="-0.98286">
        <ele>98</ele>
        <time>2022-01-13T13:23:32Z</time>
      </trkpt>
      <trkpt lat="46.99972" lon="-0.98287">
        <ele>97</ele>
        <time>2022-01-13T13:23:36Z</time>
      </trkpt>
      <trkpt lat="46.99969" lon="-0.98287">
        <ele>97</ele>
        <time>2022-01-13T13:23:39Z</time>
      </trkpt>
      <trkpt lat="46.99966" lon="-0.98287">
        <ele>96</ele>
        <time>2022-01-13T13:23:43Z</time>
      </trkpt>
      <trkpt lat="46.99962" lon="-0.98288">
        <ele>96</ele>
        <time>2022-01-13T13:23:47Z</time>
      </trkpt>
      <trkpt lat="46.99959" lon="-0.98288">
        <ele>95</ele>
        <time>2022-01-13T13:23:51Z</time>
      </trkpt>
      <trkpt lat="46.99956" lon="-0.98287">
        <ele>95</ele>
        <time>2022-01-13T13:23:55Z</time>
      </trkpt>
      <trkpt lat="46.99952" lon="-0.98286">
        <ele>94</ele>
        <time>2022-01-13T13:23:58Z</time>
      </trkpt>
      <trkpt lat="46.99949" lon="-0.98286">
        <ele>94</ele>
        <time>2022-01-13T13:24:01Z</time>
      </trkpt>
      <trkpt lat="46.99945" lon="-0.98286">
        <ele>94</ele>
        <time>2022-01-13T13:24:04Z</time>
      </trkpt>
      <trkpt lat="46.99942" lon="-0.98286">
        <ele>93</ele>
        <time>2022-01-13T13:24:07Z</time>
      </trkpt>
      <trkpt lat="46.99939" lon="-0.98286">
        <ele>92</ele>
        <time>2022-01-13T13:24:10Z</time>
      </trkpt>
      <trkpt lat="46.99935" lon="-0.98285">
        <ele>93</ele>
        <time>2022-01-13T13:24:13Z</time>
      </trkpt>
      <trkpt lat="46.99933" lon="-0.98285">
        <ele>92</ele>
        <time>2022-01-13T13:24:16Z</time>
      </trkpt>
      <trkpt lat="46.9993" lon="-0.98284">
        <ele>92</ele>
        <time>2022-01-13T13:24:18Z</time>
      </trkpt>
      <trkpt lat="46.99927" lon="-0.98284">
        <ele>92</ele>
        <time>2022-01-13T13:24:20Z</time>
      </trkpt>
      <trkpt lat="46.99924" lon="-0.98284">
        <ele>92</ele>
        <time>2022-01-13T13:24:23Z</time>
      </trkpt>
      <trkpt lat="46.99921" lon="-0.98285">
        <ele>91</ele>
        <time>2022-01-13T13:24:26Z</time>
      </trkpt>
      <trkpt lat="46.99918" lon="-0.98285">
        <ele>90</ele>
        <time>2022-01-13T13:24:29Z</time>
      </trkpt>
      <trkpt lat="46.99915" lon="-0.98287">
        <ele>90</ele>
        <time>2022-01-13T13:24:32Z</time>
      </trkpt>
      <trkpt lat="46.99912" lon="-0.98289">
        <ele>90</ele>
        <time>2022-01-13T13:24:36Z</time>
      </trkpt>
      <trkpt lat="46.99909" lon="-0.98289">
        <ele>89</ele>
        <time>2022-01-13T13:24:40Z</time>
      </trkpt>
      <trkpt lat="46.99906" lon="-0.98291">
        <ele>88</ele>
        <time>2022-01-13T13:24:45Z</time>
      </trkpt>
      <trkpt lat="46.99904" lon="-0.98292">
        <ele>88</ele>
        <time>2022-01-13T13:24:49Z</time>
      </trkpt>
      <trkpt lat="46.999" lon="-0.98294">
        <ele>87</ele>
        <time>2022-01-13T13:24:55Z</time>
      </trkpt>
      <trkpt lat="46.99897" lon="-0.98295">
        <ele>86</ele>
        <time>2022-01-13T13:24:58Z</time>
      </trkpt>
      <trkpt lat="46.99894" lon="-0.98296">
        <ele>86</ele>
        <time>2022-01-13T13:25:01Z</time>
      </trkpt>
      <trkpt lat="46.99891" lon="-0.98298">
        <ele>85</ele>
        <time>2022-01-13T13:25:04Z</time>
      </trkpt>
      <trkpt lat="46.99888" lon="-0.983">
        <ele>85</ele>
        <time>2022-01-13T13:25:07Z</time>
      </trkpt>
      <trkpt lat="46.99886" lon="-0.98303">
        <ele>84</ele>
        <time>2022-01-13T13:25:10Z</time>
      </trkpt>
      <trkpt lat="46.99883" lon="-0.98304">
        <ele>84</ele>
        <time>2022-01-13T13:25:13Z</time>
      </trkpt>
      <trkpt lat="46.99879" lon="-0.98305">
        <ele>84</ele>
        <time>2022-01-13T13:25:16Z</time>
      </trkpt>
      <trkpt lat="46.99876" lon="-0.98306">
        <ele>84</ele>
        <time>2022-01-13T13:25:20Z</time>
      </trkpt>
      <trkpt lat="46.99873" lon="-0.98308">
        <ele>83</ele>
        <time>2022-01-13T13:25:24Z</time>
      </trkpt>
      <trkpt lat="46.9987" lon="-0.9831">
        <ele>82</ele>
        <time>2022-01-13T13:25:28Z</time>
      </trkpt>
      <trkpt lat="46.99866" lon="-0.98312">
        <ele>82</ele>
        <time>2022-01-13T13:25:32Z</time>
      </trkpt>
      <trkpt lat="46.99863" lon="-0.98312">
        <ele>81</ele>
        <time>2022-01-13T13:25:37Z</time>
      </trkpt>
      <trkpt lat="46.99861" lon="-0.98314">
        <ele>80</ele>
        <time>2022-01-13T13:25:41Z</time>
      </trkpt>
      <trkpt lat="46.99858" lon="-0.98318">
        <ele>80</ele>
        <time>2022-01-13T13:25:45Z</time>
      </trkpt>
      <trkpt lat="46.99856" lon="-0.98321">
        <ele>79</ele>
        <time>2022-01-13T13:25:49Z</time>
      </trkpt>
      <trkpt lat="46.99855" lon="-0.98326">
        <ele>79</ele>
        <time>2022-01-13T13:25:52Z</time>
      </trkpt>
      <trkpt lat="46.99854" lon="-0.9833">
        <ele>79</ele>
        <time>2022-01-13T13:25:56Z</time>
      </trkpt>
      <trkpt lat="46.99852" lon="-0.98333">
        <ele>78</ele>
        <time>2022-01-13T13:25:59Z</time>
      </trkpt>
      <trkpt lat="46.9985" lon="-0.98336">
        <ele>77</ele>
        <time>2022-01-13T13:26:04Z</time>
      </trkpt>
      <trkpt lat="46.99848" lon="-0.9834">
        <ele>77</ele>
        <time>2022-01-13T13:26:08Z</time>
      </trkpt>
      <trkpt lat="46.99846" lon="-0.98343">
        <ele>76</ele>
        <time>2022-01-13T13:26:11Z</time>
      </trkpt>
      <trkpt lat="46.99844" lon="-0.98346">
        <ele>76</ele>
        <time>2022-01-13T13:26:14Z</time>
      </trkpt>
      <trkpt lat="46.99842" lon="-0.98349">
        <ele>76</ele>
        <time>2022-01-13T13:26:23Z</time>
      </trkpt>
      <trkpt lat="46.9984" lon="-0.98352">
        <ele>75</ele>
        <time>2022-01-13T13:26:28Z</time>
      </trkpt>
      <trkpt lat="46.99838" lon="-0.98355">
        <ele>75</ele>
        <time>2022-01-13T13:26:35Z</time>
      </trkpt>
      <trkpt lat="46.99836" lon="-0.98354">
        <ele>75</ele>
        <time>2022-01-13T13:28:08Z</time>
      </trkpt>
      <trkpt lat="46.99834" lon="-0.98351">
        <ele>74</ele>
        <time>2022-01-13T13:28:13Z</time>
      </trkpt>
      <trkpt lat="46.99833" lon="-0.98348">
        <ele>74</ele>
        <time>2022-01-13T13:28:16Z</time>
      </trkpt>
      <trkpt lat="46.99831" lon="-0.98344">
        <ele>74</ele>
        <time>2022-01-13T13:28:19Z</time>
      </trkpt>
      <trkpt lat="46.9983" lon="-0.9834">
        <ele>74</ele>
        <time>2022-01-13T13:28:22Z</time>
      </trkpt>
      <trkpt lat="46.9983" lon="-0.98335">
        <ele>73</ele>
        <time>2022-01-13T13:28:25Z</time>
      </trkpt>
      <trkpt lat="46.99829" lon="-0.9833">
        <ele>73</ele>
        <time>2022-01-13T13:28:28Z</time>
      </trkpt>
      <trkpt lat="46.99828" lon="-0.98326">
        <ele>73</ele>
        <time>2022-01-13T13:28:31Z</time>
      </trkpt>
      <trkpt lat="46.99826" lon="-0.98322">
        <ele>73</ele>
        <time>2022-01-13T13:28:34Z</time>
      </trkpt>
      <trkpt lat="46.99825" lon="-0.98318">
        <ele>73</ele>
        <time>2022-01-13T13:28:37Z</time>
      </trkpt>
      <trkpt lat="46.99824" lon="-0.98314">
        <ele>73</ele>
        <time>2022-01-13T13:28:41Z</time>
      </trkpt>
      <trkpt lat="46.99823" lon="-0.9831">
        <ele>72</ele>
        <time>2022-01-13T13:28:45Z</time>
      </trkpt>
      <trkpt lat="46.99821" lon="-0.98306">
        <ele>72</ele>
        <time>2022-01-13T13:28:48Z</time>
      </trkpt>
      <trkpt lat="46.99819" lon="-0.98303">
        <ele>72</ele>
        <time>2022-01-13T13:28:52Z</time>
      </trkpt>
      <trkpt lat="46.99817" lon="-0.98301">
        <ele>72</ele>
        <time>2022-01-13T13:28:55Z</time>
      </trkpt>
      <trkpt lat="46.99814" lon="-0.98299">
        <ele>72</ele>
        <time>2022-01-13T13:28:58Z</time>
      </trkpt>
      <trkpt lat="46.99811" lon="-0.98296">
        <ele>72</ele>
        <time>2022-01-13T13:29:01Z</time>
      </trkpt>
      <trkpt lat="46.99811" lon="-0.98293">
        <ele>71</ele>
        <time>2022-01-13T13:29:06Z</time>
      </trkpt>
      <trkpt lat="46.9981" lon="-0.98289">
        <ele>71</ele>
        <time>2022-01-13T13:29:14Z</time>
      </trkpt>
      <trkpt lat="46.99809" lon="-0.98285">
        <ele>71</ele>
        <time>2022-01-13T13:29:18Z</time>
      </trkpt>
      <trkpt lat="46.99807" lon="-0.98282">
        <ele>71</ele>
        <time>2022-01-13T13:29:21Z</time>
      </trkpt>
      <trkpt lat="46.99805" lon="-0.98278">
        <ele>70</ele>
        <time>2022-01-13T13:29:25Z</time>
      </trkpt>
      <trkpt lat="46.99804" lon="-0.98273">
        <ele>70</ele>
        <time>2022-01-13T13:29:29Z</time>
      </trkpt>
      <trkpt lat="46.99802" lon="-0.9827">
        <ele>70</ele>
        <time>2022-01-13T13:29:34Z</time>
      </trkpt>
      <trkpt lat="46.998" lon="-0.98265">
        <ele>71</ele>
        <time>2022-01-13T13:29:38Z</time>
      </trkpt>
      <trkpt lat="46.998" lon="-0.98261">
        <ele>70</ele>
        <time>2022-01-13T13:29:44Z</time>
      </trkpt>
      <trkpt lat="46.998" lon="-0.98257">
        <ele>70</ele>
        <time>2022-01-13T13:29:47Z</time>
      </trkpt>
      <trkpt lat="46.99799" lon="-0.98252">
        <ele>70</ele>
        <time>2022-01-13T13:29:51Z</time>
      </trkpt>
      <trkpt lat="46.99799" lon="-0.98248">
        <ele>70</ele>
        <time>2022-01-13T13:29:55Z</time>
      </trkpt>
      <trkpt lat="46.99798" lon="-0.98244">
        <ele>70</ele>
        <time>2022-01-13T13:29:58Z</time>
      </trkpt>
      <trkpt lat="46.99797" lon="-0.98239">
        <ele>70</ele>
        <time>2022-01-13T13:30:01Z</time>
      </trkpt>
      <trkpt lat="46.99797" lon="-0.98235">
        <ele>71</ele>
        <time>2022-01-13T13:30:05Z</time>
      </trkpt>
      <trkpt lat="46.99796" lon="-0.98231">
        <ele>70</ele>
        <time>2022-01-13T13:30:08Z</time>
      </trkpt>
      <trkpt lat="46.99795" lon="-0.98227">
        <ele>71</ele>
        <time>2022-01-13T13:30:10Z</time>
      </trkpt>
      <trkpt lat="46.99794" lon="-0.98222">
        <ele>71</ele>
        <time>2022-01-13T13:30:13Z</time>
      </trkpt>
      <trkpt lat="46.99793" lon="-0.98218">
        <ele>71</ele>
        <time>2022-01-13T13:30:16Z</time>
      </trkpt>
      <trkpt lat="46.99792" lon="-0.98213">
        <ele>72</ele>
        <time>2022-01-13T13:30:18Z</time>
      </trkpt>
      <trkpt lat="46.99792" lon="-0.98209">
        <ele>72</ele>
        <time>2022-01-13T13:30:20Z</time>
      </trkpt>
      <trkpt lat="46.99791" lon="-0.98203">
        <ele>72</ele>
        <time>2022-01-13T13:30:23Z</time>
      </trkpt>
      <trkpt lat="46.99789" lon="-0.98199">
        <ele>72</ele>
        <time>2022-01-13T13:30:30Z</time>
      </trkpt>
      <trkpt lat="46.99788" lon="-0.98195">
        <ele>72</ele>
        <time>2022-01-13T13:30:33Z</time>
      </trkpt>
      <trkpt lat="46.99786" lon="-0.9819">
        <ele>72</ele>
        <time>2022-01-13T13:30:36Z</time>
      </trkpt>
      <trkpt lat="46.99786" lon="-0.98186">
        <ele>71</ele>
        <time>2022-01-13T13:30:39Z</time>
      </trkpt>
      <trkpt lat="46.99785" lon="-0.98181">
        <ele>72</ele>
        <time>2022-01-13T13:30:42Z</time>
      </trkpt>
      <trkpt lat="46.99785" lon="-0.98176">
        <ele>72</ele>
        <time>2022-01-13T13:30:45Z</time>
      </trkpt>
      <trkpt lat="46.99785" lon="-0.98171">
        <ele>72</ele>
        <time>2022-01-13T13:30:49Z</time>
      </trkpt>
      <trkpt lat="46.99786" lon="-0.98167">
        <ele>72</ele>
        <time>2022-01-13T13:30:51Z</time>
      </trkpt>
      <trkpt lat="46.99786" lon="-0.98162">
        <ele>72</ele>
        <time>2022-01-13T13:30:54Z</time>
      </trkpt>
      <trkpt lat="46.99786" lon="-0.98157">
        <ele>73</ele>
        <time>2022-01-13T13:30:57Z</time>
      </trkpt>
      <trkpt lat="46.99786" lon="-0.98152">
        <ele>73</ele>
        <time>2022-01-13T13:31:01Z</time>
      </trkpt>
      <trkpt lat="46.99785" lon="-0.98147">
        <ele>73</ele>
        <time>2022-01-13T13:31:04Z</time>
      </trkpt>
      <trkpt lat="46.99786" lon="-0.98143">
        <ele>73</ele>
        <time>2022-01-13T13:31:06Z</time>
      </trkpt>
      <trkpt lat="46.99785" lon="-0.98138">
        <ele>72</ele>
        <time>2022-01-13T13:31:10Z</time>
      </trkpt>
      <trkpt lat="46.99786" lon="-0.98133">
        <ele>72</ele>
        <time>2022-01-13T13:31:12Z</time>
      </trkpt>
      <trkpt lat="46.99786" lon="-0.98129">
        <ele>72</ele>
        <time>2022-01-13T13:31:14Z</time>
      </trkpt>
      <trkpt lat="46.99785" lon="-0.98123">
        <ele>73</ele>
        <time>2022-01-13T13:31:16Z</time>
      </trkpt>
      <trkpt lat="46.99785" lon="-0.98117">
        <ele>72</ele>
        <time>2022-01-13T13:31:19Z</time>
      </trkpt>
      <trkpt lat="46.99784" lon="-0.98112">
        <ele>72</ele>
        <time>2022-01-13T13:31:22Z</time>
      </trkpt>
      <trkpt lat="46.99784" lon="-0.98107">
        <ele>72</ele>
        <time>2022-01-13T13:31:25Z</time>
      </trkpt>
      <trkpt lat="46.99783" lon="-0.98103">
        <ele>72</ele>
        <time>2022-01-13T13:31:28Z</time>
      </trkpt>
      <trkpt lat="46.99782" lon="-0.98098">
        <ele>72</ele>
        <time>2022-01-13T13:31:33Z</time>
      </trkpt>
      <trkpt lat="46.99781" lon="-0.98094">
        <ele>72</ele>
        <time>2022-01-13T13:31:38Z</time>
      </trkpt>
      <trkpt lat="46.99779" lon="-0.98091">
        <ele>72</ele>
        <time>2022-01-13T13:31:41Z</time>
      </trkpt>
      <trkpt lat="46.99776" lon="-0.98089">
        <ele>72</ele>
        <time>2022-01-13T13:31:44Z</time>
      </trkpt>
      <trkpt lat="46.99774" lon="-0.98086">
        <ele>72</ele>
        <time>2022-01-13T13:31:47Z</time>
      </trkpt>
      <trkpt lat="46.99771" lon="-0.98083">
        <ele>72</ele>
        <time>2022-01-13T13:31:49Z</time>
      </trkpt>
      <trkpt lat="46.99769" lon="-0.9808">
        <ele>72</ele>
        <time>2022-01-13T13:31:51Z</time>
      </trkpt>
      <trkpt lat="46.99767" lon="-0.98078">
        <ele>72</ele>
        <time>2022-01-13T13:31:54Z</time>
      </trkpt>
      <trkpt lat="46.99764" lon="-0.98077">
        <ele>71</ele>
        <time>2022-01-13T13:31:56Z</time>
      </trkpt>
      <trkpt lat="46.99761" lon="-0.98075">
        <ele>72</ele>
        <time>2022-01-13T13:31:59Z</time>
      </trkpt>
      <trkpt lat="46.99759" lon="-0.98074">
        <ele>73</ele>
        <time>2022-01-13T13:32:03Z</time>
      </trkpt>
      <trkpt lat="46.99756" lon="-0.98071">
        <ele>73</ele>
        <time>2022-01-13T13:32:07Z</time>
      </trkpt>
      <trkpt lat="46.99754" lon="-0.98068">
        <ele>72</ele>
        <time>2022-01-13T13:32:10Z</time>
      </trkpt>
      <trkpt lat="46.99752" lon="-0.98064">
        <ele>72</ele>
        <time>2022-01-13T13:32:13Z</time>
      </trkpt>
      <trkpt lat="46.9975" lon="-0.98061">
        <ele>72</ele>
        <time>2022-01-13T13:32:17Z</time>
      </trkpt>
      <trkpt lat="46.99748" lon="-0.98057">
        <ele>72</ele>
        <time>2022-01-13T13:32:19Z</time>
      </trkpt>
      <trkpt lat="46.99746" lon="-0.98053">
        <ele>73</ele>
        <time>2022-01-13T13:32:22Z</time>
      </trkpt>
      <trkpt lat="46.99744" lon="-0.9805">
        <ele>73</ele>
        <time>2022-01-13T13:32:26Z</time>
      </trkpt>
      <trkpt lat="46.99741" lon="-0.98047">
        <ele>73</ele>
        <time>2022-01-13T13:32:28Z</time>
      </trkpt>
      <trkpt lat="46.99738" lon="-0.98045">
        <ele>72</ele>
        <time>2022-01-13T13:32:30Z</time>
      </trkpt>
      <trkpt lat="46.99736" lon="-0.98042">
        <ele>72</ele>
        <time>2022-01-13T13:32:32Z</time>
      </trkpt>
      <trkpt lat="46.99733" lon="-0.9804">
        <ele>72</ele>
        <time>2022-01-13T13:32:35Z</time>
      </trkpt>
      <trkpt lat="46.9973" lon="-0.98037">
        <ele>72</ele>
        <time>2022-01-13T13:32:38Z</time>
      </trkpt>
      <trkpt lat="46.99728" lon="-0.98033">
        <ele>72</ele>
        <time>2022-01-13T13:32:45Z</time>
      </trkpt>
      <trkpt lat="46.99726" lon="-0.9803">
        <ele>71</ele>
        <time>2022-01-13T13:32:48Z</time>
      </trkpt>
      <trkpt lat="46.99724" lon="-0.98026">
        <ele>72</ele>
        <time>2022-01-13T13:32:51Z</time>
      </trkpt>
      <trkpt lat="46.99722" lon="-0.98023">
        <ele>71</ele>
        <time>2022-01-13T13:32:53Z</time>
      </trkpt>
      <trkpt lat="46.99719" lon="-0.9802">
        <ele>71</ele>
        <time>2022-01-13T13:32:56Z</time>
      </trkpt>
      <trkpt lat="46.99717" lon="-0.98016">
        <ele>71</ele>
        <time>2022-01-13T13:32:59Z</time>
      </trkpt>
      <trkpt lat="46.99715" lon="-0.98013">
        <ele>72</ele>
        <time>2022-01-13T13:33:01Z</time>
      </trkpt>
      <trkpt lat="46.99714" lon="-0.98009">
        <ele>73</ele>
        <time>2022-01-13T13:33:04Z</time>
      </trkpt>
      <trkpt lat="46.99712" lon="-0.98006">
        <ele>72</ele>
        <time>2022-01-13T13:33:07Z</time>
      </trkpt>
      <trkpt lat="46.99712" lon="-0.98001">
        <ele>72</ele>
        <time>2022-01-13T13:33:11Z</time>
      </trkpt>
      <trkpt lat="46.9971" lon="-0.97997">
        <ele>72</ele>
        <time>2022-01-13T13:33:14Z</time>
      </trkpt>
      <trkpt lat="46.99708" lon="-0.97994">
        <ele>72</ele>
        <time>2022-01-13T13:33:17Z</time>
      </trkpt>
      <trkpt lat="46.99706" lon="-0.97991">
        <ele>72</ele>
        <time>2022-01-13T13:33:19Z</time>
      </trkpt>
      <trkpt lat="46.99703" lon="-0.97988">
        <ele>72</ele>
        <time>2022-01-13T13:33:22Z</time>
      </trkpt>
      <trkpt lat="46.99701" lon="-0.97985">
        <ele>72</ele>
        <time>2022-01-13T13:33:24Z</time>
      </trkpt>
      <trkpt lat="46.99699" lon="-0.97982">
        <ele>72</ele>
        <time>2022-01-13T13:33:26Z</time>
      </trkpt>
      <trkpt lat="46.99697" lon="-0.97979">
        <ele>72</ele>
        <time>2022-01-13T13:33:29Z</time>
      </trkpt>
      <trkpt lat="46.99695" lon="-0.97975">
        <ele>72</ele>
        <time>2022-01-13T13:33:32Z</time>
      </trkpt>
      <trkpt lat="46.99692" lon="-0.97972">
        <ele>72</ele>
        <time>2022-01-13T13:33:34Z</time>
      </trkpt>
      <trkpt lat="46.9969" lon="-0.97968">
        <ele>72</ele>
        <time>2022-01-13T13:33:37Z</time>
      </trkpt>
      <trkpt lat="46.9969" lon="-0.97964">
        <ele>72</ele>
        <time>2022-01-13T13:33:41Z</time>
      </trkpt>
      <trkpt lat="46.99688" lon="-0.97959">
        <ele>72</ele>
        <time>2022-01-13T13:33:45Z</time>
      </trkpt>
      <trkpt lat="46.99686" lon="-0.97955">
        <ele>72</ele>
        <time>2022-01-13T13:33:47Z</time>
      </trkpt>
      <trkpt lat="46.99685" lon="-0.97951">
        <ele>72</ele>
        <time>2022-01-13T13:33:52Z</time>
      </trkpt>
      <trkpt lat="46.99683" lon="-0.97946">
        <ele>72</ele>
        <time>2022-01-13T13:34:00Z</time>
      </trkpt>
      <trkpt lat="46.99683" lon="-0.97941">
        <ele>72</ele>
        <time>2022-01-13T13:34:03Z</time>
      </trkpt>
      <trkpt lat="46.99683" lon="-0.97937">
        <ele>72</ele>
        <time>2022-01-13T13:34:08Z</time>
      </trkpt>
      <trkpt lat="46.99682" lon="-0.97932">
        <ele>72</ele>
        <time>2022-01-13T13:34:10Z</time>
      </trkpt>
      <trkpt lat="46.99682" lon="-0.97928">
        <ele>73</ele>
        <time>2022-01-13T13:34:13Z</time>
      </trkpt>
      <trkpt lat="46.9968" lon="-0.97924">
        <ele>72</ele>
        <time>2022-01-13T13:34:14Z</time>
      </trkpt>
      <trkpt lat="46.99678" lon="-0.97921">
        <ele>72</ele>
        <time>2022-01-13T13:34:15Z</time>
      </trkpt>
      <trkpt lat="46.99676" lon="-0.97917">
        <ele>72</ele>
        <time>2022-01-13T13:34:17Z</time>
      </trkpt>
      <trkpt lat="46.99674" lon="-0.97913">
        <ele>72</ele>
        <time>2022-01-13T13:34:20Z</time>
      </trkpt>
      <trkpt lat="46.99672" lon="-0.9791">
        <ele>73</ele>
        <time>2022-01-13T13:34:22Z</time>
      </trkpt>
      <trkpt lat="46.99669" lon="-0.97907">
        <ele>72</ele>
        <time>2022-01-13T13:34:24Z</time>
      </trkpt>
      <trkpt lat="46.99666" lon="-0.97905">
        <ele>72</ele>
        <time>2022-01-13T13:34:26Z</time>
      </trkpt>
      <trkpt lat="46.99663" lon="-0.97902">
        <ele>72</ele>
        <time>2022-01-13T13:34:29Z</time>
      </trkpt>
      <trkpt lat="46.9966" lon="-0.979">
        <ele>71</ele>
        <time>2022-01-13T13:34:32Z</time>
      </trkpt>
      <trkpt lat="46.99658" lon="-0.97896">
        <ele>71</ele>
        <time>2022-01-13T13:34:35Z</time>
      </trkpt>
      <trkpt lat="46.99657" lon="-0.97892">
        <ele>71</ele>
        <time>2022-01-13T13:34:38Z</time>
      </trkpt>
      <trkpt lat="46.99655" lon="-0.97888">
        <ele>72</ele>
        <time>2022-01-13T13:34:41Z</time>
      </trkpt>
      <trkpt lat="46.99653" lon="-0.97885">
        <ele>71</ele>
        <time>2022-01-13T13:34:44Z</time>
      </trkpt>
      <trkpt lat="46.99652" lon="-0.97881">
        <ele>72</ele>
        <time>2022-01-13T13:34:47Z</time>
      </trkpt>
      <trkpt lat="46.9965" lon="-0.97877">
        <ele>71</ele>
        <time>2022-01-13T13:34:50Z</time>
      </trkpt>
      <trkpt lat="46.99648" lon="-0.97873">
        <ele>71</ele>
        <time>2022-01-13T13:34:54Z</time>
      </trkpt>
      <trkpt lat="46.99647" lon="-0.97869">
        <ele>71</ele>
        <time>2022-01-13T13:34:57Z</time>
      </trkpt>
      <trkpt lat="46.99645" lon="-0.97865">
        <ele>71</ele>
        <time>2022-01-13T13:34:59Z</time>
      </trkpt>
      <trkpt lat="46.99643" lon="-0.9786">
        <ele>71</ele>
        <time>2022-01-13T13:35:02Z</time>
      </trkpt>
      <trkpt lat="46.9964" lon="-0.97857">
        <ele>71</ele>
        <time>2022-01-13T13:35:07Z</time>
      </trkpt>
      <trkpt lat="46.99638" lon="-0.97855">
        <ele>71</ele>
        <time>2022-01-13T13:35:11Z</time>
      </trkpt>
      <trkpt lat="46.99635" lon="-0.97853">
        <ele>71</ele>
        <time>2022-01-13T13:35:13Z</time>
      </trkpt>
      <trkpt lat="46.99632" lon="-0.97852">
        <ele>71</ele>
        <time>2022-01-13T13:35:17Z</time>
      </trkpt>
      <trkpt lat="46.99629" lon="-0.9785">
        <ele>70</ele>
        <time>2022-01-13T13:35:20Z</time>
      </trkpt>
      <trkpt lat="46.99626" lon="-0.97849">
        <ele>70</ele>
        <time>2022-01-13T13:35:22Z</time>
      </trkpt>
      <trkpt lat="46.99623" lon="-0.97848">
        <ele>70</ele>
        <time>2022-01-13T13:35:25Z</time>
      </trkpt>
      <trkpt lat="46.9962" lon="-0.97846">
        <ele>70</ele>
        <time>2022-01-13T13:35:28Z</time>
      </trkpt>
      <trkpt lat="46.99617" lon="-0.97844">
        <ele>70</ele>
        <time>2022-01-13T13:35:32Z</time>
      </trkpt>
      <trkpt lat="46.99614" lon="-0.97843">
        <ele>70</ele>
        <time>2022-01-13T13:35:35Z</time>
      </trkpt>
      <trkpt lat="46.99611" lon="-0.97842">
        <ele>70</ele>
        <time>2022-01-13T13:35:39Z</time>
      </trkpt>
      <trkpt lat="46.99608" lon="-0.97841">
        <ele>69</ele>
        <time>2022-01-13T13:35:42Z</time>
      </trkpt>
      <trkpt lat="46.99605" lon="-0.9784">
        <ele>70</ele>
        <time>2022-01-13T13:35:45Z</time>
      </trkpt>
      <trkpt lat="46.99602" lon="-0.97838">
        <ele>70</ele>
        <time>2022-01-13T13:35:49Z</time>
      </trkpt>
      <trkpt lat="46.99599" lon="-0.97837">
        <ele>70</ele>
        <time>2022-01-13T13:35:51Z</time>
      </trkpt>
      <trkpt lat="46.99596" lon="-0.97836">
        <ele>70</ele>
        <time>2022-01-13T13:35:53Z</time>
      </trkpt>
      <trkpt lat="46.99592" lon="-0.97836">
        <ele>69</ele>
        <time>2022-01-13T13:35:56Z</time>
      </trkpt>
      <trkpt lat="46.99589" lon="-0.97836">
        <ele>69</ele>
        <time>2022-01-13T13:36:01Z</time>
      </trkpt>
      <trkpt lat="46.99586" lon="-0.97835">
        <ele>69</ele>
        <time>2022-01-13T13:36:05Z</time>
      </trkpt>
      <trkpt lat="46.99583" lon="-0.97834">
        <ele>70</ele>
        <time>2022-01-13T13:36:08Z</time>
      </trkpt>
      <trkpt lat="46.9958" lon="-0.97833">
        <ele>70</ele>
        <time>2022-01-13T13:36:12Z</time>
      </trkpt>
      <trkpt lat="46.99577" lon="-0.97833">
        <ele>70</ele>
        <time>2022-01-13T13:36:16Z</time>
      </trkpt>
      <trkpt lat="46.99574" lon="-0.97834">
        <ele>70</ele>
        <time>2022-01-13T13:36:46Z</time>
      </trkpt>
      <trkpt lat="46.99571" lon="-0.97834">
        <ele>70</ele>
        <time>2022-01-13T13:36:50Z</time>
      </trkpt>
      <trkpt lat="46.99568" lon="-0.97834">
        <ele>69</ele>
        <time>2022-01-13T13:36:54Z</time>
      </trkpt>
      <trkpt lat="46.99564" lon="-0.97833">
        <ele>70</ele>
        <time>2022-01-13T13:36:56Z</time>
      </trkpt>
      <trkpt lat="46.99561" lon="-0.97833">
        <ele>70</ele>
        <time>2022-01-13T13:36:59Z</time>
      </trkpt>
      <trkpt lat="46.99558" lon="-0.97831">
        <ele>70</ele>
        <time>2022-01-13T13:37:02Z</time>
      </trkpt>
      <trkpt lat="46.99556" lon="-0.97829">
        <ele>70</ele>
        <time>2022-01-13T13:37:08Z</time>
      </trkpt>
      <trkpt lat="46.99554" lon="-0.97827">
        <ele>70</ele>
        <time>2022-01-13T13:37:12Z</time>
      </trkpt>
      <trkpt lat="46.99551" lon="-0.97826">
        <ele>70</ele>
        <time>2022-01-13T13:37:16Z</time>
      </trkpt>
      <trkpt lat="46.99548" lon="-0.97826">
        <ele>69</ele>
        <time>2022-01-13T13:37:21Z</time>
      </trkpt>
      <trkpt lat="46.99545" lon="-0.97824">
        <ele>69</ele>
        <time>2022-01-13T13:37:26Z</time>
      </trkpt>
      <trkpt lat="46.99542" lon="-0.97822">
        <ele>70</ele>
        <time>2022-01-13T13:37:30Z</time>
      </trkpt>
      <trkpt lat="46.99539" lon="-0.97819">
        <ele>69</ele>
        <time>2022-01-13T13:37:33Z</time>
      </trkpt>
      <trkpt lat="46.99536" lon="-0.97817">
        <ele>70</ele>
        <time>2022-01-13T13:37:36Z</time>
      </trkpt>
      <trkpt lat="46.99533" lon="-0.97814">
        <ele>69</ele>
        <time>2022-01-13T13:37:40Z</time>
      </trkpt>
      <trkpt lat="46.99531" lon="-0.9781">
        <ele>70</ele>
        <time>2022-01-13T13:37:43Z</time>
      </trkpt>
      <trkpt lat="46.9953" lon="-0.97806">
        <ele>70</ele>
        <time>2022-01-13T13:37:46Z</time>
      </trkpt>
      <trkpt lat="46.99529" lon="-0.97802">
        <ele>70</ele>
        <time>2022-01-13T13:37:49Z</time>
      </trkpt>
      <trkpt lat="46.99526" lon="-0.97799">
        <ele>70</ele>
        <time>2022-01-13T13:37:53Z</time>
      </trkpt>
      <trkpt lat="46.99524" lon="-0.97796">
        <ele>70</ele>
        <time>2022-01-13T13:37:56Z</time>
      </trkpt>
      <trkpt lat="46.99522" lon="-0.97793">
        <ele>70</ele>
        <time>2022-01-13T13:37:59Z</time>
      </trkpt>
      <trkpt lat="46.99521" lon="-0.97789">
        <ele>69</ele>
        <time>2022-01-13T13:38:02Z</time>
      </trkpt>
      <trkpt lat="46.9952" lon="-0.97785">
        <ele>70</ele>
        <time>2022-01-13T13:38:05Z</time>
      </trkpt>
      <trkpt lat="46.99519" lon="-0.97781">
        <ele>70</ele>
        <time>2022-01-13T13:38:09Z</time>
      </trkpt>
      <trkpt lat="46.99517" lon="-0.97777">
        <ele>70</ele>
        <time>2022-01-13T13:38:12Z</time>
      </trkpt>
      <trkpt lat="46.99515" lon="-0.97774">
        <ele>70</ele>
        <time>2022-01-13T13:38:16Z</time>
      </trkpt>
      <trkpt lat="46.99514" lon="-0.9777">
        <ele>70</ele>
        <time>2022-01-13T13:38:21Z</time>
      </trkpt>
      <trkpt lat="46.99513" lon="-0.97765">
        <ele>70</ele>
        <time>2022-01-13T13:38:23Z</time>
      </trkpt>
      <trkpt lat="46.99514" lon="-0.9776">
        <ele>71</ele>
        <time>2022-01-13T13:38:26Z</time>
      </trkpt>
      <trkpt lat="46.99515" lon="-0.97755">
        <ele>70</ele>
        <time>2022-01-13T13:38:28Z</time>
      </trkpt>
      <trkpt lat="46.99514" lon="-0.97751">
        <ele>70</ele>
        <time>2022-01-13T13:38:31Z</time>
      </trkpt>
      <trkpt lat="46.99514" lon="-0.97747">
        <ele>70</ele>
        <time>2022-01-13T13:38:34Z</time>
      </trkpt>
      <trkpt lat="46.99514" lon="-0.97742">
        <ele>70</ele>
        <time>2022-01-13T13:38:37Z</time>
      </trkpt>
      <trkpt lat="46.99514" lon="-0.97737">
        <ele>70</ele>
        <time>2022-01-13T13:38:40Z</time>
      </trkpt>
      <trkpt lat="46.99514" lon="-0.97733">
        <ele>70</ele>
        <time>2022-01-13T13:38:44Z</time>
      </trkpt>
      <trkpt lat="46.99513" lon="-0.97728">
        <ele>70</ele>
        <time>2022-01-13T13:38:48Z</time>
      </trkpt>
      <trkpt lat="46.99512" lon="-0.97723">
        <ele>70</ele>
        <time>2022-01-13T13:38:51Z</time>
      </trkpt>
      <trkpt lat="46.99512" lon="-0.97719">
        <ele>70</ele>
        <time>2022-01-13T13:38:54Z</time>
      </trkpt>
      <trkpt lat="46.99511" lon="-0.97713">
        <ele>70</ele>
        <time>2022-01-13T13:38:58Z</time>
      </trkpt>
      <trkpt lat="46.9951" lon="-0.97708">
        <ele>70</ele>
        <time>2022-01-13T13:39:02Z</time>
      </trkpt>
      <trkpt lat="46.99508" lon="-0.97703">
        <ele>70</ele>
        <time>2022-01-13T13:39:05Z</time>
      </trkpt>
      <trkpt lat="46.99507" lon="-0.97699">
        <ele>70</ele>
        <time>2022-01-13T13:39:07Z</time>
      </trkpt>
      <trkpt lat="46.99507" lon="-0.97695">
        <ele>71</ele>
        <time>2022-01-13T13:39:09Z</time>
      </trkpt>
      <trkpt lat="46.99507" lon="-0.97691">
        <ele>71</ele>
        <time>2022-01-13T13:39:11Z</time>
      </trkpt>
      <trkpt lat="46.99507" lon="-0.97686">
        <ele>71</ele>
        <time>2022-01-13T13:39:14Z</time>
      </trkpt>
      <trkpt lat="46.99507" lon="-0.97682">
        <ele>71</ele>
        <time>2022-01-13T13:39:17Z</time>
      </trkpt>
      <trkpt lat="46.99507" lon="-0.97677">
        <ele>70</ele>
        <time>2022-01-13T13:39:21Z</time>
      </trkpt>
      <trkpt lat="46.99508" lon="-0.97672">
        <ele>70</ele>
        <time>2022-01-13T13:39:24Z</time>
      </trkpt>
      <trkpt lat="46.99508" lon="-0.97667">
        <ele>71</ele>
        <time>2022-01-13T13:39:29Z</time>
      </trkpt>
      <trkpt lat="46.99508" lon="-0.97661">
        <ele>70</ele>
        <time>2022-01-13T13:39:32Z</time>
      </trkpt>
      <trkpt lat="46.99508" lon="-0.97657">
        <ele>71</ele>
        <time>2022-01-13T13:39:35Z</time>
      </trkpt>
      <trkpt lat="46.99507" lon="-0.97652">
        <ele>71</ele>
        <time>2022-01-13T13:39:38Z</time>
      </trkpt>
      <trkpt lat="46.99506" lon="-0.97648">
        <ele>72</ele>
        <time>2022-01-13T13:39:41Z</time>
      </trkpt>
      <trkpt lat="46.99505" lon="-0.97643">
        <ele>71</ele>
        <time>2022-01-13T13:39:44Z</time>
      </trkpt>
      <trkpt lat="46.99504" lon="-0.97638">
        <ele>71</ele>
        <time>2022-01-13T13:39:47Z</time>
      </trkpt>
      <trkpt lat="46.99502" lon="-0.97634">
        <ele>71</ele>
        <time>2022-01-13T13:39:50Z</time>
      </trkpt>
      <trkpt lat="46.99501" lon="-0.97629">
        <ele>71</ele>
        <time>2022-01-13T13:39:54Z</time>
      </trkpt>
      <trkpt lat="46.99502" lon="-0.97624">
        <ele>71</ele>
        <time>2022-01-13T13:39:57Z</time>
      </trkpt>
      <trkpt lat="46.99502" lon="-0.9762">
        <ele>71</ele>
        <time>2022-01-13T13:40:00Z</time>
      </trkpt>
      <trkpt lat="46.99502" lon="-0.97615">
        <ele>71</ele>
        <time>2022-01-13T13:40:03Z</time>
      </trkpt>
      <trkpt lat="46.99502" lon="-0.9761">
        <ele>69</ele>
        <time>2022-01-13T13:40:06Z</time>
      </trkpt>
      <trkpt lat="46.99502" lon="-0.97605">
        <ele>70</ele>
        <time>2022-01-13T13:40:09Z</time>
      </trkpt>
      <trkpt lat="46.99503" lon="-0.976">
        <ele>70</ele>
        <time>2022-01-13T13:40:12Z</time>
      </trkpt>
      <trkpt lat="46.99503" lon="-0.97596">
        <ele>70</ele>
        <time>2022-01-13T13:40:14Z</time>
      </trkpt>
      <trkpt lat="46.99503" lon="-0.97592">
        <ele>70</ele>
        <time>2022-01-13T13:40:17Z</time>
      </trkpt>
      <trkpt lat="46.99503" lon="-0.97587">
        <ele>71</ele>
        <time>2022-01-13T13:40:20Z</time>
      </trkpt>
      <trkpt lat="46.99503" lon="-0.97582">
        <ele>70</ele>
        <time>2022-01-13T13:40:23Z</time>
      </trkpt>
      <trkpt lat="46.99502" lon="-0.97577">
        <ele>69</ele>
        <time>2022-01-13T13:40:28Z</time>
      </trkpt>
      <trkpt lat="46.99502" lon="-0.97573">
        <ele>70</ele>
        <time>2022-01-13T13:40:31Z</time>
      </trkpt>
      <trkpt lat="46.99502" lon="-0.97568">
        <ele>69</ele>
        <time>2022-01-13T13:40:34Z</time>
      </trkpt>
      <trkpt lat="46.99503" lon="-0.97564">
        <ele>70</ele>
        <time>2022-01-13T13:40:36Z</time>
      </trkpt>
      <trkpt lat="46.99503" lon="-0.97559">
        <ele>71</ele>
        <time>2022-01-13T13:40:39Z</time>
      </trkpt>
      <trkpt lat="46.99504" lon="-0.97554">
        <ele>71</ele>
        <time>2022-01-13T13:40:42Z</time>
      </trkpt>
      <trkpt lat="46.99503" lon="-0.97549">
        <ele>71</ele>
        <time>2022-01-13T13:40:45Z</time>
      </trkpt>
      <trkpt lat="46.99502" lon="-0.97545">
        <ele>70</ele>
        <time>2022-01-13T13:40:48Z</time>
      </trkpt>
      <trkpt lat="46.99501" lon="-0.97541">
        <ele>70</ele>
        <time>2022-01-13T13:40:51Z</time>
      </trkpt>
      <trkpt lat="46.99499" lon="-0.97536">
        <ele>70</ele>
        <time>2022-01-13T13:40:54Z</time>
      </trkpt>
      <trkpt lat="46.99497" lon="-0.97532">
        <ele>71</ele>
        <time>2022-01-13T13:40:57Z</time>
      </trkpt>
      <trkpt lat="46.99495" lon="-0.97529">
        <ele>71</ele>
        <time>2022-01-13T13:41:01Z</time>
      </trkpt>
      <trkpt lat="46.99496" lon="-0.97525">
        <ele>71</ele>
        <time>2022-01-13T13:41:04Z</time>
      </trkpt>
      <trkpt lat="46.99497" lon="-0.97522">
        <ele>71</ele>
        <time>2022-01-13T13:41:12Z</time>
      </trkpt>
      <trkpt lat="46.99497" lon="-0.97517">
        <ele>71</ele>
        <time>2022-01-13T13:41:16Z</time>
      </trkpt>
      <trkpt lat="46.99497" lon="-0.97513">
        <ele>72</ele>
        <time>2022-01-13T13:41:19Z</time>
      </trkpt>
      <trkpt lat="46.99496" lon="-0.97508">
        <ele>71</ele>
        <time>2022-01-13T13:41:22Z</time>
      </trkpt>
      <trkpt lat="46.99496" lon="-0.97503">
        <ele>71</ele>
        <time>2022-01-13T13:41:25Z</time>
      </trkpt>
      <trkpt lat="46.99495" lon="-0.97499">
        <ele>71</ele>
        <time>2022-01-13T13:41:32Z</time>
      </trkpt>
      <trkpt lat="46.99494" lon="-0.97495">
        <ele>71</ele>
        <time>2022-01-13T13:41:35Z</time>
      </trkpt>
      <trkpt lat="46.99493" lon="-0.9749">
        <ele>71</ele>
        <time>2022-01-13T13:41:38Z</time>
      </trkpt>
      <trkpt lat="46.99493" lon="-0.97486">
        <ele>71</ele>
        <time>2022-01-13T13:41:41Z</time>
      </trkpt>
      <trkpt lat="46.99493" lon="-0.97482">
        <ele>71</ele>
        <time>2022-01-13T13:41:44Z</time>
      </trkpt>
      <trkpt lat="46.99492" lon="-0.97478">
        <ele>71</ele>
        <time>2022-01-13T13:41:48Z</time>
      </trkpt>
      <trkpt lat="46.99492" lon="-0.97474">
        <ele>71</ele>
        <time>2022-01-13T13:41:50Z</time>
      </trkpt>
      <trkpt lat="46.99492" lon="-0.97469">
        <ele>70</ele>
        <time>2022-01-13T13:41:52Z</time>
      </trkpt>
      <trkpt lat="46.99491" lon="-0.97465">
        <ele>71</ele>
        <time>2022-01-13T13:41:56Z</time>
      </trkpt>
      <trkpt lat="46.9949" lon="-0.97461">
        <ele>71</ele>
        <time>2022-01-13T13:41:59Z</time>
      </trkpt>
      <trkpt lat="46.9949" lon="-0.97456">
        <ele>70</ele>
        <time>2022-01-13T13:42:02Z</time>
      </trkpt>
      <trkpt lat="46.99489" lon="-0.97452">
        <ele>70</ele>
        <time>2022-01-13T13:42:04Z</time>
      </trkpt>
      <trkpt lat="46.99489" lon="-0.97447">
        <ele>71</ele>
        <time>2022-01-13T13:42:07Z</time>
      </trkpt>
      <trkpt lat="46.99488" lon="-0.97442">
        <ele>71</ele>
        <time>2022-01-13T13:42:10Z</time>
      </trkpt>
      <trkpt lat="46.99488" lon="-0.97437">
        <ele>71</ele>
        <time>2022-01-13T13:42:13Z</time>
      </trkpt>
      <trkpt lat="46.99487" lon="-0.97432">
        <ele>70</ele>
        <time>2022-01-13T13:42:16Z</time>
      </trkpt>
      <trkpt lat="46.99487" lon="-0.97427">
        <ele>70</ele>
        <time>2022-01-13T13:42:20Z</time>
      </trkpt>
      <trkpt lat="46.99487" lon="-0.97422">
        <ele>70</ele>
        <time>2022-01-13T13:42:23Z</time>
      </trkpt>
      <trkpt lat="46.99486" lon="-0.97416">
        <ele>70</ele>
        <time>2022-01-13T13:42:27Z</time>
      </trkpt>
      <trkpt lat="46.99487" lon="-0.97411">
        <ele>70</ele>
        <time>2022-01-13T13:42:30Z</time>
      </trkpt>
      <trkpt lat="46.99488" lon="-0.97406">
        <ele>70</ele>
        <time>2022-01-13T13:42:33Z</time>
      </trkpt>
      <trkpt lat="46.99489" lon="-0.97402">
        <ele>70</ele>
        <time>2022-01-13T13:42:35Z</time>
      </trkpt>
      <trkpt lat="46.99488" lon="-0.974">
        <ele>70</ele>
        <time>2022-01-13T13:42:40Z</time>
      </trkpt>
      <trkpt lat="46.99488" lon="-0.97396">
        <ele>70</ele>
        <time>2022-01-13T13:42:50Z</time>
      </trkpt>
      <trkpt lat="46.99487" lon="-0.97392">
        <ele>70</ele>
        <time>2022-01-13T13:42:57Z</time>
      </trkpt>
      <trkpt lat="46.99487" lon="-0.97387">
        <ele>70</ele>
        <time>2022-01-13T13:43:00Z</time>
      </trkpt>
      <trkpt lat="46.99486" lon="-0.97383">
        <ele>70</ele>
        <time>2022-01-13T13:43:03Z</time>
      </trkpt>
      <trkpt lat="46.99487" lon="-0.97378">
        <ele>70</ele>
        <time>2022-01-13T13:43:08Z</time>
      </trkpt>
      <trkpt lat="46.99488" lon="-0.97374">
        <ele>69</ele>
        <time>2022-01-13T13:43:12Z</time>
      </trkpt>
      <trkpt lat="46.99488" lon="-0.9737">
        <ele>69</ele>
        <time>2022-01-13T13:43:38Z</time>
      </trkpt>
      <trkpt lat="46.99489" lon="-0.97366">
        <ele>69</ele>
        <time>2022-01-13T13:43:42Z</time>
      </trkpt>
      <trkpt lat="46.99489" lon="-0.97361">
        <ele>70</ele>
        <time>2022-01-13T13:43:46Z</time>
      </trkpt>
      <trkpt lat="46.9949" lon="-0.97357">
        <ele>70</ele>
        <time>2022-01-13T13:43:49Z</time>
      </trkpt>
      <trkpt lat="46.99491" lon="-0.97352">
        <ele>70</ele>
        <time>2022-01-13T13:43:53Z</time>
      </trkpt>
      <trkpt lat="46.99492" lon="-0.97348">
        <ele>69</ele>
        <time>2022-01-13T13:43:56Z</time>
      </trkpt>
      <trkpt lat="46.99493" lon="-0.97344">
        <ele>70</ele>
        <time>2022-01-13T13:43:58Z</time>
      </trkpt>
      <trkpt lat="46.99495" lon="-0.9734">
        <ele>70</ele>
        <time>2022-01-13T13:44:00Z</time>
      </trkpt>
      <trkpt lat="46.99497" lon="-0.97337">
        <ele>70</ele>
        <time>2022-01-13T13:44:02Z</time>
      </trkpt>
      <trkpt lat="46.99498" lon="-0.97334">
        <ele>70</ele>
        <time>2022-01-13T13:44:05Z</time>
      </trkpt>
      <trkpt lat="46.995" lon="-0.9733">
        <ele>70</ele>
        <time>2022-01-13T13:44:08Z</time>
      </trkpt>
      <trkpt lat="46.995" lon="-0.97325">
        <ele>70</ele>
        <time>2022-01-13T13:44:11Z</time>
      </trkpt>
      <trkpt lat="46.99499" lon="-0.97321">
        <ele>71</ele>
        <time>2022-01-13T13:44:13Z</time>
      </trkpt>
      <trkpt lat="46.995" lon="-0.97317">
        <ele>71</ele>
        <time>2022-01-13T13:44:16Z</time>
      </trkpt>
      <trkpt lat="46.99503" lon="-0.97315">
        <ele>71</ele>
        <time>2022-01-13T13:44:18Z</time>
      </trkpt>
      <trkpt lat="46.99503" lon="-0.97311">
        <ele>70</ele>
        <time>2022-01-13T13:44:21Z</time>
      </trkpt>
      <trkpt lat="46.99505" lon="-0.97308">
        <ele>71</ele>
        <time>2022-01-13T13:44:25Z</time>
      </trkpt>
      <trkpt lat="46.99508" lon="-0.97305">
        <ele>71</ele>
        <time>2022-01-13T13:44:28Z</time>
      </trkpt>
      <trkpt lat="46.99511" lon="-0.97304">
        <ele>71</ele>
        <time>2022-01-13T13:44:30Z</time>
      </trkpt>
      <trkpt lat="46.99512" lon="-0.97299">
        <ele>70</ele>
        <time>2022-01-13T13:44:33Z</time>
      </trkpt>
      <trkpt lat="46.99511" lon="-0.97295">
        <ele>72</ele>
        <time>2022-01-13T13:44:36Z</time>
      </trkpt>
      <trkpt lat="46.99511" lon="-0.97291">
        <ele>72</ele>
        <time>2022-01-13T13:44:39Z</time>
      </trkpt>
      <trkpt lat="46.99511" lon="-0.97286">
        <ele>71</ele>
        <time>2022-01-13T13:44:42Z</time>
      </trkpt>
      <trkpt lat="46.99512" lon="-0.97282">
        <ele>71</ele>
        <time>2022-01-13T13:44:45Z</time>
      </trkpt>
      <trkpt lat="46.99512" lon="-0.97277">
        <ele>71</ele>
        <time>2022-01-13T13:44:49Z</time>
      </trkpt>
      <trkpt lat="46.99512" lon="-0.97273">
        <ele>71</ele>
        <time>2022-01-13T13:44:53Z</time>
      </trkpt>
      <trkpt lat="46.99513" lon="-0.97268">
        <ele>71</ele>
        <time>2022-01-13T13:44:56Z</time>
      </trkpt>
      <trkpt lat="46.99513" lon="-0.97263">
        <ele>71</ele>
        <time>2022-01-13T13:45:01Z</time>
      </trkpt>
      <trkpt lat="46.99514" lon="-0.97259">
        <ele>71</ele>
        <time>2022-01-13T13:45:03Z</time>
      </trkpt>
      <trkpt lat="46.99514" lon="-0.97255">
        <ele>71</ele>
        <time>2022-01-13T13:45:07Z</time>
      </trkpt>
      <trkpt lat="46.99516" lon="-0.97252">
        <ele>72</ele>
        <time>2022-01-13T13:45:10Z</time>
      </trkpt>
      <trkpt lat="46.99518" lon="-0.97249">
        <ele>71</ele>
        <time>2022-01-13T13:45:13Z</time>
      </trkpt>
      <trkpt lat="46.9952" lon="-0.97246">
        <ele>71</ele>
        <time>2022-01-13T13:45:16Z</time>
      </trkpt>
      <trkpt lat="46.99522" lon="-0.97243">
        <ele>71</ele>
        <time>2022-01-13T13:45:18Z</time>
      </trkpt>
      <trkpt lat="46.99524" lon="-0.97239">
        <ele>71</ele>
        <time>2022-01-13T13:45:21Z</time>
      </trkpt>
      <trkpt lat="46.99524" lon="-0.97235">
        <ele>72</ele>
        <time>2022-01-13T13:45:24Z</time>
      </trkpt>
      <trkpt lat="46.99524" lon="-0.97231">
        <ele>72</ele>
        <time>2022-01-13T13:45:27Z</time>
      </trkpt>
      <trkpt lat="46.99524" lon="-0.97227">
        <ele>72</ele>
        <time>2022-01-13T13:45:31Z</time>
      </trkpt>
      <trkpt lat="46.99525" lon="-0.97222">
        <ele>72</ele>
        <time>2022-01-13T13:45:34Z</time>
      </trkpt>
      <trkpt lat="46.99526" lon="-0.97219">
        <ele>72</ele>
        <time>2022-01-13T13:45:37Z</time>
      </trkpt>
      <trkpt lat="46.99527" lon="-0.97215">
        <ele>72</ele>
        <time>2022-01-13T13:45:40Z</time>
      </trkpt>
      <trkpt lat="46.99528" lon="-0.97211">
        <ele>72</ele>
        <time>2022-01-13T13:45:44Z</time>
      </trkpt>
      <trkpt lat="46.99529" lon="-0.97207">
        <ele>72</ele>
        <time>2022-01-13T13:45:48Z</time>
      </trkpt>
      <trkpt lat="46.9953" lon="-0.97203">
        <ele>72</ele>
        <time>2022-01-13T13:45:51Z</time>
      </trkpt>
      <trkpt lat="46.99529" lon="-0.97199">
        <ele>72</ele>
        <time>2022-01-13T13:45:54Z</time>
      </trkpt>
      <trkpt lat="46.99529" lon="-0.97195">
        <ele>72</ele>
        <time>2022-01-13T13:45:57Z</time>
      </trkpt>
      <trkpt lat="46.99529" lon="-0.97191">
        <ele>72</ele>
        <time>2022-01-13T13:45:59Z</time>
      </trkpt>
      <trkpt lat="46.99531" lon="-0.97188">
        <ele>72</ele>
        <time>2022-01-13T13:46:04Z</time>
      </trkpt>
      <trkpt lat="46.99531" lon="-0.97184">
        <ele>72</ele>
        <time>2022-01-13T13:46:07Z</time>
      </trkpt>
      <trkpt lat="46.99531" lon="-0.9718">
        <ele>72</ele>
        <time>2022-01-13T13:46:10Z</time>
      </trkpt>
      <trkpt lat="46.99531" lon="-0.97175">
        <ele>72</ele>
        <time>2022-01-13T13:46:13Z</time>
      </trkpt>
      <trkpt lat="46.99531" lon="-0.97171">
        <ele>73</ele>
        <time>2022-01-13T13:46:16Z</time>
      </trkpt>
      <trkpt lat="46.9953" lon="-0.97166">
        <ele>73</ele>
        <time>2022-01-13T13:46:19Z</time>
      </trkpt>
      <trkpt lat="46.9953" lon="-0.97161">
        <ele>73</ele>
        <time>2022-01-13T13:46:22Z</time>
      </trkpt>
      <trkpt lat="46.9953" lon="-0.97157">
        <ele>72</ele>
        <time>2022-01-13T13:46:25Z</time>
      </trkpt>
      <trkpt lat="46.9953" lon="-0.97152">
        <ele>72</ele>
        <time>2022-01-13T13:46:28Z</time>
      </trkpt>
      <trkpt lat="46.99529" lon="-0.97148">
        <ele>72</ele>
        <time>2022-01-13T13:46:31Z</time>
      </trkpt>
      <trkpt lat="46.99529" lon="-0.97144">
        <ele>71</ele>
        <time>2022-01-13T13:46:34Z</time>
      </trkpt>
      <trkpt lat="46.99529" lon="-0.97139">
        <ele>71</ele>
        <time>2022-01-13T13:46:37Z</time>
      </trkpt>
      <trkpt lat="46.9953" lon="-0.97135">
        <ele>71</ele>
        <time>2022-01-13T13:46:40Z</time>
      </trkpt>
      <trkpt lat="46.9953" lon="-0.9713">
        <ele>71</ele>
        <time>2022-01-13T13:46:43Z</time>
      </trkpt>
      <trkpt lat="46.9953" lon="-0.97126">
        <ele>71</ele>
        <time>2022-01-13T13:46:47Z</time>
      </trkpt>
      <trkpt lat="46.9953" lon="-0.97121">
        <ele>72</ele>
        <time>2022-01-13T13:46:51Z</time>
      </trkpt>
      <trkpt lat="46.99529" lon="-0.97116">
        <ele>72</ele>
        <time>2022-01-13T13:46:54Z</time>
      </trkpt>
      <trkpt lat="46.9953" lon="-0.97111">
        <ele>71</ele>
        <time>2022-01-13T13:46:57Z</time>
      </trkpt>
      <trkpt lat="46.99529" lon="-0.97107">
        <ele>72</ele>
        <time>2022-01-13T13:47:00Z</time>
      </trkpt>
      <trkpt lat="46.9953" lon="-0.97103">
        <ele>72</ele>
        <time>2022-01-13T13:47:03Z</time>
      </trkpt>
      <trkpt lat="46.99531" lon="-0.97098">
        <ele>72</ele>
        <time>2022-01-13T13:47:06Z</time>
      </trkpt>
      <trkpt lat="46.99531" lon="-0.97094">
        <ele>72</ele>
        <time>2022-01-13T13:47:09Z</time>
      </trkpt>
      <trkpt lat="46.99532" lon="-0.97089">
        <ele>72</ele>
        <time>2022-01-13T13:47:12Z</time>
      </trkpt>
      <trkpt lat="46.99532" lon="-0.97085">
        <ele>72</ele>
        <time>2022-01-13T13:47:15Z</time>
      </trkpt>
      <trkpt lat="46.99533" lon="-0.9708">
        <ele>73</ele>
        <time>2022-01-13T13:47:19Z</time>
      </trkpt>
      <trkpt lat="46.99533" lon="-0.97075">
        <ele>73</ele>
        <time>2022-01-13T13:47:24Z</time>
      </trkpt>
      <trkpt lat="46.99533" lon="-0.97071">
        <ele>73</ele>
        <time>2022-01-13T13:47:27Z</time>
      </trkpt>
      <trkpt lat="46.99533" lon="-0.97067">
        <ele>73</ele>
        <time>2022-01-13T13:47:31Z</time>
      </trkpt>
      <trkpt lat="46.99531" lon="-0.97062">
        <ele>73</ele>
        <time>2022-01-13T13:47:34Z</time>
      </trkpt>
      <trkpt lat="46.9953" lon="-0.97058">
        <ele>74</ele>
        <time>2022-01-13T13:47:37Z</time>
      </trkpt>
      <trkpt lat="46.99529" lon="-0.97054">
        <ele>74</ele>
        <time>2022-01-13T13:47:40Z</time>
      </trkpt>
      <trkpt lat="46.99528" lon="-0.97049">
        <ele>74</ele>
        <time>2022-01-13T13:47:43Z</time>
      </trkpt>
      <trkpt lat="46.99527" lon="-0.97044">
        <ele>74</ele>
        <time>2022-01-13T13:47:46Z</time>
      </trkpt>
      <trkpt lat="46.99527" lon="-0.97038">
        <ele>74</ele>
        <time>2022-01-13T13:47:49Z</time>
      </trkpt>
      <trkpt lat="46.99527" lon="-0.97033">
        <ele>74</ele>
        <time>2022-01-13T13:47:52Z</time>
      </trkpt>
      <trkpt lat="46.99528" lon="-0.97029">
        <ele>75</ele>
        <time>2022-01-13T13:47:55Z</time>
      </trkpt>
      <trkpt lat="46.9953" lon="-0.97025">
        <ele>75</ele>
        <time>2022-01-13T13:47:58Z</time>
      </trkpt>
      <trkpt lat="46.99529" lon="-0.9702">
        <ele>75</ele>
        <time>2022-01-13T13:48:01Z</time>
      </trkpt>
      <trkpt lat="46.9953" lon="-0.97016">
        <ele>74</ele>
        <time>2022-01-13T13:48:04Z</time>
      </trkpt>
      <trkpt lat="46.9953" lon="-0.97012">
        <ele>75</ele>
        <time>2022-01-13T13:48:07Z</time>
      </trkpt>
      <trkpt lat="46.99531" lon="-0.97008">
        <ele>75</ele>
        <time>2022-01-13T13:48:10Z</time>
      </trkpt>
      <trkpt lat="46.99532" lon="-0.97003">
        <ele>76</ele>
        <time>2022-01-13T13:48:13Z</time>
      </trkpt>
      <trkpt lat="46.99533" lon="-0.96999">
        <ele>76</ele>
        <time>2022-01-13T13:48:16Z</time>
      </trkpt>
      <trkpt lat="46.99534" lon="-0.96995">
        <ele>76</ele>
        <time>2022-01-13T13:48:19Z</time>
      </trkpt>
      <trkpt lat="46.99535" lon="-0.96991">
        <ele>75</ele>
        <time>2022-01-13T13:48:23Z</time>
      </trkpt>
      <trkpt lat="46.99535" lon="-0.96987">
        <ele>75</ele>
        <time>2022-01-13T13:48:26Z</time>
      </trkpt>
      <trkpt lat="46.99535" lon="-0.96982">
        <ele>75</ele>
        <time>2022-01-13T13:48:29Z</time>
      </trkpt>
      <trkpt lat="46.99536" lon="-0.96978">
        <ele>75</ele>
        <time>2022-01-13T13:48:32Z</time>
      </trkpt>
      <trkpt lat="46.99536" lon="-0.96974">
        <ele>75</ele>
        <time>2022-01-13T13:48:35Z</time>
      </trkpt>
      <trkpt lat="46.99536" lon="-0.9697">
        <ele>75</ele>
        <time>2022-01-13T13:48:38Z</time>
      </trkpt>
      <trkpt lat="46.99536" lon="-0.96965">
        <ele>76</ele>
        <time>2022-01-13T13:48:41Z</time>
      </trkpt>
      <trkpt lat="46.99537" lon="-0.96959">
        <ele>76</ele>
        <time>2022-01-13T13:48:44Z</time>
      </trkpt>
      <trkpt lat="46.99539" lon="-0.96955">
        <ele>75</ele>
        <time>2022-01-13T13:48:47Z</time>
      </trkpt>
      <trkpt lat="46.99541" lon="-0.9695">
        <ele>75</ele>
        <time>2022-01-13T13:48:50Z</time>
      </trkpt>
      <trkpt lat="46.99542" lon="-0.96946">
        <ele>77</ele>
        <time>2022-01-13T13:48:53Z</time>
      </trkpt>
      <trkpt lat="46.99542" lon="-0.96941">
        <ele>76</ele>
        <time>2022-01-13T13:48:56Z</time>
      </trkpt>
      <trkpt lat="46.99542" lon="-0.96937">
        <ele>76</ele>
        <time>2022-01-13T13:48:59Z</time>
      </trkpt>
      <trkpt lat="46.99543" lon="-0.96933">
        <ele>76</ele>
        <time>2022-01-13T13:49:02Z</time>
      </trkpt>
      <trkpt lat="46.99545" lon="-0.96929">
        <ele>77</ele>
        <time>2022-01-13T13:49:06Z</time>
      </trkpt>
      <trkpt lat="46.99547" lon="-0.96926">
        <ele>77</ele>
        <time>2022-01-13T13:49:08Z</time>
      </trkpt>
      <trkpt lat="46.99549" lon="-0.96921">
        <ele>76</ele>
        <time>2022-01-13T13:49:10Z</time>
      </trkpt>
      <trkpt lat="46.99548" lon="-0.96917">
        <ele>77</ele>
        <time>2022-01-13T13:49:15Z</time>
      </trkpt>
      <trkpt lat="46.99547" lon="-0.96913">
        <ele>76</ele>
        <time>2022-01-13T13:49:18Z</time>
      </trkpt>
      <trkpt lat="46.99546" lon="-0.96908">
        <ele>76</ele>
        <time>2022-01-13T13:49:21Z</time>
      </trkpt>
      <trkpt lat="46.99547" lon="-0.96903">
        <ele>75</ele>
        <time>2022-01-13T13:49:25Z</time>
      </trkpt>
      <trkpt lat="46.99548" lon="-0.96898">
        <ele>75</ele>
        <time>2022-01-13T13:49:28Z</time>
      </trkpt>
      <trkpt lat="46.99549" lon="-0.96894">
        <ele>75</ele>
        <time>2022-01-13T13:49:31Z</time>
      </trkpt>
      <trkpt lat="46.99549" lon="-0.96889">
        <ele>75</ele>
        <time>2022-01-13T13:49:34Z</time>
      </trkpt>
      <trkpt lat="46.9955" lon="-0.96884">
        <ele>76</ele>
        <time>2022-01-13T13:49:38Z</time>
      </trkpt>
      <trkpt lat="46.9955" lon="-0.9688">
        <ele>76</ele>
        <time>2022-01-13T13:49:41Z</time>
      </trkpt>
      <trkpt lat="46.99551" lon="-0.96875">
        <ele>76</ele>
        <time>2022-01-13T13:49:44Z</time>
      </trkpt>
      <trkpt lat="46.99553" lon="-0.96871">
        <ele>75</ele>
        <time>2022-01-13T13:49:47Z</time>
      </trkpt>
      <trkpt lat="46.99554" lon="-0.96867">
        <ele>75</ele>
        <time>2022-01-13T13:49:50Z</time>
      </trkpt>
      <trkpt lat="46.99555" lon="-0.96863">
        <ele>75</ele>
        <time>2022-01-13T13:49:52Z</time>
      </trkpt>
      <trkpt lat="46.99557" lon="-0.96859">
        <ele>75</ele>
        <time>2022-01-13T13:49:56Z</time>
      </trkpt>
      <trkpt lat="46.99558" lon="-0.96855">
        <ele>75</ele>
        <time>2022-01-13T13:49:58Z</time>
      </trkpt>
      <trkpt lat="46.99561" lon="-0.96852">
        <ele>75</ele>
        <time>2022-01-13T13:50:00Z</time>
      </trkpt>
      <trkpt lat="46.99563" lon="-0.96847">
        <ele>75</ele>
        <time>2022-01-13T13:50:03Z</time>
      </trkpt>
      <trkpt lat="46.99565" lon="-0.96844">
        <ele>76</ele>
        <time>2022-01-13T13:50:05Z</time>
      </trkpt>
      <trkpt lat="46.99567" lon="-0.96839">
        <ele>75</ele>
        <time>2022-01-13T13:50:08Z</time>
      </trkpt>
      <trkpt lat="46.99569" lon="-0.96836">
        <ele>75</ele>
        <time>2022-01-13T13:50:11Z</time>
      </trkpt>
      <trkpt lat="46.99571" lon="-0.96833">
        <ele>75</ele>
        <time>2022-01-13T13:50:15Z</time>
      </trkpt>
      <trkpt lat="46.99574" lon="-0.9683">
        <ele>75</ele>
        <time>2022-01-13T13:50:18Z</time>
      </trkpt>
      <trkpt lat="46.99577" lon="-0.96826">
        <ele>75</ele>
        <time>2022-01-13T13:50:20Z</time>
      </trkpt>
      <trkpt lat="46.99579" lon="-0.96823">
        <ele>75</ele>
        <time>2022-01-13T13:50:25Z</time>
      </trkpt>
      <trkpt lat="46.99581" lon="-0.96819">
        <ele>76</ele>
        <time>2022-01-13T13:50:31Z</time>
      </trkpt>
      <trkpt lat="46.99583" lon="-0.96816">
        <ele>75</ele>
        <time>2022-01-13T13:50:34Z</time>
      </trkpt>
      <trkpt lat="46.99585" lon="-0.96813">
        <ele>75</ele>
        <time>2022-01-13T13:50:36Z</time>
      </trkpt>
      <trkpt lat="46.99587" lon="-0.96809">
        <ele>75</ele>
        <time>2022-01-13T13:50:39Z</time>
      </trkpt>
      <trkpt lat="46.99589" lon="-0.96807">
        <ele>75</ele>
        <time>2022-01-13T13:50:42Z</time>
      </trkpt>
      <trkpt lat="46.99591" lon="-0.96804">
        <ele>75</ele>
        <time>2022-01-13T13:50:45Z</time>
      </trkpt>
      <trkpt lat="46.99594" lon="-0.96802">
        <ele>75</ele>
        <time>2022-01-13T13:50:48Z</time>
      </trkpt>
      <trkpt lat="46.99597" lon="-0.968">
        <ele>75</ele>
        <time>2022-01-13T13:50:52Z</time>
      </trkpt>
      <trkpt lat="46.996" lon="-0.96798">
        <ele>75</ele>
        <time>2022-01-13T13:50:55Z</time>
      </trkpt>
      <trkpt lat="46.99602" lon="-0.96795">
        <ele>75</ele>
        <time>2022-01-13T13:50:58Z</time>
      </trkpt>
      <trkpt lat="46.99604" lon="-0.96792">
        <ele>75</ele>
        <time>2022-01-13T13:51:01Z</time>
      </trkpt>
      <trkpt lat="46.99606" lon="-0.96789">
        <ele>75</ele>
        <time>2022-01-13T13:51:04Z</time>
      </trkpt>
      <trkpt lat="46.99609" lon="-0.96785">
        <ele>75</ele>
        <time>2022-01-13T13:51:07Z</time>
      </trkpt>
      <trkpt lat="46.99612" lon="-0.96783">
        <ele>76</ele>
        <time>2022-01-13T13:51:10Z</time>
      </trkpt>
      <trkpt lat="46.99615" lon="-0.9678">
        <ele>76</ele>
        <time>2022-01-13T13:51:13Z</time>
      </trkpt>
      <trkpt lat="46.99618" lon="-0.96777">
        <ele>75</ele>
        <time>2022-01-13T13:51:16Z</time>
      </trkpt>
      <trkpt lat="46.9962" lon="-0.96773">
        <ele>75</ele>
        <time>2022-01-13T13:51:20Z</time>
      </trkpt>
      <trkpt lat="46.99623" lon="-0.9677">
        <ele>76</ele>
        <time>2022-01-13T13:51:23Z</time>
      </trkpt>
      <trkpt lat="46.99625" lon="-0.96766">
        <ele>76</ele>
        <time>2022-01-13T13:51:26Z</time>
      </trkpt>
      <trkpt lat="46.99626" lon="-0.96763">
        <ele>75</ele>
        <time>2022-01-13T13:51:29Z</time>
      </trkpt>
      <trkpt lat="46.99628" lon="-0.9676">
        <ele>75</ele>
        <time>2022-01-13T13:51:31Z</time>
      </trkpt>
      <trkpt lat="46.99631" lon="-0.96757">
        <ele>76</ele>
        <time>2022-01-13T13:51:33Z</time>
      </trkpt>
      <trkpt lat="46.99633" lon="-0.96755">
        <ele>76</ele>
        <time>2022-01-13T13:51:38Z</time>
      </trkpt>
      <trkpt lat="46.99636" lon="-0.96751">
        <ele>76</ele>
        <time>2022-01-13T13:51:41Z</time>
      </trkpt>
      <trkpt lat="46.99639" lon="-0.96747">
        <ele>76</ele>
        <time>2022-01-13T13:51:45Z</time>
      </trkpt>
      <trkpt lat="46.99641" lon="-0.96743">
        <ele>75</ele>
        <time>2022-01-13T13:51:47Z</time>
      </trkpt>
      <trkpt lat="46.99643" lon="-0.96739">
        <ele>76</ele>
        <time>2022-01-13T13:51:50Z</time>
      </trkpt>
      <trkpt lat="46.99646" lon="-0.96736">
        <ele>76</ele>
        <time>2022-01-13T13:51:53Z</time>
      </trkpt>
      <trkpt lat="46.99647" lon="-0.96733">
        <ele>76</ele>
        <time>2022-01-13T13:51:56Z</time>
      </trkpt>
      <trkpt lat="46.99649" lon="-0.96729">
        <ele>76</ele>
        <time>2022-01-13T13:52:00Z</time>
      </trkpt>
      <trkpt lat="46.99651" lon="-0.96724">
        <ele>76</ele>
        <time>2022-01-13T13:52:03Z</time>
      </trkpt>
      <trkpt lat="46.99653" lon="-0.96721">
        <ele>76</ele>
        <time>2022-01-13T13:52:05Z</time>
      </trkpt>
      <trkpt lat="46.99655" lon="-0.96717">
        <ele>76</ele>
        <time>2022-01-13T13:52:08Z</time>
      </trkpt>
      <trkpt lat="46.99657" lon="-0.96713">
        <ele>76</ele>
        <time>2022-01-13T13:52:11Z</time>
      </trkpt>
      <trkpt lat="46.99659" lon="-0.96709">
        <ele>76</ele>
        <time>2022-01-13T13:52:15Z</time>
      </trkpt>
      <trkpt lat="46.99661" lon="-0.96705">
        <ele>76</ele>
        <time>2022-01-13T13:52:20Z</time>
      </trkpt>
      <trkpt lat="46.99663" lon="-0.96701">
        <ele>76</ele>
        <time>2022-01-13T13:52:24Z</time>
      </trkpt>
      <trkpt lat="46.99663" lon="-0.96697">
        <ele>77</ele>
        <time>2022-01-13T13:52:27Z</time>
      </trkpt>
      <trkpt lat="46.99664" lon="-0.96692">
        <ele>76</ele>
        <time>2022-01-13T13:52:29Z</time>
      </trkpt>
      <trkpt lat="46.99664" lon="-0.96688">
        <ele>77</ele>
        <time>2022-01-13T13:52:32Z</time>
      </trkpt>
      <trkpt lat="46.99663" lon="-0.96688">
        <ele>77</ele>
        <time>2022-01-13T13:52:39Z</time>
      </trkpt>
      <trkpt lat="46.9966" lon="-0.96689">
        <ele>77</ele>
        <time>2022-01-13T13:52:44Z</time>
      </trkpt>
      <trkpt lat="46.99661" lon="-0.96687">
        <ele>77</ele>
        <time>2022-01-13T13:52:55Z</time>
      </trkpt>
      <trkpt lat="46.99663" lon="-0.96688">
        <ele>77</ele>
        <time>2022-01-13T13:53:01Z</time>
      </trkpt>
      <trkpt lat="46.99662" lon="-0.96688">
        <ele>77</ele>
        <time>2022-01-13T13:53:32Z</time>
      </trkpt>
      <trkpt lat="46.99662" lon="-0.96685">
        <ele>77</ele>
        <time>2022-01-13T13:54:22Z</time>
      </trkpt>
      <trkpt lat="46.99663" lon="-0.96681">
        <ele>77</ele>
        <time>2022-01-13T13:54:25Z</time>
      </trkpt>
      <trkpt lat="46.99665" lon="-0.96678">
        <ele>77</ele>
        <time>2022-01-13T13:54:29Z</time>
      </trkpt>
      <trkpt lat="46.99666" lon="-0.96674">
        <ele>77</ele>
        <time>2022-01-13T13:54:32Z</time>
      </trkpt>
      <trkpt lat="46.99668" lon="-0.9667">
        <ele>77</ele>
        <time>2022-01-13T13:54:37Z</time>
      </trkpt>
      <trkpt lat="46.99668" lon="-0.96666">
        <ele>77</ele>
        <time>2022-01-13T13:54:41Z</time>
      </trkpt>
      <trkpt lat="46.99668" lon="-0.96661">
        <ele>78</ele>
        <time>2022-01-13T13:54:48Z</time>
      </trkpt>
      <trkpt lat="46.99669" lon="-0.96655">
        <ele>78</ele>
        <time>2022-01-13T13:54:52Z</time>
      </trkpt>
      <trkpt lat="46.99667" lon="-0.96651">
        <ele>78</ele>
        <time>2022-01-13T13:54:55Z</time>
      </trkpt>
      <trkpt lat="46.99665" lon="-0.96647">
        <ele>78</ele>
        <time>2022-01-13T13:54:59Z</time>
      </trkpt>
      <trkpt lat="46.99663" lon="-0.96644">
        <ele>78</ele>
        <time>2022-01-13T13:55:02Z</time>
      </trkpt>
      <trkpt lat="46.9966" lon="-0.96641">
        <ele>78</ele>
        <time>2022-01-13T13:55:05Z</time>
      </trkpt>
      <trkpt lat="46.99659" lon="-0.96636">
        <ele>78</ele>
        <time>2022-01-13T13:55:09Z</time>
      </trkpt>
      <trkpt lat="46.99657" lon="-0.96631">
        <ele>79</ele>
        <time>2022-01-13T13:55:13Z</time>
      </trkpt>
      <trkpt lat="46.99656" lon="-0.96627">
        <ele>78</ele>
        <time>2022-01-13T13:55:16Z</time>
      </trkpt>
      <trkpt lat="46.99654" lon="-0.96623">
        <ele>78</ele>
        <time>2022-01-13T13:55:21Z</time>
      </trkpt>
      <trkpt lat="46.99653" lon="-0.96618">
        <ele>77</ele>
        <time>2022-01-13T13:55:28Z</time>
      </trkpt>
      <trkpt lat="46.99651" lon="-0.96614">
        <ele>77</ele>
        <time>2022-01-13T13:55:31Z</time>
      </trkpt>
      <trkpt lat="46.9965" lon="-0.96609">
        <ele>77</ele>
        <time>2022-01-13T13:55:34Z</time>
      </trkpt>
      <trkpt lat="46.99649" lon="-0.96605">
        <ele>78</ele>
        <time>2022-01-13T13:55:40Z</time>
      </trkpt>
      <trkpt lat="46.99647" lon="-0.96601">
        <ele>78</ele>
        <time>2022-01-13T13:55:43Z</time>
      </trkpt>
      <trkpt lat="46.99646" lon="-0.96596">
        <ele>78</ele>
        <time>2022-01-13T13:55:45Z</time>
      </trkpt>
      <trkpt lat="46.99644" lon="-0.96593">
        <ele>78</ele>
        <time>2022-01-13T13:55:47Z</time>
      </trkpt>
      <trkpt lat="46.99643" lon="-0.96589">
        <ele>78</ele>
        <time>2022-01-13T13:55:49Z</time>
      </trkpt>
      <trkpt lat="46.99641" lon="-0.96585">
        <ele>78</ele>
        <time>2022-01-13T13:55:52Z</time>
      </trkpt>
      <trkpt lat="46.9964" lon="-0.96581">
        <ele>78</ele>
        <time>2022-01-13T13:55:54Z</time>
      </trkpt>
      <trkpt lat="46.99638" lon="-0.96577">
        <ele>78</ele>
        <time>2022-01-13T13:55:57Z</time>
      </trkpt>
      <trkpt lat="46.99637" lon="-0.96573">
        <ele>79</ele>
        <time>2022-01-13T13:56:00Z</time>
      </trkpt>
      <trkpt lat="46.99635" lon="-0.9657">
        <ele>78</ele>
        <time>2022-01-13T13:56:03Z</time>
      </trkpt>
      <trkpt lat="46.99633" lon="-0.96567">
        <ele>78</ele>
        <time>2022-01-13T13:56:06Z</time>
      </trkpt>
      <trkpt lat="46.99631" lon="-0.96563">
        <ele>78</ele>
        <time>2022-01-13T13:56:09Z</time>
      </trkpt>
      <trkpt lat="46.99629" lon="-0.9656">
        <ele>78</ele>
        <time>2022-01-13T13:56:13Z</time>
      </trkpt>
      <trkpt lat="46.99626" lon="-0.96557">
        <ele>77</ele>
        <time>2022-01-13T13:56:16Z</time>
      </trkpt>
      <trkpt lat="46.99624" lon="-0.96554">
        <ele>77</ele>
        <time>2022-01-13T13:56:19Z</time>
      </trkpt>
      <trkpt lat="46.99622" lon="-0.9655">
        <ele>77</ele>
        <time>2022-01-13T13:56:22Z</time>
      </trkpt>
      <trkpt lat="46.9962" lon="-0.96546">
        <ele>78</ele>
        <time>2022-01-13T13:56:25Z</time>
      </trkpt>
      <trkpt lat="46.99618" lon="-0.96542">
        <ele>77</ele>
        <time>2022-01-13T13:56:29Z</time>
      </trkpt>
      <trkpt lat="46.99616" lon="-0.96539">
        <ele>78</ele>
        <time>2022-01-13T13:56:32Z</time>
      </trkpt>
      <trkpt lat="46.99614" lon="-0.96535">
        <ele>77</ele>
        <time>2022-01-13T13:56:35Z</time>
      </trkpt>
      <trkpt lat="46.99612" lon="-0.96532">
        <ele>77</ele>
        <time>2022-01-13T13:56:39Z</time>
      </trkpt>
      <trkpt lat="46.9961" lon="-0.96529">
        <ele>77</ele>
        <time>2022-01-13T13:56:42Z</time>
      </trkpt>
      <trkpt lat="46.99608" lon="-0.96525">
        <ele>77</ele>
        <time>2022-01-13T13:56:45Z</time>
      </trkpt>
      <trkpt lat="46.99606" lon="-0.96522">
        <ele>77</ele>
        <time>2022-01-13T13:56:48Z</time>
      </trkpt>
      <trkpt lat="46.99603" lon="-0.96519">
        <ele>77</ele>
        <time>2022-01-13T13:56:51Z</time>
      </trkpt>
      <trkpt lat="46.99601" lon="-0.96516">
        <ele>77</ele>
        <time>2022-01-13T13:56:54Z</time>
      </trkpt>
      <trkpt lat="46.996" lon="-0.96513">
        <ele>77</ele>
        <time>2022-01-13T13:56:57Z</time>
      </trkpt>
      <trkpt lat="46.99598" lon="-0.96509">
        <ele>77</ele>
        <time>2022-01-13T13:57:01Z</time>
      </trkpt>
      <trkpt lat="46.99597" lon="-0.96505">
        <ele>77</ele>
        <time>2022-01-13T13:57:04Z</time>
      </trkpt>
      <trkpt lat="46.99595" lon="-0.96501">
        <ele>78</ele>
        <time>2022-01-13T13:57:07Z</time>
      </trkpt>
      <trkpt lat="46.99593" lon="-0.96497">
        <ele>78</ele>
        <time>2022-01-13T13:57:10Z</time>
      </trkpt>
      <trkpt lat="46.99591" lon="-0.96493">
        <ele>78</ele>
        <time>2022-01-13T13:57:13Z</time>
      </trkpt>
      <trkpt lat="46.99589" lon="-0.9649">
        <ele>78</ele>
        <time>2022-01-13T13:57:17Z</time>
      </trkpt>
      <trkpt lat="46.99586" lon="-0.96487">
        <ele>78</ele>
        <time>2022-01-13T13:57:24Z</time>
      </trkpt>
      <trkpt lat="46.99585" lon="-0.96483">
        <ele>78</ele>
        <time>2022-01-13T13:57:39Z</time>
      </trkpt>
      <trkpt lat="46.99583" lon="-0.9648">
        <ele>79</ele>
        <time>2022-01-13T13:57:52Z</time>
      </trkpt>
      <trkpt lat="46.99581" lon="-0.96477">
        <ele>78</ele>
        <time>2022-01-13T13:58:14Z</time>
      </trkpt>
      <trkpt lat="46.99579" lon="-0.96475">
        <ele>77</ele>
        <time>2022-01-13T13:58:23Z</time>
      </trkpt>
      <trkpt lat="46.99576" lon="-0.96474">
        <ele>77</ele>
        <time>2022-01-13T13:58:25Z</time>
      </trkpt>
      <trkpt lat="46.99573" lon="-0.96473">
        <ele>76</ele>
        <time>2022-01-13T13:58:28Z</time>
      </trkpt>
      <trkpt lat="46.99569" lon="-0.96472">
        <ele>76</ele>
        <time>2022-01-13T13:58:31Z</time>
      </trkpt>
      <trkpt lat="46.99567" lon="-0.9647">
        <ele>75</ele>
        <time>2022-01-13T13:58:35Z</time>
      </trkpt>
      <trkpt lat="46.99564" lon="-0.96466">
        <ele>76</ele>
        <time>2022-01-13T13:58:38Z</time>
      </trkpt>
      <trkpt lat="46.99562" lon="-0.96462">
        <ele>76</ele>
        <time>2022-01-13T13:58:41Z</time>
      </trkpt>
      <trkpt lat="46.9956" lon="-0.96458">
        <ele>76</ele>
        <time>2022-01-13T13:58:44Z</time>
      </trkpt>
      <trkpt lat="46.99557" lon="-0.96455">
        <ele>76</ele>
        <time>2022-01-13T13:58:47Z</time>
      </trkpt>
      <trkpt lat="46.99556" lon="-0.96451">
        <ele>75</ele>
        <time>2022-01-13T13:58:51Z</time>
      </trkpt>
      <trkpt lat="46.99555" lon="-0.96446">
        <ele>76</ele>
        <time>2022-01-13T13:58:55Z</time>
      </trkpt>
      <trkpt lat="46.99554" lon="-0.96442">
        <ele>75</ele>
        <time>2022-01-13T13:59:00Z</time>
      </trkpt>
      <trkpt lat="46.99552" lon="-0.96439">
        <ele>76</ele>
        <time>2022-01-13T13:59:04Z</time>
      </trkpt>
      <trkpt lat="46.9955" lon="-0.96435">
        <ele>75</ele>
        <time>2022-01-13T13:59:07Z</time>
      </trkpt>
      <trkpt lat="46.99549" lon="-0.96432">
        <ele>75</ele>
        <time>2022-01-13T13:59:09Z</time>
      </trkpt>
      <trkpt lat="46.99546" lon="-0.96429">
        <ele>75</ele>
        <time>2022-01-13T13:59:12Z</time>
      </trkpt>
      <trkpt lat="46.99544" lon="-0.96425">
        <ele>76</ele>
        <time>2022-01-13T13:59:15Z</time>
      </trkpt>
      <trkpt lat="46.99541" lon="-0.96422">
        <ele>75</ele>
        <time>2022-01-13T13:59:18Z</time>
      </trkpt>
      <trkpt lat="46.9954" lon="-0.96418">
        <ele>75</ele>
        <time>2022-01-13T13:59:20Z</time>
      </trkpt>
      <trkpt lat="46.99538" lon="-0.96414">
        <ele>76</ele>
        <time>2022-01-13T13:59:23Z</time>
      </trkpt>
      <trkpt lat="46.99536" lon="-0.96411">
        <ele>75</ele>
        <time>2022-01-13T13:59:25Z</time>
      </trkpt>
      <trkpt lat="46.99534" lon="-0.96407">
        <ele>75</ele>
        <time>2022-01-13T13:59:28Z</time>
      </trkpt>
      <trkpt lat="46.99532" lon="-0.96404">
        <ele>75</ele>
        <time>2022-01-13T13:59:31Z</time>
      </trkpt>
      <trkpt lat="46.9953" lon="-0.96402">
        <ele>75</ele>
        <time>2022-01-13T13:59:34Z</time>
      </trkpt>
      <trkpt lat="46.99527" lon="-0.96399">
        <ele>75</ele>
        <time>2022-01-13T13:59:37Z</time>
      </trkpt>
      <trkpt lat="46.99525" lon="-0.96395">
        <ele>76</ele>
        <time>2022-01-13T13:59:40Z</time>
      </trkpt>
      <trkpt lat="46.99523" lon="-0.96391">
        <ele>76</ele>
        <time>2022-01-13T13:59:43Z</time>
      </trkpt>
      <trkpt lat="46.99521" lon="-0.96387">
        <ele>75</ele>
        <time>2022-01-13T13:59:46Z</time>
      </trkpt>
      <trkpt lat="46.99519" lon="-0.96384">
        <ele>75</ele>
        <time>2022-01-13T13:59:49Z</time>
      </trkpt>
      <trkpt lat="46.99516" lon="-0.9638">
        <ele>76</ele>
        <time>2022-01-13T13:59:52Z</time>
      </trkpt>
      <trkpt lat="46.99514" lon="-0.96377">
        <ele>76</ele>
        <time>2022-01-13T13:59:55Z</time>
      </trkpt>
      <trkpt lat="46.99512" lon="-0.96373">
        <ele>76</ele>
        <time>2022-01-13T13:59:58Z</time>
      </trkpt>
      <trkpt lat="46.99511" lon="-0.96368">
        <ele>76</ele>
        <time>2022-01-13T14:00:03Z</time>
      </trkpt>
      <trkpt lat="46.9951" lon="-0.96364">
        <ele>76</ele>
        <time>2022-01-13T14:00:06Z</time>
      </trkpt>
      <trkpt lat="46.99509" lon="-0.9636">
        <ele>76</ele>
        <time>2022-01-13T14:00:10Z</time>
      </trkpt>
      <trkpt lat="46.99508" lon="-0.96355">
        <ele>76</ele>
        <time>2022-01-13T14:00:15Z</time>
      </trkpt>
      <trkpt lat="46.99507" lon="-0.96351">
        <ele>76</ele>
        <time>2022-01-13T14:00:23Z</time>
      </trkpt>
      <trkpt lat="46.99505" lon="-0.96347">
        <ele>76</ele>
        <time>2022-01-13T14:00:26Z</time>
      </trkpt>
      <trkpt lat="46.99503" lon="-0.96342">
        <ele>76</ele>
        <time>2022-01-13T14:00:28Z</time>
      </trkpt>
      <trkpt lat="46.99502" lon="-0.96336">
        <ele>76</ele>
        <time>2022-01-13T14:00:30Z</time>
      </trkpt>
      <trkpt lat="46.99501" lon="-0.96331">
        <ele>76</ele>
        <time>2022-01-13T14:00:37Z</time>
      </trkpt>
      <trkpt lat="46.99499" lon="-0.96327">
        <ele>76</ele>
        <time>2022-01-13T14:00:40Z</time>
      </trkpt>
      <trkpt lat="46.99497" lon="-0.96323">
        <ele>75</ele>
        <time>2022-01-13T14:00:46Z</time>
      </trkpt>
      <trkpt lat="46.99495" lon="-0.9632">
        <ele>75</ele>
        <time>2022-01-13T14:00:51Z</time>
      </trkpt>
      <trkpt lat="46.99494" lon="-0.96315">
        <ele>76</ele>
        <time>2022-01-13T14:00:55Z</time>
      </trkpt>
      <trkpt lat="46.99492" lon="-0.96311">
        <ele>75</ele>
        <time>2022-01-13T14:00:58Z</time>
      </trkpt>
      <trkpt lat="46.99491" lon="-0.96306">
        <ele>75</ele>
        <time>2022-01-13T14:01:01Z</time>
      </trkpt>
      <trkpt lat="46.99491" lon="-0.96301">
        <ele>75</ele>
        <time>2022-01-13T14:01:04Z</time>
      </trkpt>
      <trkpt lat="46.99489" lon="-0.96298">
        <ele>75</ele>
        <time>2022-01-13T14:01:06Z</time>
      </trkpt>
      <trkpt lat="46.99487" lon="-0.96295">
        <ele>75</ele>
        <time>2022-01-13T14:01:08Z</time>
      </trkpt>
      <trkpt lat="46.99486" lon="-0.96291">
        <ele>75</ele>
        <time>2022-01-13T14:01:11Z</time>
      </trkpt>
      <trkpt lat="46.99485" lon="-0.96287">
        <ele>74</ele>
        <time>2022-01-13T14:01:15Z</time>
      </trkpt>
      <trkpt lat="46.99485" lon="-0.96282">
        <ele>75</ele>
        <time>2022-01-13T14:01:18Z</time>
      </trkpt>
      <trkpt lat="46.99485" lon="-0.96278">
        <ele>75</ele>
        <time>2022-01-13T14:01:21Z</time>
      </trkpt>
      <trkpt lat="46.99484" lon="-0.96274">
        <ele>75</ele>
        <time>2022-01-13T14:01:24Z</time>
      </trkpt>
      <trkpt lat="46.99483" lon="-0.96269">
        <ele>75</ele>
        <time>2022-01-13T14:01:27Z</time>
      </trkpt>
      <trkpt lat="46.99483" lon="-0.96264">
        <ele>74</ele>
        <time>2022-01-13T14:01:30Z</time>
      </trkpt>
      <trkpt lat="46.99483" lon="-0.96259">
        <ele>75</ele>
        <time>2022-01-13T14:01:32Z</time>
      </trkpt>
      <trkpt lat="46.99482" lon="-0.96255">
        <ele>75</ele>
        <time>2022-01-13T14:01:34Z</time>
      </trkpt>
      <trkpt lat="46.9948" lon="-0.96251">
        <ele>75</ele>
        <time>2022-01-13T14:01:37Z</time>
      </trkpt>
      <trkpt lat="46.99478" lon="-0.96247">
        <ele>75</ele>
        <time>2022-01-13T14:01:40Z</time>
      </trkpt>
      <trkpt lat="46.99476" lon="-0.96244">
        <ele>75</ele>
        <time>2022-01-13T14:01:44Z</time>
      </trkpt>
      <trkpt lat="46.99473" lon="-0.96241">
        <ele>75</ele>
        <time>2022-01-13T14:01:48Z</time>
      </trkpt>
      <trkpt lat="46.99471" lon="-0.96237">
        <ele>74</ele>
        <time>2022-01-13T14:01:52Z</time>
      </trkpt>
      <trkpt lat="46.9947" lon="-0.96233">
        <ele>74</ele>
        <time>2022-01-13T14:01:54Z</time>
      </trkpt>
      <trkpt lat="46.99469" lon="-0.96229">
        <ele>75</ele>
        <time>2022-01-13T14:01:56Z</time>
      </trkpt>
      <trkpt lat="46.99467" lon="-0.96225">
        <ele>75</ele>
        <time>2022-01-13T14:02:01Z</time>
      </trkpt>
      <trkpt lat="46.99466" lon="-0.96222">
        <ele>75</ele>
        <time>2022-01-13T14:02:04Z</time>
      </trkpt>
      <trkpt lat="46.99465" lon="-0.96217">
        <ele>75</ele>
        <time>2022-01-13T14:02:08Z</time>
      </trkpt>
      <trkpt lat="46.99464" lon="-0.96212">
        <ele>75</ele>
        <time>2022-01-13T14:02:11Z</time>
      </trkpt>
      <trkpt lat="46.99462" lon="-0.96209">
        <ele>74</ele>
        <time>2022-01-13T14:02:15Z</time>
      </trkpt>
      <trkpt lat="46.9946" lon="-0.96205">
        <ele>75</ele>
        <time>2022-01-13T14:02:19Z</time>
      </trkpt>
      <trkpt lat="46.99459" lon="-0.962">
        <ele>75</ele>
        <time>2022-01-13T14:02:22Z</time>
      </trkpt>
      <trkpt lat="46.99458" lon="-0.96196">
        <ele>74</ele>
        <time>2022-01-13T14:02:26Z</time>
      </trkpt>
      <trkpt lat="46.99456" lon="-0.96192">
        <ele>74</ele>
        <time>2022-01-13T14:02:30Z</time>
      </trkpt>
      <trkpt lat="46.99455" lon="-0.96187">
        <ele>75</ele>
        <time>2022-01-13T14:02:33Z</time>
      </trkpt>
      <trkpt lat="46.99454" lon="-0.96182">
        <ele>74</ele>
        <time>2022-01-13T14:02:36Z</time>
      </trkpt>
      <trkpt lat="46.99452" lon="-0.96178">
        <ele>75</ele>
        <time>2022-01-13T14:02:39Z</time>
      </trkpt>
      <trkpt lat="46.9945" lon="-0.96174">
        <ele>75</ele>
        <time>2022-01-13T14:02:43Z</time>
      </trkpt>
      <trkpt lat="46.99449" lon="-0.96169">
        <ele>74</ele>
        <time>2022-01-13T14:02:45Z</time>
      </trkpt>
      <trkpt lat="46.99447" lon="-0.96165">
        <ele>75</ele>
        <time>2022-01-13T14:02:47Z</time>
      </trkpt>
      <trkpt lat="46.99445" lon="-0.96163">
        <ele>75</ele>
        <time>2022-01-13T14:03:03Z</time>
      </trkpt>
      <trkpt lat="46.99444" lon="-0.9616">
        <ele>75</ele>
        <time>2022-01-13T14:03:47Z</time>
      </trkpt>
      <trkpt lat="46.99442" lon="-0.96156">
        <ele>75</ele>
        <time>2022-01-13T14:03:51Z</time>
      </trkpt>
      <trkpt lat="46.99443" lon="-0.96153">
        <ele>75</ele>
        <time>2022-01-13T14:04:11Z</time>
      </trkpt>
      <trkpt lat="46.99442" lon="-0.96151">
        <ele>75</ele>
        <time>2022-01-13T14:04:16Z</time>
      </trkpt>
      <trkpt lat="46.9944" lon="-0.96149">
        <ele>75</ele>
        <time>2022-01-13T14:04:19Z</time>
      </trkpt>
      <trkpt lat="46.99437" lon="-0.96146">
        <ele>75</ele>
        <time>2022-01-13T14:04:23Z</time>
      </trkpt>
      <trkpt lat="46.99435" lon="-0.96143">
        <ele>75</ele>
        <time>2022-01-13T14:04:26Z</time>
      </trkpt>
      <trkpt lat="46.99433" lon="-0.96139">
        <ele>76</ele>
        <time>2022-01-13T14:04:29Z</time>
      </trkpt>
      <trkpt lat="46.99431" lon="-0.96134">
        <ele>75</ele>
        <time>2022-01-13T14:04:33Z</time>
      </trkpt>
      <trkpt lat="46.99428" lon="-0.96131">
        <ele>74</ele>
        <time>2022-01-13T14:04:36Z</time>
      </trkpt>
      <trkpt lat="46.99426" lon="-0.96129">
        <ele>74</ele>
        <time>2022-01-13T14:04:38Z</time>
      </trkpt>
      <trkpt lat="46.99424" lon="-0.96125">
        <ele>75</ele>
        <time>2022-01-13T14:04:43Z</time>
      </trkpt>
      <trkpt lat="46.99422" lon="-0.96121">
        <ele>74</ele>
        <time>2022-01-13T14:04:45Z</time>
      </trkpt>
      <trkpt lat="46.99419" lon="-0.96117">
        <ele>75</ele>
        <time>2022-01-13T14:04:48Z</time>
      </trkpt>
      <trkpt lat="46.99417" lon="-0.96116">
        <ele>75</ele>
        <time>2022-01-13T14:04:51Z</time>
      </trkpt>
      <trkpt lat="46.99414" lon="-0.96113">
        <ele>75</ele>
        <time>2022-01-13T14:04:54Z</time>
      </trkpt>
      <trkpt lat="46.99411" lon="-0.96111">
        <ele>76</ele>
        <time>2022-01-13T14:04:57Z</time>
      </trkpt>
      <trkpt lat="46.99409" lon="-0.96108">
        <ele>75</ele>
        <time>2022-01-13T14:05:00Z</time>
      </trkpt>
      <trkpt lat="46.99407" lon="-0.96104">
        <ele>76</ele>
        <time>2022-01-13T14:05:03Z</time>
      </trkpt>
      <trkpt lat="46.99405" lon="-0.96101">
        <ele>76</ele>
        <time>2022-01-13T14:05:06Z</time>
      </trkpt>
      <trkpt lat="46.99402" lon="-0.96097">
        <ele>75</ele>
        <time>2022-01-13T14:05:09Z</time>
      </trkpt>
      <trkpt lat="46.994" lon="-0.96094">
        <ele>75</ele>
        <time>2022-01-13T14:05:12Z</time>
      </trkpt>
      <trkpt lat="46.99398" lon="-0.96091">
        <ele>75</ele>
        <time>2022-01-13T14:05:15Z</time>
      </trkpt>
      <trkpt lat="46.99396" lon="-0.96088">
        <ele>74</ele>
        <time>2022-01-13T14:05:18Z</time>
      </trkpt>
      <trkpt lat="46.99394" lon="-0.96085">
        <ele>74</ele>
        <time>2022-01-13T14:05:20Z</time>
      </trkpt>
      <trkpt lat="46.99392" lon="-0.96081">
        <ele>75</ele>
        <time>2022-01-13T14:05:23Z</time>
      </trkpt>
      <trkpt lat="46.9939" lon="-0.96077">
        <ele>75</ele>
        <time>2022-01-13T14:05:26Z</time>
      </trkpt>
      <trkpt lat="46.99388" lon="-0.96074">
        <ele>75</ele>
        <time>2022-01-13T14:05:29Z</time>
      </trkpt>
      <trkpt lat="46.99386" lon="-0.9607">
        <ele>74</ele>
        <time>2022-01-13T14:05:32Z</time>
      </trkpt>
      <trkpt lat="46.99384" lon="-0.96066">
        <ele>74</ele>
        <time>2022-01-13T14:05:35Z</time>
      </trkpt>
      <trkpt lat="46.99382" lon="-0.96063">
        <ele>74</ele>
        <time>2022-01-13T14:05:39Z</time>
      </trkpt>
      <trkpt lat="46.9938" lon="-0.96058">
        <ele>75</ele>
        <time>2022-01-13T14:05:42Z</time>
      </trkpt>
      <trkpt lat="46.99379" lon="-0.96054">
        <ele>75</ele>
        <time>2022-01-13T14:05:45Z</time>
      </trkpt>
      <trkpt lat="46.99377" lon="-0.96051">
        <ele>74</ele>
        <time>2022-01-13T14:05:48Z</time>
      </trkpt>
      <trkpt lat="46.99375" lon="-0.96047">
        <ele>75</ele>
        <time>2022-01-13T14:05:51Z</time>
      </trkpt>
      <trkpt lat="46.99373" lon="-0.96043">
        <ele>75</ele>
        <time>2022-01-13T14:05:55Z</time>
      </trkpt>
      <trkpt lat="46.99371" lon="-0.96038">
        <ele>75</ele>
        <time>2022-01-13T14:05:58Z</time>
      </trkpt>
      <trkpt lat="46.9937" lon="-0.96034">
        <ele>76</ele>
        <time>2022-01-13T14:06:01Z</time>
      </trkpt>
      <trkpt lat="46.99367" lon="-0.96032">
        <ele>76</ele>
        <time>2022-01-13T14:06:05Z</time>
      </trkpt>
      <trkpt lat="46.99365" lon="-0.96028">
        <ele>76</ele>
        <time>2022-01-13T14:06:08Z</time>
      </trkpt>
      <trkpt lat="46.99362" lon="-0.96025">
        <ele>75</ele>
        <time>2022-01-13T14:06:11Z</time>
      </trkpt>
      <trkpt lat="46.99361" lon="-0.96021">
        <ele>75</ele>
        <time>2022-01-13T14:06:15Z</time>
      </trkpt>
      <trkpt lat="46.99359" lon="-0.96017">
        <ele>75</ele>
        <time>2022-01-13T14:06:18Z</time>
      </trkpt>
      <trkpt lat="46.99357" lon="-0.96013">
        <ele>75</ele>
        <time>2022-01-13T14:06:23Z</time>
      </trkpt>
      <trkpt lat="46.99355" lon="-0.9601">
        <ele>75</ele>
        <time>2022-01-13T14:06:26Z</time>
      </trkpt>
      <trkpt lat="46.99354" lon="-0.96006">
        <ele>75</ele>
        <time>2022-01-13T14:06:30Z</time>
      </trkpt>
      <trkpt lat="46.99352" lon="-0.96002">
        <ele>75</ele>
        <time>2022-01-13T14:06:33Z</time>
      </trkpt>
      <trkpt lat="46.99352" lon="-0.95997">
        <ele>75</ele>
        <time>2022-01-13T14:06:35Z</time>
      </trkpt>
      <trkpt lat="46.99353" lon="-0.95992">
        <ele>75</ele>
        <time>2022-01-13T14:06:39Z</time>
      </trkpt>
      <trkpt lat="46.99355" lon="-0.95988">
        <ele>76</ele>
        <time>2022-01-13T14:06:43Z</time>
      </trkpt>
      <trkpt lat="46.99357" lon="-0.95985">
        <ele>77</ele>
        <time>2022-01-13T14:06:46Z</time>
      </trkpt>
      <trkpt lat="46.99359" lon="-0.95984">
        <ele>77</ele>
        <time>2022-01-13T14:07:00Z</time>
      </trkpt>
      <trkpt lat="46.99361" lon="-0.95985">
        <ele>77</ele>
        <time>2022-01-13T14:07:05Z</time>
      </trkpt>
      <trkpt lat="46.99364" lon="-0.95988">
        <ele>77</ele>
        <time>2022-01-13T14:07:10Z</time>
      </trkpt>
      <trkpt lat="46.99367" lon="-0.95989">
        <ele>77</ele>
        <time>2022-01-13T14:07:13Z</time>
      </trkpt>
      <trkpt lat="46.99369" lon="-0.9599">
        <ele>77</ele>
        <time>2022-01-13T14:07:16Z</time>
      </trkpt>
      <trkpt lat="46.99372" lon="-0.95992">
        <ele>77</ele>
        <time>2022-01-13T14:07:20Z</time>
      </trkpt>
      <trkpt lat="46.99374" lon="-0.95994">
        <ele>78</ele>
        <time>2022-01-13T14:07:24Z</time>
      </trkpt>
      <trkpt lat="46.99377" lon="-0.95995">
        <ele>79</ele>
        <time>2022-01-13T14:07:47Z</time>
      </trkpt>
      <trkpt lat="46.99381" lon="-0.95995">
        <ele>79</ele>
        <time>2022-01-13T14:07:50Z</time>
      </trkpt>
    </trkseg>
  </trk>
</gpx>